GFSGBSN_850_spd_000.txt.gz
Wind_Speed
22 18 19 23 23 21 21 21 22 21 20 19 19 17 14 12 12 9 7 6 5 5 5 5 5 5 10 11 14 4 9 6 5 9 17 18 12 5 4 5 9 9 7 18 22 27 29
23 22 22 20 23 23 22 22 23 25 20 19 19 17 16 13 13 11 8 7 7 6 5 3 5 8 11 7 9 19 13 6 3 5 5 17 11 11 8 8 9 8 10 17 20 21 20
25 27 24 23 27 22 22 22 23 23 22 20 20 18 16 15 14 13 10 9 8 7 6 5 4 7 12 20 8 13 20 21 12 8 10 8 20 10 2 4 13 9 11 11 10 11 11
24 25 27 25 23 25 20 21 23 24 23 22 20 18 17 15 14 14 12 9 8 9 8 7 6 7 9 5 9 17 13 17 16 16 15 11 6 14 9 9 7 4 4 8 4 9 7
29 28 28 28 26 24 23 23 23 24 24 23 22 20 19 15 15 15 13 11 8 9 9 8 7 6 10 6 10 11 20 16 11 16 17 14 11 8 2 2 5 4 6 6 5 6 5
30 31 32 31 29 27 20 24 27 26 26 24 24 22 19 16 14 14 14 11 7 7 8 7 8 4 12 7 4 3 22 17 7 9 9 10 5 2 2 5 14 12 7 9 9 3 8
30 31 30 31 30 31 26 28 19 28 28 26 25 23 21 17 15 15 17 11 5 5 14 11 11 6 1 4 4 4 19 16 11 6 5 2 4 11 11 9 5 7 9 12 4 4 10
30 30 32 31 32 32 28 31 28 22 30 28 26 25 23 19 17 16 19 13 8 4 5 21 25 19 13 8 4 6 13 14 11 9 4 3 11 8 7 8 10 11 16 15 9 9 8
33 30 32 32 32 33 34 29 33 25 29 29 26 26 24 20 19 19 24 21 12 4 3 7 23 18 21 21 8 12 18 15 8 14 14 13 6 15 12 11 11 14 17 10 9 14 18
34 32 34 35 34 33 33 29 28 28 19 29 27 27 26 23 21 23 25 21 11 3 3 4 4 4 12 15 6 28 22 14 5 16 13 13 18 15 11 14 10 18 7 13 13 6 7
35 34 34 35 33 32 31 31 26 27 25 25 28 28 31 30 18 27 21 17 13 3 3 4 4 5 6 13 7 8 27 18 14 8 7 8 8 15 20 18 15 11 9 11 10 10 7
35 36 34 34 33 34 32 31 26 22 25 31 27 31 32 31 22 14 16 21 15 3 8 5 5 4 6 11 3 4 16 18 4 14 14 8 3 5 7 11 17 4 9 8 6 4 11
36 37 34 34 34 37 32 30 33 24 22 30 15 35 34 32 28 22 26 26 3 5 2 6 4 5 5 7 8 7 6 9 5 7 7 6 18 5 3 3 5 12 7 3 6 6 8
35 37 33 34 37 36 33 35 34 22 25 25 36 48 36 35 28 31 33 2 6 5 5 4 4 7 6 7 6 9 5 10 14 6 2 8 4 15 11 17 5 13 15 6 6 4 5
35 35 34 33 35 38 33 35 31 22 26 23 25 32 40 35 32 35 25 4 6 6 6 9 7 6 8 6 5 9 9 9 10 13 9 6 6 2 2 4 14 5 12 20 7 5 3
35 33 33 34 34 38 38 41 24 11 22 23 28 39 39 40 33 37 8 6 5 3 6 4 8 8 8 9 8 8 9 8 8 18 13 5 3 7 6 7 13 10 7 7 7 5 5
33 34 33 34 36 36 42 38 22 14 13 11 21 17 29 40 39 26 7 6 4 6 8 6 7 8 7 6 8 7 5 4 12 10 18 5 5 1 2 9 11 9 11 6 8 8 3
33 33 33 34 36 36 38 37 26 23 22 22 18 5 38 43 7 7 5 5 5 4 7 3 5 9 7 9 7 5 8 7 17 9 11 11 4 5 13 3 10 17 16 15 8 12 10
32 32 33 34 36 36 39 37 31 25 26 19 20 12 42 42 6 9 3 7 5 5 6 7 11 10 9 6 4 11 6 9 14 8 10 10 4 3 4 6 9 12 19 19 20 4 5
30 30 32 34 35 34 40 41 39 30 18 31 8 5 14 23 6 10 13 8 7 12 10 6 5 11 5 6 8 3 8 5 13 11 17 17 4 6 7 1 2 11 21 18 15 12 9
30 29 30 33 33 33 38 38 41 30 18 18 6 4 9 9 7 12 10 4 12 7 6 11 4 11 7 4 6 8 7 4 4 11 8 6 6 7 18 17 14 12 20 21 19 9 12
30 27 28 30 30 31 34 35 36 28 13 13 6 5 11 14 16 9 14 10 12 8 6 6 8 8 13 10 6 0 6 4 5 12 8 3 3 4 13 12 16 8 23 15 12 7 7
31 27 28 30 29 30 33 33 35 21 22 8 7 13 17 14 11 8 6 8 8 3 10 12 12 8 10 16 18 11 13 5 2 4 5 7 2 3 4 7 13 6 19 13 5 8 14
32 27 27 27 26 29 30 30 30 16 15 21 12 12 6 6 9 10 9 12 13 12 9 7 18 8 0 7 9 10 9 6 3 8 11 5 4 4 2 4 3 1 17 22 24 21 21
31 28 28 26 25 28 29 28 27 21 16 25 4 10 4 3 5 5 4 1 4 3 9 11 13 19 12 9 3 2 3 3 2 5 7 6 3 4 3 2 3 3 5 8 10 9 5
29 26 28 26 26 27 26 27 26 21 19 18 9 10 7 4 6 4 5 4 3 2 2 4 9 13 12 5 3 4 4 4 2 3 5 6 3 1 4 3 2 2 2 2 1 3 5
28 26 24 24 25 25 23 24 24 17 16 16 8 10 8 5 7 10 3 3 3 2 2 2 3 5 14 6 3 3 3 2 4 5 4 2 1 3 1 2 6 5 2 1 4 5 3
28 28 25 23 23 24 23 24 24 22 15 19 4 13 9 4 5 9 13 7 4 4 2 1 3 2 3 3 2 3 4 5 2 3 4 5 4 3 3 1 5 1 2 1 3 2 5
25 27 23 24 23 25 22 25 24 23 14 15 2 9 11 4 2 8 15 16 16 10 3 5 3 3 7 3 3 3 2 2 3 3 2 3 5 5 7 5 2 1 0 2 4 7 10

GFSGBSN_850_spd_003.txt.gz
Wind_Speed
22 22 23 23 22 21 17 22 20 21 22 22 22 21 21 17 15 14 11 10 9 8 6 7 9 10 13 10 11 5 7 6 6 16 17 12 7 2 3 4 8 5 2 11 15 22 27
26 25 25 25 27 24 22 20 22 21 22 24 21 22 21 17 16 14 13 11 10 8 5 5 8 10 12 6 10 13 12 12 8 8 8 11 6 7 6 5 3 7 10 9 14 21 18
26 26 27 27 26 26 23 20 22 20 22 21 23 23 21 17 17 15 14 11 9 8 7 6 6 9 13 19 9 16 21 15 13 8 6 8 11 8 2 4 8 7 7 8 8 6 6
27 27 26 27 30 26 25 23 22 19 21 22 24 24 22 19 17 15 14 11 10 9 9 7 7 8 9 3 17 15 15 10 16 13 9 8 5 6 10 9 6 3 3 5 4 8 8
27 28 28 29 26 26 26 26 23 20 17 22 25 25 24 21 18 15 14 12 12 9 10 9 8 8 10 6 10 15 19 13 13 13 12 11 7 5 2 3 5 6 8 5 5 8 5
30 30 30 31 30 28 29 28 27 25 22 15 24 27 25 24 20 15 15 14 11 9 9 8 9 5 11 4 5 6 20 19 8 10 11 9 6 3 4 7 11 4 5 4 6 2 5
29 30 31 30 34 33 32 31 30 27 25 24 25 26 26 26 22 16 19 15 6 5 16 12 12 6 0 7 4 4 11 18 11 5 5 3 5 10 14 8 7 6 10 12 5 6 6
29 30 32 32 32 35 33 31 30 28 29 28 22 26 25 27 24 21 22 19 9 3 5 28 20 22 7 5 4 6 13 13 8 5 5 1 12 8 7 6 9 11 15 14 11 10 10
29 29 31 32 34 34 31 31 31 28 29 32 24 27 26 29 25 24 25 27 7 3 3 8 23 25 21 18 7 13 17 13 4 6 8 10 5 10 7 8 10 10 11 14 15 7 15
28 29 31 33 33 31 31 34 30 27 28 26 30 22 27 33 30 28 27 23 18 4 2 5 6 6 12 11 8 25 22 10 3 11 6 11 13 12 5 13 9 16 7 11 12 6 10
31 31 32 34 32 32 34 34 31 27 27 27 29 21 28 42 27 32 24 23 15 3 2 3 4 6 10 17 4 12 22 12 8 7 5 6 5 10 19 15 11 8 6 9 8 7 7
33 33 33 34 32 29 35 36 33 28 30 28 24 29 28 44 32 26 20 22 16 3 7 5 5 6 9 9 2 4 13 16 2 9 11 8 4 6 6 10 14 1 6 11 4 6 13
34 34 32 33 31 31 33 34 31 34 28 25 19 33 19 51 40 27 30 31 5 5 1 6 6 6 10 6 5 5 10 10 7 6 8 8 15 2 3 4 5 9 5 3 7 8 8
32 33 31 31 31 32 34 37 38 33 27 18 17 29 17 42 39 38 44 4 4 4 5 2 5 5 7 7 5 8 9 10 14 3 3 7 5 17 9 8 6 11 13 6 5 4 5
32 31 30 31 32 32 36 38 43 35 22 13 20 16 27 39 36 43 33 2 7 6 6 8 7 5 7 7 3 8 12 15 8 17 8 4 6 2 3 16 10 5 10 20 12 13 5
34 32 30 31 31 32 33 37 42 30 12 2 7 11 21 38 42 44 9 6 5 3 7 3 7 11 10 9 9 8 7 4 13 12 13 3 4 4 5 7 11 8 5 4 5 5 6
33 32 29 30 30 32 32 34 39 32 12 6 4 7 24 42 45 27 5 5 4 5 8 5 7 8 7 6 9 8 5 5 10 7 16 7 5 2 5 10 12 10 10 6 5 6 3
31 31 29 30 30 31 30 33 37 33 17 17 1 4 39 46 9 6 5 5 6 4 4 2 4 6 8 7 7 5 8 8 13 11 10 10 4 6 15 4 14 14 14 14 4 5 9
31 32 29 29 29 30 31 32 36 37 17 3 10 6 45 42 6 8 3 3 2 4 5 6 7 6 8 5 4 8 6 9 19 12 14 9 5 4 4 6 7 7 13 18 16 4 11
30 30 28 28 27 29 30 30 33 37 27 5 10 4 14 20 6 12 10 6 4 6 5 6 4 8 6 6 8 3 5 4 18 11 12 13 4 7 7 3 2 7 16 21 20 11 10
31 30 27 26 26 28 30 30 31 37 27 20 6 5 10 9 7 14 9 4 9 5 6 13 4 10 8 4 6 7 6 6 8 12 6 6 6 9 16 17 11 10 11 21 22 24 13
30 29 27 26 25 27 28 29 31 34 20 5 4 5 12 11 17 10 14 9 6 10 7 6 7 9 12 9 7 4 5 5 5 10 9 6 3 3 7 17 22 17 17 18 25 18 20
28 27 27 27 25 26 27 27 27 30 19 7 9 5 12 17 12 12 10 9 10 5 9 12 12 10 10 14 21 26 15 14 6 8 9 4 2 2 9 3 10 7 24 20 22 17 15
28 27 26 24 25 26 26 24 24 25 14 15 18 8 4 6 12 14 9 10 8 6 7 4 11 9 4 6 11 14 14 11 6 9 12 7 4 3 3 2 1 5 10 17 17 13 11
28 26 26 23 24 23 22 23 24 23 15 15 11 6 1 4 12 12 10 4 5 9 9 14 13 18 11 8 3 1 3 3 6 8 13 9 4 3 1 2 3 5 6 11 8 8 16
27 27 26 23 22 22 23 22 25 23 20 16 2 3 3 4 8 11 11 7 3 4 2 4 3 11 9 2 3 4 4 4 3 5 5 4 2 3 4 3 3 1 9 14 11 6 19
27 27 25 23 23 21 21 20 23 23 18 19 8 4 3 4 5 11 3 5 7 3 1 1 3 4 15 5 5 5 4 2 2 3 4 2 2 5 2 2 5 3 3 12 6 5 8
26 25 24 24 23 21 22 20 22 21 18 19 4 8 4 3 7 9 9 7 6 6 3 3 3 4 4 5 3 3 4 5 1 2 3 5 3 3 2 1 3 1 3 6 3 0 8
25 23 21 22 22 21 23 20 22 19 17 16 12 5 8 3 2 11 12 13 14 9 9 8 3 1 4 3 3 2 2 3 4 3 1 3 5 4 6 4 3 4 3 2 2 5 6

GFSGBSN_850_spd_006.txt.gz
Wind_Speed
25 25 25 26 26 26 25 27 24 20 19 22 21 25 22 19 17 19 13 11 9 7 7 7 7 11 12 12 10 5 7 6 9 22 19 10 7 4 4 3 1 5 3 7 9 12 16
24 26 28 26 26 26 27 23 25 24 21 19 22 21 25 21 17 18 13 11 10 8 6 7 7 10 14 6 13 15 11 8 8 15 18 15 5 5 5 5 3 2 7 7 8 11 19
26 27 26 26 28 28 27 25 24 23 21 20 20 22 25 22 17 16 13 11 9 7 7 8 7 10 14 20 9 13 15 13 14 11 11 8 10 5 1 3 3 5 4 6 7 9 6
26 28 29 30 27 29 30 28 28 23 23 24 16 22 22 22 22 14 14 11 9 8 8 7 9 8 9 7 14 15 18 17 13 11 7 3 3 3 6 6 5 3 2 2 4 8 8
27 29 30 31 30 30 31 33 30 28 25 24 24 15 22 22 23 19 14 10 12 9 11 10 9 8 9 7 11 17 15 9 16 16 11 7 5 4 3 3 3 5 4 4 5 2 4
26 29 29 31 32 31 32 32 32 29 27 25 25 20 21 23 24 22 13 12 11 10 11 10 12 6 10 3 4 9 18 11 9 11 8 8 5 3 3 4 6 5 6 4 5 2 3
25 28 29 30 34 33 34 33 32 29 29 26 27 25 21 24 23 27 20 17 7 5 17 12 8 5 1 6 6 5 7 17 9 7 5 3 4 10 14 10 7 1 3 8 5 7 7
26 28 29 30 30 34 37 33 31 29 28 26 24 25 21 24 25 32 24 25 17 4 4 28 22 15 4 7 4 6 8 11 7 5 4 2 13 8 4 5 6 8 11 13 8 9 9
28 31 33 33 33 34 35 32 32 34 31 25 25 24 24 23 25 37 30 24 16 8 1 6 25 22 15 11 4 12 16 8 3 6 8 10 3 4 11 5 6 5 11 6 11 11 14
32 33 34 33 34 33 33 32 31 34 30 24 24 24 23 27 25 39 34 29 17 7 4 4 5 6 13 14 6 21 22 10 3 10 8 9 9 7 4 6 6 14 7 11 11 4 4
32 33 35 33 33 33 32 30 32 31 30 27 26 25 25 26 16 42 34 32 21 8 2 3 4 5 10 18 4 6 22 10 7 7 6 5 3 5 13 12 7 5 6 8 8 6 5
33 33 34 32 33 33 33 32 33 32 28 28 27 26 21 33 19 40 27 31 22 5 6 5 5 6 9 9 2 6 9 7 3 5 7 6 4 4 5 4 12 0 4 6 4 6 10
35 34 34 33 31 32 31 32 36 35 39 38 25 23 19 28 11 36 40 34 5 4 1 6 5 7 8 7 5 6 11 9 6 4 7 5 16 4 5 4 5 8 5 2 5 6 7
36 35 34 32 30 31 29 32 31 41 42 30 20 14 19 27 23 41 46 5 4 6 5 3 6 7 6 5 5 6 10 8 13 3 1 5 6 13 11 14 6 10 10 4 5 3 4
36 34 33 32 29 30 31 30 30 37 43 24 10 13 10 31 31 47 34 5 8 6 7 8 10 6 7 5 2 6 8 8 8 14 7 3 5 1 3 7 11 4 8 13 6 6 4
35 35 32 32 29 28 30 30 31 36 40 17 3 10 9 18 52 49 9 6 5 4 7 3 5 5 7 7 7 7 7 4 12 15 13 2 6 4 3 6 11 7 0 3 5 5 5
34 32 31 32 28 29 29 29 31 34 36 20 1 9 8 11 40 19 5 4 4 7 9 5 4 4 4 5 6 5 4 4 6 4 15 5 5 0 3 9 12 8 6 5 2 3 5
33 32 32 31 28 29 30 28 31 32 33 21 6 0 10 26 7 3 4 6 5 4 2 3 3 4 6 7 6 6 8 6 9 11 9 9 3 6 15 5 12 13 11 12 5 6 4
34 32 31 30 27 28 29 30 30 30 28 30 3 3 32 43 3 4 4 3 3 3 4 5 4 5 4 6 3 8 4 7 15 11 11 10 5 3 4 2 3 9 13 15 13 3 8
35 31 30 29 28 27 28 29 31 32 36 21 6 3 15 20 6 8 8 4 3 2 4 4 4 5 4 5 5 2 4 4 19 11 12 15 5 8 9 4 2 6 11 16 16 8 14
33 31 29 29 28 28 28 28 32 32 25 10 5 3 5 5 4 11 4 6 4 1 1 9 4 8 5 4 6 8 8 5 8 13 9 8 7 12 20 22 11 6 12 17 21 20 11
30 30 28 29 27 28 27 28 29 29 22 4 5 4 5 11 14 11 6 6 11 8 4 4 6 7 8 7 6 2 3 6 5 9 10 5 6 5 10 15 19 15 18 16 21 24 24
29 28 28 28 27 28 26 24 26 29 24 8 10 7 12 16 9 9 8 5 6 7 7 10 11 8 9 13 18 22 16 13 6 5 8 3 3 3 6 9 8 10 22 21 15 20 19
29 26 28 28 26 27 24 22 25 25 22 16 9 9 1 6 9 9 11 10 4 5 5 0 10 7 2 4 11 9 16 17 13 13 13 6 3 2 5 4 3 2 5 22 24 11 21
28 27 24 25 26 27 23 23 22 23 23 18 9 4 1 3 9 10 7 6 11 5 2 6 16 18 11 6 3 3 2 3 6 10 14 10 4 3 3 3 5 3 2 5 11 12 15
28 27 24 23 23 25 22 21 21 25 24 19 3 3 7 3 9 10 8 6 3 3 1 4 6 5 9 3 2 2 2 1 4 3 2 5 4 1 4 3 4 3 1 9 7 5 17
26 26 24 22 23 23 22 22 20 23 23 20 4 4 4 4 12 19 7 6 5 3 1 2 2 2 9 3 4 3 2 2 3 3 3 2 2 4 4 3 5 2 2 10 2 5 5
24 22 23 20 21 22 23 23 20 21 19 19 5 8 4 3 10 8 15 12 8 9 3 4 0 4 2 4 4 3 3 4 2 4 4 6 4 3 0 2 3 3 4 3 3 5 4
25 23 21 22 20 21 21 21 21 19 18 19 10 5 6 3 3 11 11 11 13 8 10 8 2 1 5 3 2 2 3 2 3 3 1 3 5 3 6 4 3 2 5 8 9 7 2

GFSGBSN_850_spd_009.txt.gz
Wind_Speed
23 24 25 25 23 24 26 26 24 23 22 21 18 17 20 21 20 16 15 15 12 9 7 6 7 11 10 8 10 4 4 5 10 19 16 10 5 5 3 3 1 3 3 6 7 8 11
24 25 26 26 26 26 25 27 27 27 25 19 22 19 19 20 19 19 15 14 12 9 7 5 7 8 11 7 12 18 6 6 6 15 18 14 5 7 2 3 3 2 5 8 10 13 14
26 26 26 26 28 27 27 26 27 29 27 23 20 20 18 20 20 20 16 12 12 9 8 7 7 8 11 17 12 9 14 9 9 12 14 13 10 6 4 1 2 4 5 8 10 10 8
25 25 28 27 28 28 28 29 29 28 30 26 22 19 21 18 20 20 18 10 10 10 9 8 8 8 7 6 15 15 14 12 13 12 9 9 7 5 4 2 4 2 2 3 3 4 8
26 24 26 28 28 29 30 30 31 30 30 27 25 23 23 15 17 20 25 14 12 11 10 9 8 7 7 6 10 10 16 18 14 10 9 8 6 4 4 2 2 3 4 5 5 5 2
25 25 27 29 31 31 31 31 32 30 30 28 26 23 23 22 15 18 21 17 17 13 10 9 7 4 9 3 5 8 15 13 12 15 8 7 5 3 3 5 5 4 4 5 5 2 3
27 29 30 32 31 32 31 32 33 30 28 28 28 21 21 25 13 20 31 25 14 6 14 10 9 3 3 7 9 7 15 16 11 12 5 4 5 10 12 8 4 1 4 7 5 10 11
31 31 30 31 31 32 30 30 32 30 31 28 28 22 21 23 19 1 37 31 30 10 6 28 14 15 4 9 6 9 15 11 8 4 5 3 10 9 2 4 8 10 15 17 11 7 10
29 30 32 32 33 33 30 33 32 31 29 26 26 22 19 22 21 31 43 31 25 18 4 4 24 18 11 11 5 15 20 10 4 5 7 5 4 3 10 7 9 13 16 15 17 9 14
31 33 33 34 34 33 30 32 31 31 27 29 24 25 22 20 19 22 43 29 22 17 4 4 5 6 18 10 4 15 20 9 2 10 7 9 10 6 4 6 8 15 8 11 13 6 8
31 33 33 34 34 33 31 31 30 30 31 34 27 24 24 17 14 14 33 33 26 15 2 4 5 9 13 15 10 6 22 6 7 6 5 3 4 3 10 8 7 6 5 7 9 9 8
33 33 34 34 34 33 31 30 30 30 29 33 39 29 20 18 18 26 33 35 23 5 6 5 6 8 8 8 4 6 12 4 6 5 6 5 2 4 6 5 11 1 3 6 3 6 10
33 33 34 35 33 32 31 30 31 32 31 38 42 30 20 17 21 26 34 32 4 3 1 8 6 8 9 6 5 6 9 9 5 4 4 3 14 5 4 3 2 6 3 3 5 7 8
33 32 34 34 33 33 30 31 32 32 36 41 36 19 15 19 19 10 43 5 4 5 3 5 10 10 5 8 5 7 10 7 10 3 2 4 4 10 8 14 6 10 9 5 5 5 5
36 33 34 34 33 32 30 30 33 32 38 44 15 4 12 19 22 14 25 3 6 6 8 10 11 5 3 3 2 4 7 5 9 13 6 3 5 2 6 4 9 4 10 11 6 11 5
33 35 35 33 33 32 31 32 30 33 36 37 17 7 8 10 18 10 3 6 2 4 11 9 5 4 9 9 7 8 7 4 6 12 11 2 5 4 1 4 7 7 1 3 5 5 6
35 37 34 32 31 32 32 31 29 31 34 30 30 1 9 12 15 9 2 2 5 6 8 4 4 5 6 6 8 6 4 3 6 5 13 5 5 1 2 10 12 8 5 6 2 4 4
35 34 34 32 31 33 32 31 28 31 33 28 9 2 13 17 6 3 1 6 5 3 2 3 4 5 4 6 5 5 5 5 9 11 9 8 3 6 13 8 14 16 13 17 8 6 5
34 33 33 32 32 33 33 31 29 30 32 31 4 1 10 31 3 3 4 4 4 3 2 2 3 3 3 5 4 6 4 6 14 9 10 8 5 4 6 1 4 9 16 16 14 5 15
33 33 32 31 32 31 33 28 30 33 31 12 3 1 7 7 3 5 4 3 5 4 2 3 4 5 4 3 4 3 4 3 18 11 9 15 5 8 11 12 1 6 14 20 15 8 12
32 31 30 31 31 30 33 29 31 35 29 3 4 3 4 3 2 4 4 3 6 3 1 4 3 3 5 4 5 5 6 3 6 12 9 9 8 11 21 23 17 12 13 18 20 23 12
31 30 30 29 31 30 31 27 29 35 33 10 5 2 2 8 9 6 3 3 4 3 4 3 2 7 7 5 4 3 3 5 5 6 9 6 5 4 18 18 19 21 18 18 22 21 23
30 30 29 28 29 30 31 24 26 32 34 9 11 8 1 12 7 4 3 5 7 5 2 2 5 3 7 9 12 15 15 12 5 6 11 4 3 3 13 7 9 6 13 21 19 18 13
28 29 29 27 27 27 30 25 24 26 27 22 16 7 2 4 6 8 8 4 5 4 3 2 6 4 1 3 5 10 15 15 14 14 13 4 3 3 8 7 3 2 4 13 20 20 21
26 27 27 25 25 25 26 24 23 24 25 26 10 2 3 2 6 9 9 7 3 2 3 1 5 7 13 5 2 3 1 3 7 13 12 14 4 3 3 4 6 2 6 1 8 7 20
27 26 23 24 24 24 25 25 24 21 24 24 6 6 4 1 8 11 5 7 3 3 1 2 7 6 4 3 2 2 3 2 4 2 6 7 4 2 3 4 4 3 5 5 2 2 4
25 25 24 22 23 23 23 24 26 22 21 25 4 11 6 4 4 18 8 8 7 4 1 1 2 3 6 2 2 4 3 2 3 3 4 3 2 4 4 4 6 4 4 5 3 5 8
23 23 22 21 22 22 22 21 24 22 17 22 12 7 10 4 8 14 17 11 8 8 3 3 2 2 2 2 3 3 4 4 2 3 4 6 5 4 2 2 5 1 2 1 3 10 7
22 21 22 22 22 21 20 20 22 21 20 18 19 10 4 3 3 7 13 16 15 13 14 10 1 3 4 3 2 2 3 2 3 3 1 3 5 2 6 5 3 5 8 12 13 11 6

GFSGBSN_850_spd_012.txt.gz
Wind_Speed
23 23 24 24 24 25 23 24 23 25 26 27 24 18 16 18 20 19 20 15 14 11 12 9 10 12 11 9 6 4 2 5 13 20 16 12 10 8 8 5 7 12 11 11 12 12 16
23 22 24 25 24 25 26 26 25 26 28 26 27 22 17 18 21 20 21 16 13 11 12 9 9 10 10 11 9 14 4 2 7 18 17 14 8 7 4 5 8 2 6 11 11 17 19
24 24 22 24 25 25 26 27 28 28 28 26 28 24 22 18 16 21 19 22 14 11 13 10 7 8 9 10 10 13 14 12 7 11 14 16 10 7 7 4 4 6 10 12 17 15 13
22 22 22 25 26 28 25 27 27 27 28 26 27 24 22 20 19 18 19 25 16 14 14 11 8 7 6 8 17 9 12 11 10 9 11 14 12 5 3 1 3 5 5 5 2 2 8
23 27 26 27 26 28 26 27 26 26 28 26 25 25 24 22 20 12 18 27 20 16 15 11 7 6 4 7 11 12 14 12 13 12 11 11 9 4 4 5 5 8 7 9 9 4 6
27 28 26 27 27 29 27 29 25 25 28 27 27 25 24 19 23 17 6 22 19 20 15 12 6 4 8 3 7 12 21 17 12 13 9 6 4 5 7 8 5 5 7 7 10 3 6
28 28 28 29 30 31 29 29 26 26 27 28 25 23 24 19 18 26 12 26 21 8 17 9 11 3 7 8 9 11 20 15 12 13 10 8 6 11 14 14 9 2 6 10 9 7 15
28 29 30 31 30 30 30 29 26 27 26 27 23 24 22 20 17 20 25 14 33 11 9 14 10 8 10 11 5 11 20 12 13 12 10 5 12 13 6 10 12 14 16 16 14 13 11
29 30 31 31 32 30 30 28 27 26 26 26 24 26 21 18 22 26 24 16 33 16 4 11 17 10 8 11 5 16 20 10 12 11 16 8 3 1 12 12 12 15 17 14 16 15 18
29 32 33 32 31 31 30 29 26 24 25 24 26 19 22 20 20 11 20 20 26 10 3 8 10 8 15 8 4 12 20 8 4 12 10 9 10 6 7 9 12 14 8 13 13 10 6
30 32 33 32 34 31 29 29 27 26 26 28 28 26 25 19 17 15 7 18 23 13 7 10 7 9 16 15 14 8 15 3 7 9 6 3 6 9 12 11 12 7 4 7 9 11 11
33 33 33 35 31 30 29 28 26 26 30 28 29 35 28 22 16 19 13 27 23 4 6 7 8 10 15 11 7 9 13 3 5 5 6 7 2 5 6 8 13 3 7 9 11 8 8
31 29 32 32 31 30 29 28 27 31 29 31 38 45 32 17 15 14 10 19 5 6 7 9 9 13 15 11 9 11 13 9 6 5 7 5 16 6 8 9 8 11 5 3 4 6 9
34 34 34 32 30 30 29 28 28 30 30 33 43 25 6 17 20 12 13 3 4 5 6 5 13 16 8 17 6 11 13 10 10 4 3 4 4 15 11 16 4 18 14 5 7 10 12
34 34 32 31 29 29 30 30 31 30 27 32 37 9 8 15 21 14 13 4 2 6 11 13 14 9 6 12 6 7 10 8 11 14 6 5 5 3 7 8 12 5 9 13 18 20 13
32 31 32 30 30 31 31 33 31 28 33 35 32 2 8 13 18 17 3 3 1 3 17 16 7 7 9 13 8 10 11 6 8 16 15 2 4 7 3 8 12 14 0 5 6 6 18
30 30 31 31 31 33 31 31 28 31 33 32 22 2 12 14 19 10 1 2 4 13 12 3 7 8 8 12 8 12 6 3 8 11 17 7 5 3 3 12 13 10 8 6 6 9 8
30 30 29 30 32 32 32 28 29 32 30 37 5 1 18 21 4 2 1 1 6 6 1 4 8 10 13 13 11 9 9 5 9 12 10 12 5 8 14 14 14 16 16 19 9 12 7
29 30 29 29 31 32 32 27 31 37 42 16 1 3 7 15 3 4 2 1 3 2 3 3 4 3 6 9 6 8 5 3 12 12 12 11 5 4 5 3 8 10 19 22 18 10 20
29 29 29 29 30 29 33 27 30 40 30 8 3 3 4 2 2 8 8 3 5 5 3 7 6 6 7 6 2 7 7 4 13 15 6 12 6 8 10 13 8 8 12 19 18 11 18
28 28 29 29 28 28 31 26 29 39 21 9 5 4 4 3 3 9 3 3 8 3 3 4 4 3 5 4 5 4 6 3 4 10 9 7 6 11 20 23 22 23 26 20 22 28 17
26 27 26 27 27 28 30 26 27 34 29 18 6 5 6 4 9 10 2 3 3 4 3 3 3 8 7 3 5 3 5 6 5 10 12 6 7 4 16 20 23 23 23 21 18 24 26
26 27 24 25 26 25 28 27 25 28 31 11 18 6 1 6 6 7 6 7 6 6 3 5 6 5 6 5 8 10 12 7 5 6 13 5 2 2 8 14 22 9 7 11 7 12 20
24 26 25 22 24 23 25 28 24 23 23 22 16 8 3 4 6 5 6 5 8 7 4 3 6 3 2 1 5 8 14 16 15 14 12 6 4 2 8 12 4 5 5 10 13 16 17
23 23 23 22 22 23 22 24 24 22 21 21 7 3 4 1 8 7 5 5 5 5 3 3 3 3 4 3 3 5 3 4 7 13 16 15 7 3 3 4 11 4 8 6 4 6 5
20 21 21 20 20 21 21 22 23 22 19 15 12 11 4 3 8 10 8 8 7 4 2 3 4 2 1 2 2 3 2 1 1 3 2 8 11 4 1 4 4 7 6 2 2 3 12
19 20 20 20 20 20 20 20 21 22 18 17 9 11 5 4 7 17 11 9 7 6 3 1 2 1 6 3 3 4 3 1 2 3 4 4 2 6 6 5 6 4 5 4 5 7 16
18 19 19 20 19 19 18 18 20 19 19 16 13 7 12 6 8 14 16 7 6 7 4 5 3 2 2 2 2 3 3 2 3 2 3 6 5 4 4 4 3 3 3 3 4 11 10
19 18 19 19 20 19 20 20 18 18 16 16 13 14 14 10 5 11 12 15 15 10 9 10 0 4 5 3 3 2 3 3 3 2 3 4 5 2 5 3 2 3 8 8 7 8 6

GFSGBSN_850_spd_015.txt.gz
Wind_Speed
19 20 19 19 21 21 22 22 23 23 24 24 23 23 22 18 18 17 19 17 22 16 14 12 11 12 12 9 9 5 5 9 16 17 17 16 16 15 11 10 10 13 16 16 15 17 19
19 20 21 21 22 23 24 23 24 25 24 24 25 25 23 21 19 15 17 17 22 15 14 11 11 13 12 12 9 10 5 4 10 19 18 16 8 8 5 7 10 3 11 16 16 18 20
21 23 25 27 25 24 25 24 23 24 24 25 26 24 25 25 21 17 14 16 21 16 13 12 11 10 11 15 5 8 13 6 6 16 18 13 7 6 7 5 11 10 14 14 19 21 16
24 25 26 25 26 27 28 25 24 25 23 24 25 26 24 24 22 21 14 17 21 20 15 14 11 7 8 15 11 7 8 8 7 8 11 13 10 6 6 2 5 6 10 10 8 4 13
25 26 25 28 27 31 30 25 27 27 24 23 25 24 24 25 22 21 18 14 26 25 18 16 11 8 8 10 12 15 10 11 10 9 7 8 9 6 5 9 8 10 9 12 9 6 6
25 28 28 28 31 30 30 27 26 26 26 23 25 27 24 21 19 19 22 13 22 25 20 15 7 6 12 9 10 11 13 12 11 16 14 8 6 6 10 11 7 8 13 9 10 4 8
27 28 28 32 31 34 30 28 27 26 25 24 23 20 19 20 18 15 18 13 15 13 28 10 13 3 11 10 10 11 17 18 13 16 7 9 6 12 16 15 16 6 9 10 10 7 15
29 28 30 32 31 32 30 28 27 26 23 22 21 20 22 15 16 16 16 10 8 3 9 13 6 8 10 11 9 14 20 14 14 12 11 5 14 16 12 9 11 12 14 14 14 13 12
29 29 32 33 34 32 30 28 26 25 21 20 20 25 19 18 20 15 17 24 13 6 6 17 14 13 9 10 8 21 22 13 15 15 16 11 3 4 14 11 11 13 14 13 14 14 16
28 29 27 32 32 30 29 27 26 23 22 23 23 23 21 20 15 7 12 16 31 5 3 9 10 9 9 8 5 16 19 11 6 14 14 12 9 5 8 11 11 12 9 10 11 8 6
29 30 34 33 31 30 27 27 24 23 24 26 23 21 22 21 20 15 10 6 25 14 6 13 10 8 16 11 18 13 19 5 10 8 8 4 6 12 12 14 10 6 3 4 6 9 13
30 33 32 32 31 29 28 26 25 24 26 25 25 30 30 30 19 18 13 7 21 3 4 8 7 11 16 14 7 16 13 6 4 6 10 9 2 7 9 6 11 3 3 6 6 4 7
29 32 30 32 29 28 29 27 27 29 26 23 29 38 25 21 21 14 12 18 3 5 12 9 9 13 16 13 10 14 14 11 8 5 9 10 16 8 10 7 7 9 2 2 4 5 9
28 31 30 31 29 30 29 29 29 25 25 31 35 21 10 10 20 20 19 5 6 11 7 7 14 17 9 15 10 14 14 12 15 11 4 8 6 19 14 14 5 13 10 5 6 8 14
27 31 30 29 30 31 30 32 25 27 28 29 34 6 6 9 15 18 13 5 2 10 12 12 17 12 9 17 8 12 14 12 14 14 7 5 4 2 7 6 11 6 9 15 12 16 12
27 31 29 29 32 31 30 32 25 29 31 27 24 8 9 13 14 12 1 1 1 5 17 19 7 7 9 18 9 12 14 13 11 17 12 1 2 6 6 5 12 12 1 2 5 5 10
28 29 30 28 29 30 31 31 30 34 33 15 6 5 10 15 11 3 3 1 5 19 9 0 7 9 10 15 11 14 16 5 17 14 15 6 4 5 3 11 9 8 12 6 7 8 6
26 28 29 28 28 30 32 31 32 38 29 10 6 3 13 16 3 3 1 3 13 8 4 2 3 4 15 16 11 12 9 3 7 9 12 9 2 6 12 9 8 13 14 16 8 9 8
27 27 29 30 29 30 31 30 32 37 23 8 6 6 12 1 3 4 2 1 6 5 2 4 3 2 5 11 6 6 6 5 10 12 10 10 5 3 3 3 8 11 17 16 18 16 23
25 28 27 28 28 28 30 30 31 31 19 8 3 2 4 3 3 8 3 8 5 2 3 4 8 8 9 11 3 8 5 4 11 12 7 9 5 8 8 9 10 7 15 19 16 9 20
24 27 25 26 27 26 29 29 29 30 18 6 7 4 2 2 5 9 2 3 7 4 2 3 3 1 4 4 4 4 5 5 5 9 6 5 5 10 17 22 20 21 24 24 20 20 17
24 24 25 24 26 26 27 30 28 28 18 21 5 4 4 3 13 9 1 6 4 5 1 2 3 6 3 4 1 4 5 7 5 9 11 4 3 2 12 21 20 19 23 18 17 19 19
23 22 22 22 23 26 26 27 27 25 24 10 7 6 4 4 7 7 6 4 2 3 4 4 3 5 3 2 3 2 4 4 1 4 10 4 2 2 6 10 20 9 4 6 8 11 9
19 21 20 19 20 22 24 25 25 23 21 12 6 5 4 4 7 8 3 3 4 2 3 2 4 1 3 2 6 7 9 10 12 11 10 4 4 2 6 11 3 3 2 6 10 16 10
17 19 19 20 20 21 22 22 23 23 18 12 14 5 3 1 6 8 9 4 2 7 1 4 2 2 1 4 3 3 2 3 7 15 11 11 4 2 3 6 17 4 6 3 4 8 11
16 17 18 19 20 20 18 19 22 21 18 11 8 6 3 4 8 7 8 10 5 7 4 3 1 1 1 2 2 2 2 2 3 4 0 8 12 4 1 4 4 6 10 1 3 2 15
16 17 18 18 19 20 20 19 20 19 19 15 7 7 2 4 5 6 8 8 8 7 1 3 3 2 3 2 2 2 3 3 3 4 6 4 3 6 5 4 7 14 7 2 4 7 14
16 19 18 18 19 20 20 19 19 18 18 16 8 9 9 5 13 5 12 7 9 10 4 5 4 2 3 3 1 2 3 1 3 4 4 8 6 4 4 4 6 2 5 4 6 10 10
17 19 19 18 19 18 20 20 21 18 16 16 10 10 10 8 9 5 9 13 9 10 4 6 2 3 3 2 3 2 2 3 6 3 3 4 6 2 5 3 5 8 11 12 9 10 9

GFSGBSN_850_spd_018.txt.gz
Wind_Speed
19 22 22 23 27 24 25 24 26 25 25 25 25 24 24 25 22 21 19 17 16 17 17 12 12 9 12 11 10 2 10 19 18 15 17 17 17 15 11 9 15 11 15 17 15 17 13
22 24 25 25 26 27 26 29 29 27 27 27 26 25 25 25 24 25 20 15 15 15 18 12 12 11 14 11 8 8 6 6 12 19 18 18 12 14 6 11 9 6 11 14 18 15 13
24 25 25 26 28 27 29 31 31 26 27 26 26 27 27 26 24 23 22 18 13 14 17 13 13 13 11 15 5 11 11 6 8 16 19 18 8 4 2 3 10 8 9 11 15 18 10
23 26 28 29 29 30 33 32 30 27 25 27 26 27 27 27 25 24 22 21 16 14 18 15 14 12 9 14 13 11 8 9 6 5 19 15 13 4 2 3 2 4 9 7 9 18 17
25 27 29 31 31 32 32 33 30 28 27 26 27 25 25 25 22 20 20 18 18 11 20 18 16 11 8 11 19 15 9 10 9 4 11 12 11 5 5 2 4 7 6 11 8 8 5
27 29 28 30 32 34 35 32 28 26 26 26 24 23 22 20 23 18 18 17 17 13 17 16 8 9 13 11 12 14 14 10 13 12 11 9 6 4 4 6 5 5 9 8 8 4 3
28 28 29 29 31 32 32 30 27 26 25 24 21 21 21 22 20 15 17 16 7 7 29 10 16 1 16 15 14 15 17 14 11 15 5 13 5 8 12 11 11 11 8 12 8 9 8
29 29 28 32 33 33 31 29 27 25 24 21 20 21 22 20 17 17 14 8 11 3 3 15 5 5 13 16 11 15 20 11 8 9 4 3 7 10 7 6 4 7 7 11 11 11 7
29 30 32 33 33 32 30 28 26 24 22 20 21 23 22 20 19 15 10 17 20 16 4 13 7 13 14 9 9 19 23 12 9 12 9 7 1 10 11 8 4 7 7 9 11 11 10
30 31 32 31 33 30 28 28 26 26 26 24 24 21 19 18 14 7 9 10 17 16 2 9 4 9 9 8 6 18 21 9 7 14 10 7 4 4 5 9 6 6 4 5 6 6 4
31 30 30 31 29 29 29 29 26 26 26 27 24 23 24 19 18 15 9 10 6 3 5 12 8 11 15 6 20 13 21 5 9 8 6 2 4 6 5 4 5 2 6 5 5 6 7
30 29 31 31 29 30 30 30 29 30 26 24 23 29 32 29 27 21 7 4 5 2 5 5 7 12 13 11 4 18 10 1 2 5 9 4 6 2 4 4 3 6 1 2 4 1 4
29 30 33 31 31 31 30 31 32 26 27 29 33 39 17 11 16 10 9 9 4 4 11 8 9 12 16 12 8 11 9 7 5 5 5 5 8 3 3 2 2 4 3 1 3 3 7
26 30 32 32 30 32 30 31 31 27 30 31 33 14 13 1 12 20 19 2 2 8 4 7 15 16 11 14 7 10 10 9 10 6 6 5 4 14 9 8 5 10 6 3 5 3 4
27 30 30 31 29 31 31 32 31 32 33 24 14 10 13 13 15 19 11 2 4 4 10 11 18 9 10 12 7 9 10 7 10 11 4 5 2 6 11 7 7 6 7 2 5 5 3
27 29 29 31 29 30 31 32 32 37 43 18 6 12 10 10 13 16 2 1 4 4 17 14 6 8 8 15 8 11 12 12 11 15 9 4 0 1 7 1 6 7 4 2 0 3 6
28 27 29 30 31 32 31 32 34 38 31 9 8 6 8 11 10 0 3 3 1 21 8 3 9 8 10 14 7 10 10 1 16 11 12 5 1 3 5 8 9 6 7 2 3 3 4
27 28 29 29 30 30 31 33 33 36 21 8 8 3 8 7 4 3 0 4 6 8 6 4 3 7 12 13 9 10 8 4 17 11 9 7 3 3 10 8 13 10 8 13 3 6 5
26 27 29 28 29 30 31 32 31 31 14 10 6 6 5 3 1 2 3 2 4 6 6 3 5 6 14 11 6 7 8 7 3 5 10 7 3 2 2 3 8 6 8 8 11 10 16
24 26 26 27 28 30 31 33 30 26 9 6 3 2 3 3 4 4 3 5 3 5 7 9 5 4 7 8 4 7 5 2 7 5 5 13 2 5 3 2 2 3 5 8 9 6 12
23 24 24 25 26 28 29 31 30 25 7 3 3 3 2 1 3 6 5 5 5 3 4 2 2 2 7 5 4 4 8 7 6 5 5 0 3 4 9 13 13 13 16 16 16 18 13
21 23 23 23 24 25 26 29 29 25 11 12 5 5 6 2 11 4 3 3 2 4 5 2 3 5 1 4 6 6 6 6 5 7 5 3 2 4 9 15 16 15 17 18 18 19 18
19 21 22 23 23 24 24 25 27 25 19 10 8 6 5 3 6 5 3 5 4 3 3 6 4 3 3 7 6 4 5 4 5 7 8 5 2 2 4 9 11 6 5 5 9 12 11
18 20 19 20 22 23 22 22 23 22 16 13 15 7 4 2 4 6 6 4 4 4 5 2 2 2 2 1 4 4 6 6 6 5 9 5 4 2 4 9 2 2 8 6 8 14 13
18 19 18 19 20 21 22 21 20 18 17 11 13 9 6 3 8 2 3 5 4 6 5 4 4 4 0 3 2 3 3 2 6 9 10 6 4 2 2 2 8 3 3 3 2 6 6
19 17 20 18 20 19 20 21 19 18 14 12 6 11 5 5 3 11 4 7 3 4 3 4 2 2 1 1 1 2 1 3 4 4 3 10 7 2 1 3 3 3 4 7 5 4 3
17 18 20 20 19 19 19 19 19 18 15 12 5 9 6 5 6 9 3 5 5 5 3 4 4 2 2 2 1 1 2 3 2 5 5 3 3 7 6 3 7 7 1 6 2 5 13
17 20 18 20 19 20 19 18 18 18 16 12 9 9 9 6 21 12 8 9 6 7 2 5 4 1 2 2 1 1 2 1 2 3 5 6 6 3 3 3 6 0 3 2 3 11 12
16 21 20 16 18 19 20 19 18 17 17 12 7 11 10 8 12 12 15 13 4 9 3 9 2 4 2 3 1 2 2 4 5 3 4 3 4 4 7 5 7 7 8 6 6 9 9

GFSGBSN_850_spd_021.txt.gz
Wind_Speed
24 25 24 26 28 27 28 27 29 30 28 26 23 23 23 25 25 23 21 21 20 13 15 17 17 11 13 12 12 2 7 18 17 15 20 22 13 10 5 7 15 5 6 19 20 19 16
22 22 25 28 28 29 30 32 34 31 29 24 20 23 25 25 23 24 21 23 21 16 11 14 14 13 15 8 9 11 8 15 16 17 20 21 10 15 6 9 6 3 8 6 8 13 16
24 26 27 29 28 30 31 33 34 32 29 29 24 23 26 24 24 24 23 21 21 19 10 14 16 16 12 18 7 10 11 7 5 14 21 21 12 11 8 2 2 2 3 7 8 14 7
24 26 26 27 29 29 30 33 31 29 27 25 23 23 22 22 22 20 20 18 18 20 14 15 16 15 9 19 12 13 16 13 12 8 19 18 12 9 4 2 2 3 2 2 7 13 12
26 28 28 26 27 32 31 30 29 28 25 23 22 21 19 19 20 21 21 18 17 18 14 14 19 14 7 11 25 17 14 16 9 6 16 16 12 5 4 4 2 1 3 6 7 7 5
27 27 28 30 31 31 31 30 28 26 24 24 22 19 19 19 20 20 16 16 19 16 16 15 13 10 10 13 25 22 14 14 13 12 11 7 4 2 3 3 6 5 4 4 5 3 1
26 28 29 30 30 31 30 27 26 24 23 22 20 19 20 21 19 18 17 18 2 5 15 7 12 4 7 15 17 21 21 13 14 11 4 6 3 6 8 5 5 2 2 4 5 6 4
28 29 29 28 29 29 28 27 26 25 25 25 21 20 21 20 18 15 15 7 5 3 9 18 16 4 26 20 10 21 23 10 8 7 6 4 3 5 6 7 8 6 5 5 7 4 6
26 27 28 29 30 29 28 28 27 25 25 25 23 22 21 19 18 14 7 8 12 12 2 16 13 13 19 11 8 24 20 10 6 7 8 5 2 10 6 3 2 2 3 4 5 6 5
26 26 28 30 30 30 29 29 30 27 30 25 23 20 17 17 16 9 9 7 5 12 2 6 8 8 16 12 5 22 19 13 3 9 7 1 1 3 4 4 3 1 4 1 4 4 4
27 27 29 30 31 31 31 30 31 32 25 25 25 24 28 20 17 13 4 10 4 1 3 8 6 17 14 1 20 14 18 4 8 9 5 6 4 5 1 2 4 3 5 5 4 4 4
28 27 30 32 31 31 32 31 31 30 26 28 29 29 27 18 24 15 9 4 5 2 3 5 7 9 7 12 4 15 6 5 3 5 8 4 3 3 5 2 3 4 4 4 4 3 3
27 29 31 33 32 30 30 32 33 30 33 28 27 19 14 9 3 12 13 10 2 3 1 6 9 9 12 4 7 7 5 3 4 5 3 5 2 2 3 4 2 5 5 3 3 1 6
27 28 31 30 31 32 32 32 32 35 38 29 11 12 17 4 8 19 18 3 4 5 6 6 11 13 6 8 4 6 7 4 3 4 4 5 4 8 5 6 6 5 5 4 6 3 4
27 27 31 30 31 32 31 33 35 37 30 16 12 13 20 16 16 18 2 3 4 4 6 11 14 9 7 4 7 4 4 5 4 3 5 4 3 4 6 3 5 4 5 3 1 2 2
26 27 29 31 30 32 32 33 36 34 19 14 16 19 18 14 11 9 1 3 3 3 17 10 4 3 6 7 5 6 7 7 5 9 3 1 3 2 3 3 3 6 4 2 2 1 5
25 26 28 29 29 32 32 33 35 26 15 9 13 8 11 9 5 3 2 5 3 21 5 2 5 7 8 6 4 6 12 4 11 10 8 2 3 1 5 6 7 3 2 2 2 4 4
24 25 26 27 29 31 32 32 32 21 12 9 10 3 6 7 3 1 2 2 3 6 4 3 5 7 10 10 5 6 8 1 20 15 7 4 4 3 9 6 8 4 5 5 3 5 4
23 24 25 26 27 27 30 29 30 17 14 12 5 3 8 10 3 3 5 1 5 7 5 4 6 5 13 6 5 4 5 3 18 8 9 5 1 0 4 3 2 4 7 6 8 0 13
21 22 24 26 28 27 28 29 29 19 9 7 3 2 5 5 3 2 4 4 4 8 4 6 5 13 5 4 2 7 3 2 6 5 13 12 4 6 5 3 4 3 5 6 9 5 10
18 20 22 24 25 26 26 28 28 20 9 3 5 1 3 2 2 2 2 3 3 3 5 7 6 4 6 3 4 4 5 4 4 3 4 3 2 2 6 8 5 7 10 11 11 16 11
16 19 19 21 24 26 26 26 26 24 7 12 4 4 9 6 3 2 2 2 3 3 5 4 5 7 8 4 1 5 7 4 4 2 3 2 2 1 6 10 8 6 11 14 15 18 19
15 17 19 18 21 24 25 24 23 23 19 8 6 5 3 8 2 1 3 4 1 2 4 4 3 5 6 3 6 7 8 6 9 7 6 5 4 1 4 5 7 3 6 10 5 8 9
13 18 18 18 18 19 22 23 21 18 18 11 10 5 4 4 1 3 1 3 2 3 3 2 6 4 3 2 2 1 0 2 9 7 10 5 4 1 3 5 1 1 5 7 9 11 10
11 18 16 19 19 19 16 19 20 17 13 12 8 4 1 3 7 7 3 2 5 6 2 3 4 4 2 1 2 2 1 2 4 6 8 5 4 2 2 2 6 3 4 5 5 7 4
10 15 19 18 20 18 18 16 16 18 14 9 5 6 2 3 2 7 4 6 4 2 1 2 3 2 1 1 1 3 3 1 3 3 5 7 4 3 1 2 3 3 2 5 4 4 4
8 12 19 19 16 19 17 16 16 15 17 12 5 10 6 5 9 4 3 3 7 5 3 3 3 2 2 2 2 3 2 3 4 7 4 4 3 5 4 3 6 7 4 9 2 4 1
8 10 18 22 16 14 17 16 16 15 17 15 9 7 9 6 22 15 11 5 7 2 3 5 4 2 1 2 2 1 1 2 0 4 6 6 6 4 3 4 7 6 4 3 5 3 4
10 8 17 22 20 16 17 17 16 15 15 16 14 10 11 11 13 14 17 16 15 4 4 9 1 3 6 3 1 1 1 1 1 2 3 3 6 4 7 5 8 5 8 7 7 9 6

GFSGBSN_850_spd_024.txt.gz
Wind_Speed
21 22 24 26 26 25 26 29 31 29 28 26 23 24 21 22 21 22 19 21 18 22 20 19 23 19 15 14 17 2 9 20 21 21 24 22 17 9 6 8 12 3 3 9 14 17 13
22 20 25 24 24 26 27 27 27 28 27 24 22 21 21 22 22 20 18 21 20 19 20 16 12 15 18 11 12 8 8 21 24 23 23 23 13 16 5 5 7 2 12 12 12 8 8
23 24 25 27 27 29 32 30 29 26 24 22 21 20 20 19 20 18 18 17 17 17 17 17 12 17 19 22 6 10 12 19 20 20 20 25 14 9 8 0 6 4 3 3 5 7 4
25 24 26 26 28 28 31 29 27 25 25 23 20 19 18 16 17 17 18 18 17 14 14 19 19 21 8 20 9 16 15 13 12 15 16 23 15 7 6 4 3 5 4 1 4 4 9
26 26 25 27 27 27 29 27 26 23 22 22 20 19 17 16 17 18 18 17 15 11 14 18 10 13 5 13 21 18 19 17 15 13 18 19 17 6 4 5 3 4 2 4 7 9 6
26 25 29 26 27 28 27 26 25 23 22 21 21 19 17 17 19 18 16 18 12 16 12 12 10 6 8 13 26 19 17 14 11 13 14 12 6 3 2 4 6 6 3 3 5 4 3
26 26 26 27 29 30 28 26 27 26 22 20 22 22 18 17 19 15 16 18 3 2 10 3 8 6 7 15 25 22 17 16 14 8 4 6 2 5 7 4 2 4 2 3 4 6 5
26 26 27 29 29 30 30 26 27 27 25 24 22 22 19 17 18 15 12 4 4 4 3 13 9 5 9 18 15 24 18 8 8 4 9 4 4 7 9 8 6 2 2 5 6 3 4
25 27 28 31 32 30 31 29 27 27 26 22 18 17 15 13 16 14 9 4 3 7 1 4 11 8 19 17 7 18 21 9 6 9 4 7 3 6 6 4 3 2 3 2 4 6 1
27 27 28 31 32 29 31 29 29 30 26 23 21 22 22 18 19 3 3 2 2 2 2 7 5 7 14 12 5 18 16 8 2 9 6 3 2 6 5 4 4 2 2 3 3 4 4
26 27 29 29 32 31 32 31 31 31 28 29 26 21 20 17 10 13 4 1 5 6 3 10 6 19 12 0 21 12 5 4 4 7 5 2 4 6 5 3 4 3 4 4 2 3 4
25 28 28 30 31 30 32 32 33 34 36 35 30 19 14 8 7 14 11 4 6 2 1 5 7 8 7 7 4 9 3 7 8 5 7 1 0 3 4 4 5 6 5 6 4 2 2
24 27 29 31 30 31 31 32 35 36 31 23 19 16 11 7 5 13 12 5 4 2 3 6 9 10 9 4 6 4 4 4 4 5 4 0 2 1 4 6 4 6 6 3 4 2 6
23 26 27 30 28 31 32 33 35 31 22 20 21 23 22 16 13 15 10 0 4 4 2 11 8 13 6 5 7 6 5 3 2 4 3 4 2 5 2 4 5 3 6 4 4 3 4
24 25 27 28 28 30 31 34 27 22 16 18 19 30 29 19 16 8 3 5 2 4 4 8 14 10 3 3 6 4 1 4 4 4 5 4 1 1 2 3 6 4 2 3 2 2 3
22 24 26 27 27 28 30 32 26 16 9 10 16 24 19 12 6 8 5 5 3 5 15 6 5 1 4 4 4 3 6 4 3 7 2 4 4 2 2 4 1 4 5 3 3 1 4
22 24 26 27 27 27 29 29 25 17 10 5 4 6 8 4 6 4 2 3 2 1 1 1 4 4 7 5 5 4 10 3 7 4 6 0 4 3 5 4 7 3 1 3 3 4 3
20 22 26 28 27 26 27 28 24 19 10 6 7 3 5 3 4 3 1 2 3 5 2 2 4 5 8 5 4 4 8 4 16 6 6 3 4 3 7 3 4 4 6 5 4 3 3
19 19 24 26 28 26 24 26 22 14 14 10 4 3 7 5 3 2 2 3 5 5 4 1 3 4 5 6 5 3 4 4 16 6 8 4 2 2 3 4 2 3 5 5 2 3 6
17 17 20 24 25 28 24 24 22 14 8 10 4 3 4 4 3 2 4 4 4 6 3 5 5 13 4 4 1 4 2 4 7 5 11 7 3 5 5 5 3 3 5 7 7 3 3
19 19 16 20 22 25 27 23 23 15 8 4 5 2 4 3 3 2 2 2 5 5 6 6 3 3 4 3 4 4 2 3 5 4 3 4 3 2 5 7 5 6 8 8 9 14 8
21 17 18 15 20 21 24 25 20 20 7 7 4 5 7 6 9 4 3 1 4 3 5 4 5 3 3 3 3 6 6 3 4 0 3 1 1 2 5 6 8 7 11 12 14 16 17
21 15 17 18 18 20 19 21 22 17 15 7 5 4 4 5 5 2 2 1 2 2 3 4 4 5 7 3 6 8 4 13 8 7 3 5 4 2 4 4 5 5 9 11 5 7 7
19 13 16 17 19 18 18 16 17 18 13 7 9 5 4 4 1 2 5 3 1 2 3 2 5 3 3 3 6 7 9 8 10 4 8 5 4 2 4 5 1 3 1 5 8 7 9
17 11 15 17 16 17 16 14 15 12 13 8 6 2 2 4 4 7 7 3 3 2 2 2 3 4 5 3 3 3 3 2 5 5 6 4 4 1 2 3 6 4 3 5 6 7 5
15 10 11 17 20 13 14 14 13 13 12 9 4 5 2 4 4 6 5 2 3 1 4 1 3 3 2 2 2 4 4 4 3 2 4 4 4 3 2 1 3 4 0 4 4 4 4
17 9 9 15 20 14 10 13 10 11 11 11 4 6 3 5 10 5 5 3 4 3 2 1 3 3 3 2 2 3 3 3 5 6 5 3 3 5 4 3 7 7 4 6 2 4 7
14 10 8 14 17 20 11 12 13 10 10 12 8 5 6 6 23 23 15 9 6 4 4 5 4 1 2 2 3 3 2 3 2 4 6 7 5 3 4 4 7 7 5 3 4 6 8
11 12 11 11 17 19 17 11 13 14 11 13 12 10 10 11 15 21 24 24 24 17 4 8 2 4 7 3 1 1 1 1 2 2 2 4 6 4 7 5 6 4 8 14 11 13 12

GFSGBSN_850_spd_027.txt.gz
Wind_Speed
20 23 23 25 25 27 29 30 30 27 26 24 22 21 20 19 21 21 20 21 17 19 20 17 22 24 7 16 21 1 4 18 27 30 30 22 16 8 7 8 5 4 2 6 13 16 9
22 25 25 25 26 29 26 29 30 27 25 25 23 21 20 18 17 17 17 17 18 17 18 16 22 16 15 12 13 14 4 21 29 28 30 25 14 12 8 3 8 5 11 13 12 12 8
23 24 26 26 26 28 29 27 27 26 24 22 25 19 19 20 17 15 16 17 16 17 17 15 19 12 14 21 10 15 11 21 27 27 28 26 11 12 6 4 6 6 3 1 6 6 5
23 25 25 28 25 28 29 29 27 25 23 23 22 20 18 17 16 17 18 17 17 17 15 14 13 14 7 25 8 12 10 21 22 20 21 23 14 13 4 6 4 6 3 3 3 6 6
24 26 27 26 27 30 30 30 27 26 24 23 21 22 20 17 16 18 19 19 18 16 13 11 10 9 5 9 22 15 13 16 19 20 15 21 20 6 4 6 3 2 4 4 5 4 4
24 26 29 27 31 31 31 30 27 27 26 23 20 20 22 18 17 18 18 18 15 10 11 6 16 4 7 9 22 19 15 13 11 18 16 13 8 4 3 3 7 5 4 2 4 2 3
24 25 27 28 33 33 30 31 28 25 28 25 23 21 19 17 15 18 16 16 3 4 7 2 4 6 6 11 24 18 15 16 9 12 7 10 4 11 10 7 4 6 3 3 3 4 4
25 27 28 30 30 32 29 31 30 29 30 27 21 16 14 11 10 11 12 5 3 3 4 12 5 5 8 19 13 16 13 8 6 3 5 5 4 3 5 5 1 2 1 3 5 2 2
24 27 29 29 30 31 31 31 30 29 28 25 23 20 18 15 14 13 10 4 1 3 1 5 4 2 13 16 7 14 15 6 3 4 4 6 3 12 7 3 4 1 4 3 4 4 2
24 27 28 30 30 30 31 31 31 33 38 34 30 26 20 11 11 10 6 1 5 2 4 1 3 5 13 13 5 15 12 2 2 9 7 6 5 7 8 7 5 4 2 3 3 3 3
24 26 29 29 29 30 31 32 34 36 27 26 22 15 5 6 5 7 4 4 6 3 5 5 3 10 7 3 18 6 7 3 3 5 4 1 4 9 5 4 4 3 4 4 3 3 2
23 26 28 30 27 30 31 31 29 29 24 27 22 14 6 6 2 4 8 4 4 3 3 2 3 6 6 5 4 8 1 6 10 8 6 3 2 2 2 4 1 6 5 6 4 2 2
23 25 28 28 28 29 30 31 24 25 23 25 22 20 16 11 12 14 12 4 3 2 3 4 7 7 8 5 5 3 0 4 4 5 2 4 3 3 5 6 5 4 5 2 4 3 5
21 25 26 27 27 28 29 28 24 17 16 21 19 22 23 25 21 11 5 2 4 4 3 10 11 13 5 4 5 2 4 3 4 5 3 3 1 4 2 3 5 2 4 4 4 1 4
21 26 25 28 26 27 28 27 24 14 11 9 13 17 17 16 9 5 2 4 1 3 3 8 12 7 4 4 3 4 2 4 3 3 5 4 1 1 1 2 4 3 1 1 5 3 3
21 24 25 28 30 25 26 25 22 17 10 6 7 10 11 8 7 8 5 3 2 3 9 4 5 0 3 3 3 2 4 3 3 3 2 5 4 1 1 3 5 3 7 4 3 1 3
19 23 24 26 30 25 25 26 19 18 16 12 7 2 8 10 5 6 3 3 2 3 4 4 4 5 5 4 4 3 6 2 4 4 2 3 3 1 4 4 6 3 1 4 4 3 3
20 22 25 26 28 28 23 23 20 14 15 15 7 3 13 9 4 3 2 1 4 4 2 2 3 4 4 4 3 2 6 4 9 8 5 2 4 3 5 0 4 3 5 5 4 3 2
20 22 24 25 27 27 25 21 20 13 12 15 5 6 10 11 3 3 3 3 2 3 1 3 2 2 2 4 4 2 5 3 10 7 8 5 1 2 3 2 3 3 4 4 4 3 5
17 19 25 24 24 26 26 21 19 14 8 7 4 3 5 7 4 3 5 4 4 2 1 4 3 5 4 3 1 6 3 3 13 9 12 7 3 4 5 4 3 2 4 6 6 3 3
17 17 21 24 22 23 25 24 19 16 8 3 3 2 3 4 3 4 2 4 4 5 5 3 3 5 4 3 2 3 2 2 4 5 4 4 3 2 4 6 4 6 5 7 8 8 6
17 14 19 22 22 21 21 22 22 18 8 3 3 3 3 4 9 5 4 3 5 4 4 4 4 1 0 5 4 7 6 2 3 2 3 2 3 1 4 4 5 5 9 10 10 11 14
19 13 15 20 22 20 19 18 19 18 14 6 5 3 1 2 4 3 2 4 3 2 3 4 4 4 4 2 1 9 8 10 6 7 3 4 5 2 4 5 6 6 11 12 5 6 10
20 15 11 19 20 21 20 16 16 17 14 8 8 4 3 3 1 2 4 4 4 2 1 3 3 3 3 6 9 9 10 7 9 3 5 5 4 2 3 4 1 5 4 6 12 7 11
19 14 10 17 21 19 17 17 14 15 14 10 4 3 2 3 5 7 2 4 2 2 2 1 2 4 7 3 3 3 3 2 3 4 4 4 3 2 1 2 7 4 4 6 6 6 8
19 13 11 13 18 19 12 12 15 12 12 12 7 4 1 4 4 5 4 3 2 1 4 1 3 3 3 2 2 4 4 4 3 2 4 4 5 2 3 2 4 3 1 4 4 4 5
18 13 12 11 15 17 18 11 13 11 10 10 8 9 4 4 8 6 4 3 4 1 3 2 3 3 2 2 2 3 3 2 5 6 4 3 2 5 4 3 7 6 5 5 2 4 2
18 13 12 10 11 16 16 17 11 12 12 12 11 9 8 6 19 17 12 8 8 5 3 3 3 1 2 3 3 3 3 4 3 3 6 6 6 3 4 4 7 6 5 3 4 10 10
21 17 14 11 12 13 16 19 18 13 13 12 15 11 12 14 17 22 28 25 23 25 8 4 2 4 8 3 1 2 2 2 3 3 1 3 6 4 7 5 4 7 7 12 16 13 12

GFSGBSN_850_spd_030.txt.gz
Wind_Speed
21 25 25 28 28 25 28 28 29 29 26 24 25 24 22 19 18 16 17 16 17 15 15 17 17 13 11 9 20 5 3 7 28 29 27 23 20 13 6 8 6 4 3 12 13 10 7
24 25 27 27 28 27 30 29 29 29 26 23 23 23 21 19 18 16 15 14 15 13 15 15 14 12 14 8 14 23 4 11 29 33 30 26 16 11 10 7 5 8 9 9 6 9 5
24 24 26 29 30 29 31 31 30 29 26 26 22 23 20 17 17 14 15 14 15 15 14 14 12 11 18 15 9 17 15 10 30 34 34 28 15 10 8 4 12 5 2 1 7 5 5
24 25 26 30 28 33 32 32 32 28 26 26 25 21 19 18 16 15 16 17 17 14 12 11 8 12 10 12 16 10 11 15 28 27 32 28 13 12 4 6 4 6 3 2 3 7 5
24 26 27 29 31 32 32 32 31 30 26 26 24 23 19 19 17 15 17 18 15 15 12 9 9 10 7 5 19 9 7 22 25 22 23 24 16 7 4 6 4 2 4 4 5 5 2
23 26 28 31 31 31 31 31 32 32 32 30 28 23 20 17 16 14 17 15 11 6 3 3 8 5 6 8 15 14 11 18 24 23 19 19 9 4 2 4 7 6 3 2 4 2 2
24 25 28 29 31 29 30 32 31 31 30 30 28 22 16 12 8 9 9 9 2 3 6 3 2 4 6 11 20 16 12 19 14 24 7 15 4 14 12 6 4 5 4 4 3 2 2
25 26 29 29 29 30 30 29 31 36 36 33 30 29 18 13 10 9 10 4 1 1 4 9 4 10 5 16 8 14 13 7 4 12 6 5 7 6 8 8 6 5 4 3 4 1 1
23 25 27 32 30 28 30 29 33 34 33 34 32 21 18 9 10 8 8 3 3 3 1 1 7 8 9 15 8 7 10 5 3 4 11 5 4 4 12 9 7 2 4 2 3 4 2
23 24 28 29 27 28 29 29 31 33 35 37 29 21 9 6 4 4 4 3 4 1 4 3 4 1 14 9 5 12 8 2 3 6 12 5 2 6 7 5 4 2 2 2 2 2 2
23 24 27 28 28 27 28 29 28 30 34 31 29 18 10 7 2 2 4 4 3 2 4 2 3 6 14 5 16 4 4 7 5 6 1 3 8 5 8 5 5 3 4 4 2 3 3
22 24 28 28 27 28 29 28 23 26 29 28 25 16 9 8 7 6 6 5 3 4 5 4 3 7 7 4 4 8 3 8 8 10 6 4 7 4 4 4 1 9 5 5 4 2 2
24 23 28 27 28 27 28 26 24 23 25 23 22 21 13 13 15 13 7 4 5 5 2 1 6 5 7 4 5 4 2 4 3 4 4 4 2 1 4 7 4 4 5 2 4 3 4
22 22 27 26 31 27 27 26 23 22 18 17 17 16 15 14 11 7 8 4 8 3 6 5 6 12 6 6 5 3 3 3 5 4 3 3 2 2 2 3 5 2 5 4 4 1 3
22 22 26 27 31 30 26 25 20 18 17 13 9 13 15 13 11 11 6 5 0 2 4 8 8 7 5 6 4 4 4 2 2 2 5 4 3 2 3 2 3 3 2 2 5 2 2
21 21 25 27 29 31 27 26 20 16 16 14 13 12 17 17 12 8 2 3 2 3 3 5 4 2 3 2 2 2 3 1 4 2 2 2 4 2 2 4 7 2 6 2 3 2 2
20 21 24 26 28 29 31 25 25 17 16 16 9 4 17 16 9 6 3 3 1 3 4 3 2 3 4 4 3 4 4 1 2 3 6 3 3 1 3 2 6 2 1 4 4 3 3
22 20 24 26 28 28 29 28 24 22 16 16 6 3 14 11 6 3 2 5 6 4 3 3 4 3 3 2 2 2 7 2 6 8 5 2 4 2 2 1 1 2 5 5 4 4 1
20 22 20 23 31 29 27 28 25 21 19 17 6 4 10 9 3 3 5 3 2 3 3 0 2 1 2 4 3 2 3 1 9 4 6 5 1 3 4 3 2 3 4 4 4 3 5
18 19 22 23 25 31 27 25 26 21 13 11 5 3 5 8 5 2 5 4 4 4 2 3 3 3 3 2 4 4 2 4 9 8 7 5 3 4 5 5 4 2 4 5 5 3 3
17 19 19 23 24 29 28 24 23 22 12 7 6 2 2 3 1 2 2 2 3 4 4 1 2 3 4 3 2 3 2 2 4 2 4 4 3 1 4 4 3 4 4 8 8 6 6
17 21 18 20 23 26 27 22 22 22 13 5 4 4 4 4 6 0 3 3 4 4 2 2 5 3 3 4 5 7 5 3 3 2 4 1 3 1 4 3 4 5 9 9 11 11 12
17 19 18 17 21 24 26 21 22 21 17 8 6 3 2 3 4 1 2 2 3 4 3 4 4 3 3 1 2 6 4 9 5 7 3 4 5 2 4 3 5 5 8 12 7 6 9
18 20 19 13 19 22 23 16 19 20 18 11 8 4 3 3 1 2 4 5 2 4 2 3 4 3 3 7 10 11 9 8 8 3 5 5 4 3 2 4 1 3 4 6 11 5 11
17 20 19 12 16 18 20 12 16 16 16 15 8 4 3 3 5 7 5 4 8 1 1 0 2 3 7 3 3 3 2 1 2 2 3 3 4 2 2 2 6 3 3 6 5 3 9
20 19 18 13 14 16 17 20 12 15 13 14 9 8 2 3 3 4 5 7 3 2 2 2 4 6 4 2 2 3 4 4 3 2 3 4 4 3 2 2 3 4 0 4 3 1 2
20 18 20 16 12 12 15 16 16 11 13 13 10 11 4 3 4 3 3 4 5 3 2 2 5 5 5 2 2 3 3 4 5 6 5 4 2 5 4 3 6 6 4 4 1 3 4
22 21 19 17 14 14 11 13 17 12 12 13 12 10 8 5 19 17 12 9 8 6 2 3 3 1 2 3 3 3 3 5 2 3 6 7 7 4 5 4 7 6 6 4 3 6 9
19 20 18 12 15 13 8 12 14 13 16 14 14 12 12 15 17 24 29 32 28 25 11 6 4 5 8 3 1 2 2 2 3 3 1 4 6 4 7 5 4 3 4 8 14 14 7

GFSGBSN_850_spd_033.txt.gz
Wind_Speed
23 23 23 26 28 28 27 31 30 30 29 27 25 22 22 17 15 17 14 12 11 11 9 10 12 11 8 12 17 9 8 9 27 30 29 25 25 17 13 7 7 2 4 8 5 6 3
23 24 25 26 30 29 31 31 31 31 28 26 24 22 21 17 17 12 11 10 10 11 9 8 11 9 8 9 15 17 11 6 31 33 31 23 20 16 13 9 5 11 6 4 4 4 3
23 24 25 26 28 30 28 30 31 29 30 27 25 23 19 16 16 12 11 12 11 12 8 10 9 8 11 20 13 13 13 12 29 35 34 25 17 17 14 5 9 10 4 2 6 6 3
22 23 27 27 29 31 30 29 30 30 27 29 28 24 20 18 16 14 11 12 12 10 9 8 6 7 8 22 14 16 6 11 25 33 32 28 24 11 4 12 5 5 3 4 2 9 6
24 25 28 30 30 28 31 31 29 30 32 31 28 26 21 17 13 15 13 12 12 12 11 7 7 8 6 11 15 15 5 13 25 31 29 27 20 5 5 6 4 2 4 4 3 9 3
23 25 27 28 30 30 30 30 31 34 34 32 27 23 21 11 9 9 7 9 6 3 5 6 6 6 7 8 15 15 12 15 26 28 24 20 9 4 2 4 8 6 4 3 6 2 2
23 24 28 30 30 28 30 29 33 35 37 35 31 24 19 10 6 5 5 6 0 3 4 5 6 4 10 10 14 17 11 19 22 25 7 14 4 14 12 3 4 6 5 3 2 1 1
23 25 25 30 30 29 29 31 31 33 38 37 30 20 14 4 3 5 5 3 2 2 2 5 8 11 4 12 7 7 13 11 11 12 9 6 7 7 9 5 7 5 5 3 1 2 0
24 25 26 28 28 28 30 30 31 32 36 36 32 25 9 9 2 5 3 0 1 3 2 4 3 5 6 10 6 7 6 9 15 13 14 11 5 12 10 5 7 3 4 3 2 2 2
23 24 27 28 27 28 29 30 29 31 34 36 29 25 14 7 6 7 5 3 3 1 2 4 5 4 8 6 4 8 6 5 5 13 9 3 1 13 13 12 9 5 3 4 4 2 2
24 24 27 28 29 27 27 29 27 28 30 32 31 21 11 10 5 8 4 1 1 3 5 1 3 2 8 4 9 9 11 17 7 10 5 3 7 8 11 7 4 4 5 4 3 4 2
24 25 27 27 30 29 28 27 25 24 24 26 26 27 20 11 8 7 4 1 3 4 7 2 3 10 2 6 4 6 8 12 10 8 10 4 6 3 3 6 5 10 6 6 4 2 1
23 26 27 27 29 32 27 24 22 20 20 19 21 23 20 14 10 6 5 8 4 6 3 6 5 3 5 5 4 3 4 3 3 4 4 3 3 3 9 6 3 2 4 1 2 1 3
23 24 26 27 27 31 29 24 20 16 15 15 16 19 19 18 12 12 10 2 10 5 7 3 5 11 6 7 4 2 3 4 5 6 3 3 3 1 1 3 6 2 4 3 4 3 2
23 23 25 26 28 30 32 27 23 17 15 15 15 12 18 18 14 11 4 7 3 2 2 4 4 6 3 5 4 3 3 2 2 3 4 4 3 2 4 2 2 4 2 3 6 2 1
21 21 23 25 27 28 31 32 26 22 17 17 11 5 17 17 14 9 5 4 2 3 2 3 3 1 3 1 3 2 2 1 3 1 2 4 5 2 1 3 8 2 6 3 2 3 3
20 22 23 24 26 31 29 31 31 24 18 18 7 2 14 13 10 9 3 4 2 3 2 1 3 3 3 3 2 2 4 2 1 2 5 3 3 0 3 1 6 2 2 5 3 2 3
18 20 21 25 29 27 32 29 29 28 19 15 5 3 11 6 6 3 2 3 4 3 3 3 3 3 3 3 3 2 5 1 4 6 3 1 4 3 1 1 1 1 4 4 3 4 1
16 19 20 23 27 30 29 31 26 26 20 14 7 3 8 4 3 2 4 4 2 4 3 3 1 1 1 3 3 2 4 1 8 4 6 5 1 3 2 2 1 3 3 3 4 2 5
15 18 19 20 24 28 30 29 27 23 17 10 4 2 5 7 5 3 1 1 4 2 2 2 2 2 3 3 4 3 2 2 6 2 8 6 3 4 4 4 3 3 4 5 5 3 3
15 17 20 20 21 25 30 28 25 20 16 7 6 2 2 2 3 3 1 1 2 4 2 0 2 1 3 2 2 2 2 3 2 5 3 4 3 2 2 2 3 3 4 8 7 4 5
15 18 20 20 21 24 29 26 23 19 16 6 4 3 3 1 4 3 1 2 0 2 1 0 4 3 1 4 5 7 5 2 3 2 3 2 3 2 3 1 4 5 8 8 11 7 9
16 19 20 21 18 22 25 22 22 20 18 8 5 3 1 1 3 1 1 3 2 4 1 0 7 4 2 2 3 6 5 7 6 7 3 4 5 2 4 1 4 6 11 14 6 5 10
15 19 20 19 17 18 18 19 19 18 18 12 9 4 3 2 0 1 3 4 4 7 2 1 3 3 5 12 14 11 11 10 8 4 5 5 5 3 3 2 1 4 4 7 14 6 12
16 20 17 19 17 18 15 17 19 16 16 16 11 4 3 3 4 4 6 4 10 5 2 2 2 4 11 3 3 3 2 2 2 2 3 2 4 2 2 3 6 2 3 6 6 1 11
16 20 18 18 17 16 14 15 14 13 17 15 10 10 1 3 3 2 3 4 3 3 4 2 2 7 7 2 2 4 4 4 3 1 4 4 4 3 2 2 4 4 2 5 3 1 3
16 19 19 18 18 15 12 13 10 13 13 16 11 11 6 3 4 2 3 2 3 2 2 4 2 4 5 2 2 3 4 4 5 7 5 3 2 5 4 3 6 6 3 6 3 3 2
18 17 20 19 13 14 15 13 10 15 9 13 16 9 9 5 16 16 12 8 7 5 2 3 1 3 2 4 3 4 4 5 4 5 7 8 7 4 4 3 8 5 5 5 3 2 6
17 15 17 15 15 17 19 12 10 14 8 9 15 14 11 14 19 29 32 30 28 23 11 5 4 4 8 3 1 3 3 2 5 3 1 4 6 5 7 6 5 5 2 3 7 12 3

GFSGBSN_850_spd_036.txt.gz
Wind_Speed
22 23 24 26 26 28 29 29 28 28 28 29 29 24 22 19 15 14 11 11 7 6 8 6 6 9 5 9 17 11 16 17 26 24 25 24 31 19 18 17 14 13 8 9 7 9 7
22 23 25 27 28 27 27 29 30 27 25 25 24 26 22 18 15 11 10 8 5 7 7 7 7 8 9 12 8 24 10 8 30 28 28 25 26 20 17 15 15 15 5 16 11 9 5
22 25 26 27 30 28 28 28 29 29 30 29 28 25 21 16 12 11 9 8 6 7 8 6 8 8 11 17 8 20 21 8 24 29 30 22 18 20 12 7 10 8 14 7 12 11 8
24 24 26 29 28 28 28 28 26 31 31 31 28 24 19 15 12 11 9 8 6 8 6 5 6 5 9 10 15 19 16 10 21 27 26 18 22 18 10 7 12 11 6 10 11 17 7
23 25 26 29 28 27 27 25 31 30 33 31 30 25 18 9 7 6 8 7 8 8 8 6 6 6 7 9 16 21 9 8 25 25 24 20 23 18 9 14 9 14 11 17 5 9 9
24 24 26 28 28 26 26 29 27 31 33 33 29 22 12 3 2 2 2 4 1 1 6 6 4 5 11 13 14 23 13 9 29 24 21 20 12 12 13 15 15 17 16 12 14 5 9
24 25 26 27 25 26 26 27 28 30 33 33 29 17 9 5 2 4 4 3 2 3 5 4 2 5 9 13 15 17 10 18 24 25 10 21 8 16 21 18 3 10 16 9 8 4 6
25 23 26 28 27 26 26 25 28 29 32 37 29 21 11 9 6 5 4 4 3 1 2 2 6 11 10 9 9 12 12 9 21 21 15 9 13 17 14 11 9 14 14 10 5 4 5
25 23 26 27 27 26 25 24 26 26 29 36 23 21 16 11 11 9 8 5 3 2 1 4 3 6 3 10 7 4 5 9 18 18 20 10 12 13 14 12 12 9 11 8 3 5 1
25 24 27 28 29 26 25 22 22 22 25 29 32 18 12 6 8 10 9 5 3 3 1 3 2 5 4 9 6 10 10 4 4 9 10 7 6 18 17 16 13 9 4 7 5 4 4
25 24 27 27 27 28 25 21 18 18 19 23 27 28 22 10 7 7 4 2 2 5 3 2 5 4 8 7 8 7 7 3 7 13 5 4 6 17 18 18 14 3 7 7 4 2 2
23 24 26 26 26 26 26 23 20 16 14 16 18 20 17 9 7 6 4 4 6 3 8 5 3 2 6 3 3 5 7 10 13 9 14 5 4 3 3 7 7 15 10 7 3 0 3
22 22 24 26 27 26 26 25 21 20 17 13 13 14 15 11 6 8 9 4 1 6 2 5 4 7 6 5 4 4 4 3 5 5 3 0 4 3 5 8 6 5 10 3 4 3 2
20 21 23 26 27 29 28 26 23 20 19 16 13 8 10 11 12 11 7 2 9 5 8 2 6 9 4 2 3 4 4 5 5 8 4 3 4 3 1 0 5 9 5 3 4 4 3
20 21 21 25 28 28 31 29 28 22 18 18 8 4 9 11 10 9 2 6 2 1 2 4 4 5 2 2 4 4 3 4 4 0 2 4 4 2 4 7 4 4 4 2 4 1 2
18 21 21 23 27 31 29 32 29 28 20 16 8 3 9 12 9 6 3 5 2 2 3 2 3 2 3 3 2 2 3 1 3 2 2 3 6 2 3 1 8 2 8 2 1 5 5
17 20 20 23 26 29 34 30 32 30 24 14 5 2 12 10 6 6 4 3 2 3 3 3 2 2 3 3 2 2 3 2 1 2 2 5 2 3 3 4 6 4 3 1 0 2 2
17 18 21 22 26 28 33 35 30 30 28 13 4 1 9 7 2 3 2 1 1 2 2 1 2 2 1 2 2 2 3 2 3 5 4 2 4 4 1 2 4 3 3 5 3 4 1
15 17 20 22 26 28 30 35 30 27 25 16 7 2 5 2 2 3 4 4 3 0 1 1 1 0 1 2 1 2 2 2 4 2 5 6 3 5 2 1 1 5 7 4 3 1 5
16 18 20 23 23 29 30 32 29 23 19 12 5 1 4 6 4 2 2 1 1 1 1 1 2 2 4 3 2 4 4 1 2 1 5 3 2 1 3 3 4 5 10 11 7 4 5
15 17 20 23 22 26 30 32 28 22 16 7 5 2 2 1 3 2 1 1 2 2 2 3 2 3 4 4 4 4 3 3 2 4 2 1 2 1 2 2 4 3 6 13 11 10 6
15 17 18 21 21 20 25 28 27 23 14 5 3 3 2 0 2 3 2 2 1 1 1 3 3 6 5 3 3 6 7 5 3 4 3 1 3 1 2 3 6 8 11 12 16 16 16
18 14 18 18 21 19 22 24 23 25 16 7 4 2 1 1 1 2 1 0 0 3 2 3 5 4 3 2 3 2 6 6 6 8 5 5 5 2 1 1 4 8 16 19 11 9 14
10 15 17 17 19 20 20 19 18 22 21 14 10 4 3 1 1 1 3 4 4 3 3 2 4 2 4 13 13 10 9 9 8 5 6 6 4 2 1 2 4 3 3 3 17 11 17
10 14 19 17 17 18 17 15 18 14 19 17 15 6 3 2 4 2 4 4 10 5 3 3 1 2 13 3 3 4 2 4 3 3 5 4 4 2 2 3 8 5 5 6 6 1 15
11 13 16 21 17 16 14 14 14 12 14 16 14 13 4 3 1 2 3 3 3 3 2 2 1 5 7 2 2 4 4 3 4 5 2 4 5 4 2 2 3 3 2 6 4 4 3
14 15 16 18 15 12 14 16 13 13 13 10 12 14 7 4 4 2 2 2 4 2 3 3 3 2 4 3 5 5 4 1 5 7 6 6 3 10 8 5 7 6 1 5 4 4 3
11 14 14 15 13 16 14 17 12 10 9 9 10 12 11 4 14 14 10 6 5 4 3 5 2 3 1 5 3 3 5 5 4 5 6 10 7 5 6 5 8 6 5 4 4 3 1
14 15 12 12 13 16 17 17 15 12 4 9 10 10 11 9 13 27 27 25 23 17 6 4 4 4 3 4 3 2 3 4 5 4 4 6 6 5 8 5 1 6 1 2 3 5 3

GFSGBSN_850_spd_039.txt.gz
Wind_Speed
23 23 25 26 28 27 26 28 29 27 27 29 29 25 24 22 19 14 13 10 7 5 5 6 7 7 6 10 17 9 18 20 23 24 25 20 30 24 17 20 18 17 10 20 9 5 10
23 24 25 28 29 27 25 29 25 30 30 30 30 26 21 19 15 12 8 8 6 4 5 5 6 8 6 13 8 13 13 13 26 26 27 26 29 23 15 10 19 14 14 13 13 8 7
23 23 25 26 27 26 27 24 30 30 32 32 31 27 22 15 11 9 6 6 6 5 5 4 6 7 12 16 6 14 22 6 14 29 29 25 20 24 10 6 14 10 16 8 15 13 7
24 24 25 28 26 27 25 28 27 31 34 35 30 24 19 9 6 7 6 5 5 5 5 5 6 5 10 10 18 14 15 13 16 28 25 22 18 24 8 5 13 10 13 13 11 12 10
24 25 25 26 26 26 25 26 27 31 35 35 31 20 12 3 2 3 4 5 5 6 6 5 6 8 10 4 15 17 14 12 16 25 22 19 16 23 13 14 11 13 12 17 12 17 11
26 26 26 27 28 25 26 25 27 29 33 31 30 18 9 5 7 6 6 2 1 1 4 5 6 6 13 10 13 17 17 14 26 26 19 12 11 13 12 13 16 18 20 17 16 10 15
27 28 27 27 28 26 26 26 25 26 30 30 25 19 13 10 8 5 5 3 1 2 6 3 5 7 6 10 13 18 10 16 27 22 13 12 8 19 26 23 17 13 17 14 13 8 8
26 27 27 26 27 27 26 26 25 24 25 27 21 17 14 9 8 4 5 3 4 0 1 2 5 10 14 8 5 11 6 2 27 14 17 6 8 18 17 19 16 9 14 13 4 9 7
24 26 28 27 28 29 26 26 24 24 21 22 22 18 12 10 12 11 9 7 4 2 2 3 5 10 2 8 6 9 7 3 19 20 18 14 9 13 12 14 13 12 14 14 6 9 9
22 25 28 27 26 29 28 25 22 21 19 19 20 19 18 5 5 4 4 8 4 3 1 3 3 1 7 9 5 11 13 4 2 19 17 8 7 15 15 17 15 12 4 7 6 9 5
22 23 25 26 27 27 28 28 24 21 19 17 15 14 12 11 2 2 2 1 2 2 3 4 2 1 3 7 11 9 10 7 2 7 4 4 13 16 17 17 16 6 11 8 5 6 3
20 22 23 26 27 28 28 28 29 26 22 17 16 12 10 6 7 6 5 5 4 2 8 5 6 5 5 10 5 6 5 11 5 7 9 4 3 3 2 4 5 12 12 8 4 2 4
19 21 22 24 28 30 28 30 29 30 26 22 15 11 10 7 5 10 9 2 2 5 3 5 4 6 7 5 3 3 4 5 3 5 2 3 4 3 3 9 10 9 14 5 5 4 4
19 20 22 23 26 29 32 32 32 30 31 23 15 8 9 9 10 7 3 3 7 5 6 4 4 4 3 2 4 3 2 3 5 6 3 4 2 1 4 3 7 13 14 2 7 6 7
18 21 21 23 26 29 31 33 34 32 30 27 14 6 7 11 11 3 3 5 2 3 2 3 3 2 3 5 6 5 6 5 4 4 2 4 4 4 1 2 2 4 6 3 2 1 2
17 20 20 23 26 28 31 35 37 34 30 26 16 6 7 13 7 3 2 4 1 1 2 3 1 3 3 5 4 5 1 2 4 2 3 4 6 6 9 6 5 2 1 2 2 4 5
16 19 19 23 27 29 31 34 37 34 27 22 10 5 5 9 4 1 4 2 3 1 2 4 2 1 1 4 3 3 2 3 1 3 1 4 4 5 7 7 9 4 2 4 4 2 3
16 17 19 23 26 29 32 33 36 30 27 21 5 3 8 7 1 0 4 5 3 1 2 2 0 2 1 3 4 2 3 3 3 3 3 3 4 5 2 2 4 5 5 10 3 4 1
16 16 18 22 25 26 29 32 33 27 24 20 9 5 7 2 1 3 3 5 2 4 2 2 2 1 2 4 2 3 3 2 2 1 3 5 4 4 3 4 4 6 10 7 1 3 5
17 17 19 22 23 24 26 28 29 26 20 12 5 3 3 2 2 2 4 4 3 2 2 1 1 3 5 6 0 6 6 2 2 2 3 0 2 2 1 3 4 5 11 12 9 4 5
14 17 18 20 23 22 24 28 30 26 17 7 4 2 3 3 2 3 3 1 3 2 2 2 3 6 5 3 5 4 7 6 3 4 2 2 2 1 3 1 3 4 7 13 13 12 7
14 12 17 18 20 22 24 25 24 24 14 7 5 5 8 7 7 6 2 2 2 0 2 1 4 3 4 3 4 6 8 7 6 8 5 2 2 1 2 4 6 9 11 11 16 17 18
8 12 17 18 17 19 21 19 24 24 20 8 8 5 4 3 4 5 1 2 1 4 2 3 3 3 4 2 4 3 3 5 4 7 10 6 5 2 1 2 3 10 18 19 15 11 17
8 12 16 21 20 18 19 18 20 19 23 15 16 7 4 3 3 4 6 5 4 5 5 4 4 4 3 6 8 6 3 4 7 5 7 7 5 3 1 3 5 2 3 2 19 13 15
8 12 16 19 18 16 18 19 15 15 17 16 17 12 4 5 9 5 7 7 10 6 4 4 1 1 7 2 3 4 3 3 4 4 7 8 7 3 3 6 10 10 6 5 7 8 18
10 13 15 17 15 13 16 20 16 12 13 11 14 14 7 5 4 7 10 7 4 4 4 2 2 0 5 3 2 3 4 4 4 5 4 6 8 5 3 3 4 4 3 5 5 4 4
9 11 12 13 13 13 14 15 17 12 10 10 9 12 5 3 5 5 5 6 7 4 5 3 5 2 3 4 4 4 4 0 4 6 6 7 7 9 8 5 6 3 5 6 4 4 6
7 10 11 12 12 12 16 17 16 16 12 9 5 7 6 4 15 10 7 7 8 7 4 7 4 4 1 5 3 4 6 7 5 5 7 10 6 6 7 5 7 9 6 4 6 7 6
9 14 15 12 13 13 16 16 16 17 13 10 12 11 8 8 13 19 19 21 20 13 7 5 3 5 7 4 5 4 6 4 8 4 10 6 6 4 6 4 4 6 4 5 1 1 2

GFSGBSN_850_spd_042.txt.gz
Wind_Speed
23 24 26 27 27 28 27 25 27 29 32 34 35 32 30 23 19 14 11 7 6 5 4 4 3 3 2 9 17 10 17 22 24 28 22 20 29 24 15 19 15 18 12 21 26 6 0
26 24 25 26 27 26 26 27 27 30 34 36 34 29 25 20 13 9 6 3 3 3 2 3 4 5 7 10 6 7 9 19 30 30 26 22 23 21 11 12 14 12 19 12 13 5 1
26 25 24 25 27 27 26 26 24 31 35 34 35 28 20 15 8 5 4 3 2 4 4 3 5 6 8 13 1 5 10 11 23 31 25 23 20 20 6 3 11 7 6 8 6 9 2
26 26 25 26 28 26 25 25 27 29 33 33 31 24 21 11 7 5 2 3 3 3 4 4 4 4 10 8 14 9 9 14 3 25 24 21 18 18 5 4 2 6 2 8 8 11 6
24 27 27 28 27 26 26 25 24 26 31 29 28 25 19 14 12 7 1 1 2 4 3 1 3 3 6 3 11 10 17 12 6 23 26 17 18 9 13 5 4 5 7 12 9 15 5
22 26 27 28 28 27 26 26 24 24 25 30 23 21 17 14 12 10 8 4 3 4 1 1 3 4 4 5 7 10 13 15 8 31 24 17 9 5 4 7 11 15 14 14 13 11 14
22 25 27 27 27 28 25 25 23 22 22 23 21 16 15 14 10 7 7 7 3 2 3 1 4 12 10 10 9 10 13 12 12 18 9 13 6 18 22 17 7 9 12 13 14 9 12
20 24 26 26 27 28 27 26 23 24 22 22 20 19 13 15 9 4 7 2 4 1 3 1 5 8 9 8 5 11 9 11 11 13 14 7 11 11 13 12 15 9 5 15 2 8 5
20 22 24 25 26 28 29 28 27 23 23 19 19 15 13 7 8 9 6 4 3 4 2 5 6 3 2 5 7 13 7 4 10 13 13 9 6 14 17 16 15 11 8 9 4 6 2
18 21 24 24 26 28 28 29 28 27 24 22 17 15 9 5 6 1 2 8 4 3 2 5 4 3 3 1 4 8 11 6 3 14 11 7 6 7 8 15 15 9 8 5 8 5 3
19 20 23 24 26 28 29 28 29 28 28 25 22 16 11 6 0 4 6 1 3 2 2 3 4 3 2 4 7 7 13 4 5 9 4 1 8 5 12 12 8 5 11 7 5 4 4
17 18 22 24 26 28 29 31 32 30 28 28 24 17 12 6 7 7 8 6 3 2 4 1 3 4 5 6 4 6 7 7 7 7 8 4 5 2 2 3 5 7 10 8 2 2 2
16 18 21 24 26 27 31 32 33 34 31 28 22 16 11 7 1 11 6 2 2 4 1 3 4 5 6 2 4 2 4 4 3 5 3 5 3 3 3 7 6 9 9 3 1 1 4
17 17 21 23 26 29 31 32 33 33 32 28 19 11 8 7 3 8 2 3 4 2 2 3 5 7 3 2 4 3 7 3 1 3 4 3 2 1 2 0 5 7 7 4 5 4 4
19 17 19 21 25 29 32 34 35 35 30 26 18 8 7 11 8 3 2 4 1 2 2 3 6 2 3 5 6 5 3 4 5 3 3 3 3 2 2 4 2 3 2 4 3 3 3
17 17 19 21 25 29 32 34 36 35 28 23 17 3 2 12 6 2 2 4 2 2 3 4 1 1 3 5 4 7 5 2 7 6 7 5 5 2 3 1 5 3 4 2 1 2 4
17 17 18 21 25 29 30 33 35 32 26 18 6 5 1 9 3 1 2 0 4 3 3 4 4 1 3 3 3 2 5 4 2 6 6 5 4 6 5 5 6 2 1 3 2 2 2
16 17 18 21 25 27 29 29 31 31 26 17 5 2 3 6 1 3 2 3 1 2 1 0 2 4 3 2 1 4 5 5 3 4 5 3 5 3 2 5 5 4 4 2 2 3 1
16 16 19 22 23 26 27 30 30 27 24 18 6 3 4 2 1 2 1 3 2 1 1 1 1 3 2 2 1 5 6 1 1 2 2 4 3 4 3 3 4 5 7 8 3 3 4
13 16 17 20 22 25 26 28 29 27 17 9 5 3 2 4 1 5 3 5 3 1 3 3 4 3 2 1 3 4 6 2 3 4 3 3 2 2 3 2 5 5 8 10 5 3 3
14 12 17 20 21 23 26 24 28 26 11 8 5 2 2 3 5 7 5 5 3 3 3 2 4 6 5 3 3 3 6 4 2 3 1 3 3 3 4 4 4 2 6 10 9 7 4
8 10 16 22 21 21 23 22 25 26 10 11 6 5 9 7 4 5 3 1 3 3 2 3 3 3 3 3 2 2 5 5 3 4 4 2 2 2 2 4 3 5 7 8 11 12 11
7 11 16 21 22 19 21 22 20 22 21 10 9 4 4 8 4 3 4 8 7 6 3 2 7 2 4 5 8 8 6 2 5 6 5 4 3 2 1 3 3 6 15 16 10 8 13
6 11 16 19 20 16 19 24 19 18 20 12 13 7 5 4 5 5 7 8 6 6 4 10 5 4 3 4 5 2 2 3 6 5 6 5 3 2 1 2 2 5 3 4 18 11 10
7 10 13 17 18 16 18 20 23 17 16 13 16 7 4 3 9 7 11 8 11 9 5 4 6 3 1 4 2 3 2 2 4 4 4 4 4 2 3 4 7 6 4 4 6 9 14
6 9 12 14 14 13 16 19 19 20 14 12 13 15 5 6 4 6 6 8 5 6 4 3 5 4 1 2 2 3 3 5 4 5 3 6 3 2 3 3 3 3 4 3 3 2 2
5 9 13 13 14 13 15 17 18 18 18 15 9 12 7 5 4 8 4 5 6 4 3 3 8 4 1 2 2 2 2 3 4 5 5 3 3 5 5 3 6 3 7 3 2 2 5
5 9 14 14 13 13 16 17 14 18 17 13 9 15 7 4 14 3 5 7 7 4 2 8 4 1 2 2 2 3 3 5 3 3 6 7 5 4 4 4 7 8 4 1 5 10 11
6 9 12 15 13 16 15 15 15 14 14 10 10 13 17 8 14 24 18 18 14 10 4 4 2 3 5 3 3 3 3 2 6 3 6 4 6 4 6 5 5 11 5 9 8 9 8

GFSGBSN_850_spd_045.txt.gz
Wind_Speed
23 24 24 25 25 25 23 23 22 26 30 32 31 27 22 19 14 9 7 5 2 1 1 2 3 4 8 7 11 14 8 32 31 31 30 29 30 18 7 8 13 4 3 17 15 10 9
23 23 24 25 26 23 23 23 22 27 30 29 29 24 22 17 12 6 6 2 1 2 2 1 1 1 4 4 2 6 10 27 30 28 31 31 26 24 13 17 9 12 14 9 9 12 14
21 23 23 24 24 24 23 22 22 24 28 29 27 24 22 19 13 8 4 2 1 0 2 3 2 4 6 9 6 7 3 18 27 29 30 30 27 27 10 6 18 9 12 8 6 6 5
21 23 24 24 24 25 22 22 20 22 24 30 22 22 20 19 15 8 3 2 3 2 3 3 2 3 7 7 6 6 3 7 17 24 30 29 23 25 4 5 6 5 6 5 10 13 7
21 22 25 26 24 25 25 22 21 20 22 22 22 19 17 15 16 14 8 5 3 3 2 4 5 2 6 7 4 8 6 4 3 28 30 21 18 11 7 7 3 5 4 5 6 16 5
19 22 24 25 25 27 26 25 22 21 20 21 19 18 16 11 10 8 8 7 6 5 4 3 1 4 3 9 9 6 10 9 8 27 14 15 11 6 5 6 15 13 12 9 8 8 7
17 20 23 24 25 26 27 26 25 22 20 20 18 16 15 13 5 8 4 5 3 2 1 1 5 6 12 9 5 9 9 8 9 20 6 9 10 19 18 6 5 6 7 5 7 7 7
17 19 21 23 24 26 26 26 25 24 24 19 16 14 10 10 8 9 6 5 5 1 5 3 7 11 8 3 1 8 9 7 7 6 16 4 8 5 8 6 7 5 8 8 1 6 10
17 19 20 21 23 25 28 28 26 25 24 24 19 14 10 5 5 6 8 6 5 2 2 6 5 4 4 2 4 6 3 2 6 3 14 8 6 8 8 7 8 6 5 4 5 3 3
17 18 19 21 23 25 26 28 28 28 25 24 23 17 7 5 4 6 4 0 2 5 1 4 2 4 2 1 4 7 1 3 3 14 8 4 3 11 9 9 5 5 5 3 12 5 4
17 18 19 22 22 23 26 28 29 28 29 25 26 16 6 4 3 3 7 5 3 3 4 5 3 3 5 7 5 4 6 3 7 6 3 1 2 5 6 3 2 5 7 7 5 4 3
16 17 19 21 24 26 27 28 29 31 29 24 24 15 3 1 1 4 8 7 1 1 5 1 6 4 4 10 2 6 4 8 8 6 10 4 4 4 2 2 2 4 9 8 5 4 1
15 17 19 21 24 27 30 31 32 32 30 25 18 11 1 1 3 5 2 2 3 5 1 4 4 5 3 3 3 2 3 3 3 6 3 4 3 2 4 5 7 4 7 2 2 1 5
16 17 18 21 23 27 31 31 30 33 30 25 16 6 3 2 3 2 5 1 8 4 1 2 3 3 3 4 2 4 6 3 2 5 4 3 3 1 1 3 3 9 3 5 6 5 4
17 19 20 21 24 29 30 31 34 31 28 23 14 2 2 4 4 5 4 4 6 3 3 1 2 2 4 5 5 4 1 5 4 4 4 5 2 1 2 2 2 5 3 2 2 1 3
16 17 19 22 25 28 30 32 33 32 27 21 10 2 2 1 2 6 2 4 3 3 3 2 2 1 1 4 3 5 3 1 4 3 4 4 5 1 3 1 2 2 1 2 2 2 4
14 17 19 21 24 26 29 30 32 31 28 19 3 3 2 4 5 2 2 3 3 3 2 2 4 2 2 2 1 3 5 6 8 4 6 5 4 3 4 4 5 2 0 2 3 4 3
14 15 19 21 23 26 29 28 30 31 27 18 4 2 2 4 2 4 2 3 1 4 2 2 1 3 4 1 2 4 4 2 13 11 7 3 4 3 2 4 9 1 5 5 4 4 3
11 15 16 20 22 25 27 25 28 29 22 20 7 4 3 6 1 2 2 2 0 2 1 2 1 1 2 2 2 5 4 3 5 2 5 5 2 3 1 2 4 4 5 3 2 2 4
11 11 14 21 22 23 25 25 26 24 16 12 5 3 2 2 7 2 1 4 3 2 1 1 1 2 1 0 1 3 3 1 2 2 2 3 4 6 7 5 5 5 10 10 5 2 3
7 8 13 19 21 22 26 23 25 25 15 8 7 3 4 3 5 6 4 3 2 2 1 1 1 3 2 3 3 4 3 2 2 1 2 3 4 2 2 3 3 4 7 15 11 7 7
5 8 13 18 18 18 25 28 22 24 17 21 4 5 8 6 10 5 6 6 5 5 3 1 1 5 3 3 2 1 6 4 4 1 3 2 1 2 3 4 4 4 7 8 12 11 7
4 8 12 17 16 17 21 25 26 22 23 12 13 5 3 7 5 2 4 5 7 5 4 5 5 3 2 0 3 3 3 6 9 7 5 3 4 3 3 3 1 7 14 15 8 7 15
3 7 11 14 15 16 17 21 24 23 20 20 18 8 5 4 4 4 7 10 10 9 3 9 9 1 5 7 2 4 6 7 9 5 8 5 4 3 2 3 1 6 1 8 17 7 11
2 6 9 11 13 13 17 20 21 21 17 16 16 11 5 3 10 6 12 5 10 12 2 2 5 5 5 4 2 2 2 4 4 5 4 4 4 2 3 3 6 3 3 5 7 8 13
2 6 8 9 11 12 14 17 17 18 17 16 11 13 4 2 3 7 5 7 3 4 5 6 6 6 2 2 1 3 3 4 2 2 2 2 4 3 2 2 4 2 2 2 2 4 1
2 5 9 9 10 12 14 15 14 16 16 12 7 11 8 4 1 13 3 3 6 4 3 2 9 6 5 1 1 2 3 3 3 5 4 2 1 4 4 2 6 6 3 4 3 3 2
0 5 8 12 12 14 15 14 15 15 15 9 8 10 12 4 15 2 1 9 12 4 2 7 2 5 4 1 1 2 2 4 2 4 6 6 5 4 4 4 7 4 4 4 3 2 6
3 5 7 10 10 13 13 14 12 14 15 12 10 13 11 7 11 17 6 7 15 10 3 4 1 1 3 2 2 3 2 1 5 3 2 3 6 4 7 5 6 11 3 7 7 8 6

GFSGBSN_850_spd_048.txt.gz
Wind_Speed
19 20 21 23 23 21 19 18 18 21 24 25 22 23 21 18 13 9 7 4 2 1 1 1 2 6 4 8 17 5 11 19 27 33 27 26 26 19 6 8 12 3 15 20 18 18 19
20 21 21 22 22 22 21 19 18 19 21 23 21 21 20 16 11 9 7 5 4 2 3 3 2 1 1 4 11 5 8 22 33 35 34 28 22 20 8 9 12 9 5 12 18 21 24
18 20 21 23 23 23 21 21 17 17 19 21 20 18 18 16 13 7 5 5 3 2 3 4 2 2 5 5 12 15 4 21 32 37 39 34 14 19 12 5 11 10 8 3 14 22 9
17 19 20 23 22 24 22 21 20 18 16 18 19 17 14 14 12 9 4 3 3 3 4 2 1 3 6 8 6 6 5 13 24 29 34 34 18 24 5 6 9 5 6 5 4 12 11
16 18 20 22 22 22 23 22 21 20 19 15 17 16 15 11 8 7 5 2 2 2 1 3 3 4 8 7 8 2 4 2 14 19 26 29 24 11 5 6 4 3 6 8 6 17 5
16 18 19 20 22 22 21 22 24 21 21 18 15 14 14 12 8 5 2 3 5 5 5 3 2 7 3 8 10 1 4 2 5 16 19 19 10 5 4 7 16 19 9 11 8 11 7
16 17 18 19 21 23 23 24 21 22 24 21 17 12 10 9 7 10 2 2 2 1 1 0 5 8 9 10 3 2 3 3 9 10 4 10 7 17 12 4 6 10 5 5 2 7 7
16 17 18 18 20 23 23 24 23 24 23 22 20 17 9 4 3 7 4 4 4 3 3 3 8 11 11 2 1 3 7 5 3 11 6 6 12 6 9 4 7 9 7 5 1 4 8
15 17 17 19 19 20 23 25 26 24 25 24 22 22 10 5 3 1 2 4 4 3 1 4 2 2 0 1 2 4 7 12 5 13 12 7 8 10 8 4 5 2 6 5 5 3 2
14 17 19 19 21 21 21 25 26 26 26 25 24 22 11 3 4 5 3 2 1 4 2 2 1 0 2 2 3 5 4 5 4 11 8 4 2 9 8 4 4 3 6 5 7 5 4
13 16 18 21 22 22 25 26 27 27 26 24 24 22 10 5 4 5 3 3 4 1 3 4 2 2 2 4 8 4 5 3 9 8 6 2 7 10 7 7 5 5 5 8 4 5 4
14 16 19 21 22 23 27 28 26 28 27 23 21 19 7 5 6 3 2 4 2 5 3 3 1 4 2 4 3 4 3 6 6 6 9 5 5 4 2 2 3 5 6 8 5 3 1
14 16 19 21 22 24 27 28 29 26 27 22 17 13 6 5 1 3 2 3 4 5 0 1 1 5 6 2 4 4 2 4 2 5 4 5 3 2 2 5 3 3 7 2 2 1 7
14 17 20 21 22 25 27 27 27 27 25 22 13 3 3 3 2 1 5 3 7 5 2 2 4 4 2 1 4 3 3 2 3 5 4 3 5 1 3 3 3 4 4 5 6 4 4
13 17 20 21 23 26 26 26 27 26 24 19 8 2 3 0 1 2 1 4 6 6 4 6 3 1 2 2 4 3 2 4 1 3 5 4 2 0 3 2 1 4 2 1 4 2 3
13 16 19 21 22 24 25 26 26 28 23 14 2 6 4 1 1 5 1 3 2 3 1 2 4 6 4 6 5 4 6 6 4 5 3 5 4 2 3 2 1 1 3 1 2 2 4
12 15 17 19 21 25 25 23 25 26 21 10 7 4 3 2 3 2 2 4 2 2 1 1 1 1 1 5 5 5 7 3 7 5 5 6 4 3 4 6 7 3 3 3 0 3 3
11 13 15 17 22 22 22 21 23 25 22 7 4 2 1 3 2 3 1 4 1 1 2 2 1 3 3 3 4 3 5 2 14 9 6 2 5 4 3 5 7 3 4 6 4 5 3
9 11 11 17 19 21 21 21 21 21 19 13 3 3 2 1 1 3 4 2 3 1 1 3 2 3 3 3 3 3 3 4 9 4 6 5 1 3 3 1 1 5 6 5 4 2 6
8 7 10 16 15 18 22 20 20 19 16 7 3 2 1 3 0 1 4 3 2 1 1 2 2 3 2 2 4 2 2 4 3 3 4 5 3 5 6 4 4 5 11 10 8 4 6
4 4 9 14 14 17 20 22 20 19 17 4 4 3 3 3 3 4 1 7 2 2 1 1 1 1 2 1 2 2 2 2 4 2 2 3 4 3 3 2 4 4 6 17 16 15 9
2 4 8 13 13 15 19 23 22 21 13 19 5 5 5 5 10 5 7 7 8 4 0 1 1 5 2 3 1 4 4 2 3 1 2 3 1 2 4 4 4 4 7 11 18 15 12
2 3 7 11 12 14 18 20 22 21 19 12 8 4 1 6 6 2 4 5 8 11 5 6 3 2 4 2 2 3 7 7 7 7 4 3 4 3 4 3 2 7 13 14 11 10 16
3 2 5 9 11 12 15 17 19 20 19 15 15 6 2 2 4 3 7 8 10 9 4 12 8 1 3 5 2 3 7 6 8 3 6 5 4 3 2 2 2 6 2 7 15 10 16
5 1 4 7 9 11 14 15 14 16 17 13 13 6 3 2 3 5 13 6 8 13 6 4 7 7 7 3 3 3 3 2 3 5 4 4 4 2 3 3 7 5 3 5 6 8 16
6 2 4 6 9 11 13 13 14 14 14 10 12 14 4 4 0 4 3 5 2 5 7 5 6 7 4 2 1 3 4 4 2 2 4 4 2 3 1 3 5 3 2 4 5 5 3
8 3 5 8 9 13 14 13 13 13 12 8 7 10 4 1 4 6 3 2 3 3 3 6 11 8 8 2 1 2 2 5 4 5 4 3 2 5 4 3 6 7 5 3 2 4 6
8 3 3 8 7 10 12 12 11 12 13 11 8 10 8 5 6 3 2 7 10 3 1 7 4 3 4 1 1 2 1 3 2 4 5 6 5 3 4 3 7 3 2 5 4 3 4
7 3 2 5 7 7 9 10 9 10 11 12 6 8 11 4 4 5 3 6 6 10 3 3 1 4 5 2 2 3 2 1 2 3 2 3 7 5 7 5 5 6 7 8 5 4 1

GFSGBSN_850_spd_051.txt.gz
Wind_Speed
18 18 20 21 19 21 20 17 16 15 16 21 22 19 20 19 13 11 9 8 6 4 3 3 3 6 3 7 12 7 5 9 21 21 24 23 25 20 12 17 9 3 11 14 19 21 18
18 19 19 20 20 21 21 19 19 16 16 18 20 18 17 18 16 8 6 6 5 4 4 4 2 2 1 5 14 17 14 14 19 28 32 26 22 22 12 12 12 8 8 17 23 18 14
18 19 18 19 20 19 20 21 20 19 19 17 17 19 16 14 13 7 4 4 4 5 3 3 2 3 5 9 6 4 11 15 20 30 31 26 16 22 12 5 14 11 6 5 10 17 8
17 19 19 18 19 20 19 20 22 21 19 19 18 14 18 14 9 7 4 4 4 4 4 1 0 3 5 6 6 7 8 5 19 25 32 30 20 20 5 6 9 4 4 5 8 16 5
17 18 20 18 19 21 21 20 21 22 22 20 18 15 10 14 9 7 5 4 5 7 4 1 1 3 6 3 8 8 6 4 18 23 30 27 15 11 3 7 5 2 6 6 7 23 8
17 17 19 19 19 19 20 19 21 21 21 21 21 17 11 8 10 9 6 4 3 3 1 2 1 4 1 6 8 3 4 6 12 19 18 23 12 4 2 6 15 18 6 13 8 11 9
16 17 18 19 19 18 19 21 22 23 22 22 21 19 15 8 7 7 6 3 4 4 5 4 4 7 8 9 4 5 4 10 4 12 12 19 7 19 14 4 4 8 5 7 1 4 11
17 17 18 18 19 19 20 21 23 23 23 22 21 21 19 7 6 4 5 3 1 3 4 6 7 7 5 1 1 5 9 5 3 1 5 13 13 7 8 6 5 9 5 4 2 3 11
18 18 19 20 21 19 21 21 25 25 24 24 22 21 19 7 6 5 3 3 1 4 2 4 2 2 2 3 2 5 9 10 2 10 3 15 11 11 7 4 7 3 7 4 5 3 3
17 19 20 22 22 22 22 26 27 25 25 25 22 20 16 5 4 6 4 3 4 7 3 4 1 2 3 0 3 2 8 7 2 6 3 4 11 12 8 4 4 4 4 5 5 4 4
17 18 20 22 22 23 24 27 29 26 26 25 21 20 13 4 3 3 1 2 5 4 4 3 1 3 4 3 5 1 2 5 5 7 4 6 17 16 10 6 5 2 5 6 3 4 3
17 18 20 23 24 24 26 28 28 26 27 22 20 16 8 5 5 4 2 1 0 4 2 3 1 2 3 4 2 4 6 3 8 4 3 5 4 4 3 3 5 7 6 7 5 3 2
16 18 19 23 24 25 27 27 27 26 27 22 19 12 2 6 3 7 4 3 4 4 1 2 3 4 6 5 4 1 2 4 3 4 3 8 3 2 4 7 2 4 5 2 1 1 5
15 17 19 23 24 26 25 26 26 26 26 22 13 4 5 4 5 7 7 3 5 3 3 1 4 3 2 2 2 2 5 2 1 3 4 3 5 2 4 3 5 5 6 5 6 4 3
15 16 19 22 25 25 25 26 25 26 24 18 5 5 7 5 5 5 2 3 6 5 3 2 5 3 4 3 4 4 2 2 2 2 4 5 3 3 3 2 2 4 3 3 6 2 3
14 15 17 20 21 23 23 24 24 26 21 14 4 6 4 5 3 5 2 3 2 3 3 0 3 1 1 5 5 3 6 3 3 2 1 3 5 1 1 1 4 3 3 2 3 3 4
13 14 15 16 19 20 22 22 23 24 20 6 5 3 2 4 3 2 1 4 3 3 2 0 3 2 3 3 3 5 8 2 4 4 3 3 4 3 3 5 6 1 2 3 2 4 4
11 11 12 13 17 17 21 20 22 21 19 4 1 2 2 0 3 2 2 5 0 1 2 3 1 2 1 4 2 3 6 3 11 8 6 4 4 4 4 1 2 4 4 6 4 4 3
9 9 9 12 14 15 18 20 20 20 18 6 1 2 1 1 1 2 6 1 2 3 2 2 3 3 2 2 4 1 2 5 13 7 7 6 1 3 2 3 2 5 8 4 2 2 7
7 6 7 11 12 13 16 18 17 18 16 2 1 1 1 0 2 2 4 5 2 2 1 3 1 4 2 3 5 4 3 2 4 3 3 5 3 5 6 4 4 6 10 13 10 4 5
5 2 5 9 11 12 14 16 17 17 13 2 2 0 0 1 1 4 2 6 3 3 2 4 4 5 3 2 2 3 2 3 3 4 4 4 4 3 4 4 5 6 7 17 18 16 8
5 2 3 7 9 11 14 17 16 16 10 8 1 1 1 3 4 3 6 6 7 5 5 3 3 6 3 3 3 4 4 3 3 1 3 2 1 2 3 2 4 4 8 11 18 20 19
7 4 2 4 6 9 13 16 17 18 16 7 5 3 2 7 4 2 3 2 4 7 4 9 3 3 3 4 10 7 7 3 4 7 3 3 4 3 3 4 3 7 12 12 7 7 16
9 5 3 2 5 8 11 13 16 17 16 13 9 4 2 1 3 2 5 4 4 2 2 8 10 2 4 10 3 2 7 6 6 4 5 4 4 2 2 3 2 6 4 6 12 14 12
11 7 3 1 4 7 9 11 13 13 12 12 14 5 3 2 2 4 8 4 5 5 5 3 5 11 9 4 3 3 4 3 1 4 4 3 4 2 3 2 7 5 1 4 5 6 10
13 8 4 3 3 6 7 9 11 11 10 8 12 11 4 4 2 4 3 5 2 4 5 5 5 8 7 3 2 2 3 4 2 0 2 3 4 4 1 2 4 4 2 2 3 4 2
14 10 6 4 5 9 8 9 11 12 12 9 9 11 4 3 2 4 3 2 4 3 1 2 11 9 11 2 1 1 3 3 3 4 3 3 1 4 4 3 7 7 6 4 2 5 9
16 11 7 6 5 6 8 8 9 10 11 11 10 11 9 2 4 4 3 4 4 1 0 5 2 4 4 1 0 1 2 2 1 3 5 6 5 3 3 3 7 3 2 4 5 7 9
18 12 10 6 4 2 4 5 7 8 9 12 8 8 6 2 2 2 5 7 10 4 2 3 4 2 4 2 2 2 2 2 0 2 2 2 5 4 7 5 5 5 10 9 10 11 8

GFSGBSN_850_spd_054.txt.gz
Wind_Speed
19 20 21 21 20 20 19 20 21 19 18 15 17 20 19 18 18 13 9 10 8 7 7 6 5 7 3 2 7 6 2 9 21 20 21 13 21 13 7 8 11 2 5 16 14 12 12
19 19 21 21 21 19 20 20 21 21 18 20 15 17 20 17 15 12 8 7 6 6 7 7 6 4 2 3 9 16 16 9 19 25 26 19 14 17 11 10 9 10 4 15 19 18 16
19 19 20 21 20 19 18 20 20 20 20 21 19 18 14 21 14 11 8 7 7 5 6 7 6 5 6 7 12 7 8 17 16 24 28 27 7 20 8 4 11 2 10 2 5 16 6
19 19 19 21 19 18 19 19 20 21 21 21 22 20 16 13 15 11 9 7 7 7 6 5 3 4 5 10 11 3 5 14 16 20 29 25 8 22 4 7 10 2 4 7 5 9 3
21 20 19 20 20 19 18 19 21 21 21 22 22 21 20 15 11 12 9 7 7 7 5 3 4 4 5 5 9 6 4 4 15 22 29 26 14 11 6 7 4 5 7 5 5 17 8
20 20 19 20 21 20 21 19 20 21 22 22 23 22 20 17 13 10 9 7 7 5 2 2 6 7 1 5 10 1 4 7 15 25 17 16 6 6 3 6 17 14 5 2 5 10 8
21 21 19 20 21 20 21 20 21 21 23 24 22 22 22 20 12 8 7 4 2 3 3 4 5 9 9 8 2 4 1 7 15 21 9 5 7 17 7 2 3 8 5 6 2 5 4
20 21 20 20 21 21 23 20 20 22 22 23 23 22 21 18 11 7 6 2 2 2 3 2 7 11 6 2 1 2 2 4 4 11 4 7 11 13 7 4 4 8 7 4 2 2 9
21 21 21 21 22 22 24 23 22 23 23 23 23 21 20 17 6 7 4 1 1 5 1 3 3 2 1 1 1 4 5 8 7 3 2 2 6 10 6 5 6 3 8 5 6 4 2
22 21 22 22 24 23 24 22 24 23 21 23 22 21 20 13 4 5 3 3 1 4 3 1 2 1 1 2 4 6 9 6 4 3 3 4 11 14 8 7 6 3 5 6 8 6 4
21 21 22 22 24 24 23 23 22 23 22 22 22 20 15 4 2 3 3 1 2 1 3 0 1 1 2 1 8 2 6 4 6 5 4 6 20 15 10 7 5 3 5 5 3 5 4
20 20 20 22 24 23 23 22 23 24 23 22 21 17 11 3 7 4 2 1 2 5 2 0 0 1 0 5 5 8 5 5 5 6 9 4 5 4 5 3 4 8 6 7 5 3 2
20 18 18 20 23 24 22 22 22 22 22 21 18 9 2 6 4 4 4 4 4 5 1 1 3 2 4 2 5 3 4 6 4 6 3 8 3 3 4 7 3 3 5 2 2 1 4
19 16 17 19 21 22 23 23 21 22 20 20 11 4 9 6 6 6 4 2 5 6 1 2 2 4 0 3 3 3 5 2 3 2 4 4 6 1 4 4 7 4 4 4 5 4 3
18 16 16 18 19 20 22 20 21 21 19 16 4 9 9 9 5 5 1 3 5 4 1 4 1 2 2 1 4 3 1 2 3 4 4 4 4 2 6 1 2 3 2 3 6 3 3
17 15 14 16 16 17 19 19 20 20 18 9 8 8 5 4 3 2 0 3 1 3 1 2 0 2 2 2 1 1 3 3 3 2 1 2 5 4 2 2 6 3 6 3 3 3 4
16 14 13 14 14 14 16 18 18 19 17 2 5 4 4 4 3 3 2 4 4 5 1 2 2 2 2 2 4 2 3 1 3 4 4 4 3 2 2 3 4 2 2 4 3 4 4
15 13 12 11 12 12 15 17 18 19 15 1 2 2 3 3 2 1 2 3 1 3 4 3 2 1 2 4 3 1 4 2 5 5 4 1 5 4 2 3 2 3 5 5 4 5 1
14 12 11 8 9 11 12 15 17 18 15 3 3 4 2 1 2 1 4 3 2 3 3 4 4 4 3 3 4 2 2 8 8 3 4 4 2 4 2 2 3 4 5 3 2 2 5
14 12 7 6 7 9 11 13 15 15 13 4 2 1 1 3 3 2 3 3 3 3 2 3 2 3 3 4 5 4 2 3 2 3 11 5 3 4 5 4 4 5 10 13 10 5 7
14 11 5 4 6 6 9 12 14 15 10 3 3 1 2 1 1 3 1 2 2 4 5 6 4 5 2 2 3 3 3 3 5 6 5 3 1 2 3 2 3 4 7 14 16 21 10
14 10 6 3 4 6 8 10 12 12 8 7 3 2 2 1 3 1 4 3 3 4 3 3 4 5 2 4 3 2 3 0 3 2 4 2 2 3 4 3 4 4 7 9 17 19 17
15 11 6 2 2 4 7 10 12 12 8 6 4 3 2 5 3 1 0 1 4 5 5 7 2 1 4 2 4 4 6 1 2 6 3 4 5 3 4 2 2 6 14 14 6 7 16
17 12 7 4 2 2 6 9 11 12 12 10 7 3 2 1 2 2 4 3 5 6 3 4 11 3 2 9 1 2 8 7 8 3 5 5 4 3 3 1 1 5 3 6 13 11 12
18 13 9 6 4 1 4 7 8 9 11 10 11 4 3 2 2 4 8 4 5 5 4 3 6 8 9 2 3 3 4 2 0 3 2 2 4 2 3 3 7 3 1 4 5 5 4
19 14 10 8 5 2 4 6 7 9 9 9 11 9 5 6 3 3 2 6 3 4 5 3 3 8 7 2 3 2 2 3 1 1 2 3 4 3 2 1 4 5 1 3 3 4 3
20 16 12 9 7 7 6 6 7 8 10 7 9 7 5 6 4 4 3 1 0 1 2 2 8 6 11 1 2 2 1 2 2 3 3 2 1 4 4 2 6 6 5 3 2 4 11
22 17 13 12 10 8 6 6 6 7 9 9 10 10 6 6 6 4 3 2 1 2 1 5 1 4 4 2 2 1 1 0 1 2 4 5 4 3 2 3 6 3 1 3 4 8 13
23 18 15 13 10 7 6 6 6 7 8 8 9 10 12 7 5 6 5 6 8 1 3 2 2 1 3 1 2 1 1 1 1 2 2 2 4 2 6 5 4 3 7 11 12 18 15

GFSGBSN_850_spd_057.txt.gz
Wind_Speed
18 19 20 20 19 20 17 17 19 19 18 19 19 15 14 18 20 15 11 8 9 7 7 7 5 5 4 1 6 6 4 6 16 21 16 14 21 13 4 6 11 5 5 15 21 11 14
18 19 19 20 19 19 19 17 19 20 19 18 18 19 15 12 18 14 11 9 8 7 7 7 7 4 2 3 4 11 16 10 5 19 17 16 14 12 7 8 9 13 6 12 17 13 12
18 19 19 19 20 20 20 20 18 18 19 20 21 19 20 15 11 17 12 10 10 7 8 8 6 6 6 7 15 11 14 15 7 22 20 18 15 15 7 6 7 9 7 4 5 12 6
18 21 19 20 19 21 20 19 18 19 20 20 20 20 19 16 15 9 14 11 10 8 8 7 5 7 6 5 12 2 6 13 10 21 21 21 12 17 4 9 6 5 5 5 7 9 5
23 20 20 20 20 21 20 19 18 20 20 21 22 20 19 20 16 10 9 12 8 7 7 6 5 6 7 8 9 1 3 11 12 18 17 19 13 11 6 8 4 2 6 6 3 14 5
28 21 21 20 21 21 21 18 20 19 20 21 23 20 18 20 17 9 8 8 7 7 6 5 6 6 4 7 9 3 3 12 10 20 15 12 8 7 3 8 14 10 7 4 5 9 8
28 22 21 20 21 21 22 22 20 21 21 21 21 20 18 18 15 7 5 3 3 3 6 6 3 6 9 9 2 0 2 8 12 19 5 8 1 13 13 3 5 9 9 8 3 8 7
23 24 23 23 21 21 22 22 20 21 21 20 19 20 18 17 15 5 3 2 2 2 4 5 7 8 5 3 1 0 3 4 9 11 9 3 7 8 6 5 8 11 8 3 2 6 5
25 24 25 25 22 21 22 23 22 20 20 19 19 19 17 16 9 2 3 2 2 5 1 3 4 3 2 2 1 4 3 3 13 10 6 3 8 6 4 5 9 3 11 5 5 5 1
29 22 26 25 23 22 23 24 21 19 21 19 19 18 16 13 1 3 2 1 1 4 4 1 2 1 2 1 4 4 7 2 6 7 3 3 14 11 6 4 5 3 7 7 9 4 3
24 23 25 24 22 22 23 23 20 20 19 20 19 18 14 5 3 4 3 2 3 1 4 0 1 1 2 2 4 2 3 4 7 8 3 1 13 14 5 5 4 3 6 5 4 5 3
20 24 23 23 21 22 23 23 20 19 19 19 18 13 6 2 5 5 4 1 1 5 2 1 1 2 2 2 1 4 2 8 8 4 5 2 7 3 5 3 3 8 6 7 4 3 2
20 21 21 21 21 21 21 21 19 18 18 18 13 5 8 9 9 7 6 3 4 4 3 2 1 4 4 2 4 2 3 2 4 6 3 4 4 3 2 7 4 4 6 3 2 2 4
20 21 19 19 19 19 18 18 18 18 17 15 6 9 12 10 7 7 5 2 6 3 2 3 3 4 2 3 3 3 3 4 1 3 4 3 6 2 1 4 6 3 4 4 5 4 3
20 21 19 18 17 17 15 16 17 17 15 8 9 11 11 8 6 5 1 4 4 3 1 3 1 3 2 4 3 1 1 3 3 3 2 4 3 2 5 2 2 3 2 4 6 2 1
18 20 18 16 16 14 13 14 16 15 13 4 9 9 6 5 4 3 1 1 2 3 3 3 1 1 1 2 1 3 1 1 5 3 6 2 6 5 1 2 8 3 5 2 2 3 4
20 19 16 14 14 12 12 13 14 14 9 6 7 4 4 4 2 0 1 3 3 5 3 1 1 2 1 1 3 2 3 1 1 3 4 2 3 2 3 1 5 3 1 4 3 3 3
20 19 14 13 13 11 10 11 12 12 7 7 5 2 2 3 1 2 1 2 2 2 1 0 1 1 4 4 2 2 2 2 3 3 3 1 4 4 2 1 0 2 3 4 4 4 0
22 19 13 12 11 8 8 10 11 10 5 6 5 4 4 3 1 1 3 3 1 3 2 2 2 1 0 3 4 2 1 5 7 2 4 4 2 4 2 4 3 3 4 4 4 3 5
23 18 13 11 8 6 6 9 9 8 3 6 5 2 3 3 1 1 2 4 4 4 3 3 2 2 2 3 5 3 3 4 3 4 8 5 3 4 5 4 4 5 7 11 7 6 10
23 17 12 10 6 5 5 8 8 6 1 5 3 1 4 2 1 1 1 3 3 5 8 11 4 4 2 3 2 3 3 2 4 2 4 3 3 3 2 4 4 4 6 11 14 18 12
22 17 12 12 6 4 4 6 6 5 1 4 4 5 5 2 1 1 3 3 3 3 3 3 4 4 4 5 3 1 3 1 2 4 2 3 2 2 2 2 3 4 7 9 15 17 19
21 17 14 12 6 5 4 4 4 4 1 4 6 9 5 3 1 2 1 2 1 6 1 4 1 1 6 2 5 6 5 0 4 6 3 3 4 2 2 4 4 6 6 9 4 5 13
23 18 16 12 7 5 4 3 4 5 4 3 8 9 4 1 2 3 1 1 1 2 3 4 5 2 1 6 3 1 8 8 7 5 4 5 3 2 1 3 2 4 1 1 9 7 8
24 20 18 13 9 6 4 1 4 6 8 5 8 5 5 3 4 3 4 2 2 2 4 3 6 9 7 0 3 3 4 2 4 4 4 3 4 3 3 2 6 2 1 3 3 4 3
26 22 19 14 11 7 5 4 5 6 6 7 9 8 6 11 2 3 3 5 2 3 3 3 5 6 7 2 2 3 3 3 2 2 3 4 4 3 2 2 4 4 2 3 2 3 3
27 24 19 15 12 10 7 7 6 6 6 7 7 7 7 10 5 5 4 2 3 1 0 3 8 5 9 2 1 2 1 2 3 5 4 2 2 4 3 2 5 5 4 5 1 3 9
27 26 20 17 14 12 10 10 8 6 7 7 8 9 9 9 11 10 10 5 4 4 2 5 1 5 3 2 2 1 1 1 2 1 3 5 5 3 2 2 4 3 2 3 6 16 20
31 27 22 19 16 13 12 11 9 7 8 7 13 16 17 12 15 14 12 9 9 4 1 3 3 1 1 1 2 1 1 1 2 1 3 1 3 3 6 5 2 5 6 5 13 21 24

GFSGBSN_850_spd_060.txt.gz
Wind_Speed
16 18 19 20 21 20 20 19 17 16 17 18 17 18 19 13 9 16 11 8 6 8 7 8 8 6 4 5 7 7 7 3 4 20 23 12 20 22 19 22 23 13 20 15 21 13 16
18 19 18 20 21 22 21 20 18 16 16 18 19 20 18 18 11 9 13 8 9 8 7 8 9 6 4 7 7 8 12 8 4 18 30 12 17 17 22 20 22 23 11 15 16 10 8
21 24 20 18 21 22 22 21 18 18 17 18 19 21 19 18 15 11 6 11 10 8 9 8 9 7 7 10 7 13 15 12 8 13 26 13 16 10 16 14 18 12 19 14 13 21 6
24 25 25 19 20 22 22 22 19 18 20 19 21 21 18 18 18 13 9 7 10 8 9 8 7 6 7 7 9 8 6 8 12 13 26 10 8 8 15 9 14 14 15 11 15 25 15
26 25 25 23 21 21 22 23 20 19 19 19 19 21 19 16 19 14 6 7 9 6 6 7 6 4 6 7 6 5 6 4 13 12 28 5 5 8 9 16 11 14 15 22 13 21 11
31 29 24 21 22 22 22 24 21 20 20 20 19 20 19 17 18 13 4 6 6 5 6 5 6 6 3 6 10 2 1 8 11 14 16 5 3 9 11 14 16 18 15 20 14 13 14
36 28 27 21 23 23 22 24 22 20 19 21 18 18 17 17 17 11 2 2 1 0 4 4 2 6 7 7 2 1 2 7 8 19 6 7 3 10 21 17 3 15 11 16 13 11 15
31 32 27 23 23 23 23 25 22 20 19 20 17 17 17 17 15 6 2 2 2 1 1 2 6 9 8 2 1 3 4 4 8 10 13 5 2 5 11 10 7 17 17 14 6 11 13
28 31 25 23 22 23 23 25 24 19 18 20 18 18 17 15 12 3 4 3 2 2 1 2 4 4 4 3 2 1 4 3 3 7 10 9 1 12 16 13 14 16 18 14 11 10 3
27 27 23 23 22 24 23 25 23 19 18 18 18 17 15 13 0 3 3 3 2 1 1 2 1 1 3 1 4 5 5 3 4 10 10 2 5 14 21 13 14 13 9 12 15 11 5
28 25 22 22 22 23 22 23 22 20 17 18 18 16 13 5 4 4 5 3 1 1 1 1 1 1 2 3 2 3 5 2 8 10 5 4 14 13 20 13 7 4 12 11 9 7 3
27 23 23 21 20 21 21 21 20 18 17 18 16 9 2 5 8 5 3 2 1 2 4 1 0 1 2 3 2 5 4 7 12 7 5 5 17 4 6 6 1 14 14 11 6 4 5
29 24 23 21 20 19 18 18 17 16 16 16 7 7 11 11 7 6 5 2 1 3 1 1 1 3 3 4 4 2 4 6 4 5 1 6 9 5 2 9 10 9 16 5 5 4 4
27 25 22 21 19 17 16 15 14 13 14 9 5 12 11 9 7 5 2 2 4 1 3 0 2 3 2 2 3 4 5 4 1 2 3 3 5 9 4 10 8 14 10 3 6 5 4
27 26 22 20 19 16 14 13 11 11 10 2 11 10 8 6 5 3 2 1 2 1 2 2 2 3 2 4 3 3 2 4 3 1 3 3 3 1 2 2 5 6 5 3 4 2 2
28 29 22 19 17 15 12 10 8 8 6 7 10 8 5 3 3 1 1 2 1 2 1 2 3 3 2 3 2 2 2 1 5 2 2 4 6 4 4 3 9 4 9 3 1 4 4
28 32 23 18 16 14 10 8 5 5 3 10 10 3 4 1 1 1 1 1 2 3 2 1 4 2 1 2 4 3 2 2 3 2 2 1 2 2 7 3 8 4 4 1 1 2 2
30 30 22 17 16 13 9 6 3 3 1 11 6 2 6 1 1 1 0 1 2 3 1 1 3 4 1 2 4 2 3 2 6 8 3 3 4 3 4 1 2 3 7 12 6 5 2
33 31 22 17 16 12 8 5 2 1 4 12 7 4 5 3 1 1 1 1 2 2 2 1 2 2 1 1 3 3 3 3 4 4 5 5 3 5 3 0 1 5 7 7 4 2 7
38 31 23 17 15 11 8 5 2 2 6 13 6 3 3 3 2 2 2 2 3 2 3 3 2 1 1 1 2 4 4 4 3 2 4 1 2 2 6 2 4 8 13 12 10 5 12
38 33 22 18 15 10 9 5 3 3 7 12 6 3 5 4 5 3 2 1 2 2 4 6 3 3 1 1 2 4 4 3 3 3 2 1 3 1 4 4 2 2 10 15 15 19 13
39 32 20 20 15 12 8 6 4 4 9 11 7 6 5 3 3 4 1 2 2 2 4 3 4 5 1 3 4 2 4 3 3 1 2 2 3 1 2 2 2 4 9 10 15 19 19
40 31 23 20 15 13 10 6 4 5 10 7 8 10 7 2 3 4 3 2 2 2 4 7 2 2 7 4 2 5 4 3 2 5 3 2 4 2 2 2 3 6 9 11 7 8 10
39 29 24 20 17 14 10 6 6 5 8 9 13 15 5 3 3 3 4 3 3 3 1 4 6 1 1 5 3 3 8 6 4 5 1 5 4 1 2 4 4 3 2 2 7 7 9
36 29 25 22 18 15 11 8 7 7 8 8 14 8 5 5 7 6 6 4 7 3 2 3 5 6 7 1 3 3 2 4 4 4 2 2 2 2 2 2 5 3 2 1 1 5 3
36 31 28 23 19 15 11 9 10 10 9 9 12 10 7 12 2 4 4 1 3 3 3 1 2 4 3 1 2 4 3 2 3 3 3 2 3 1 2 1 2 2 1 1 2 5 13
39 32 29 24 20 16 13 11 12 11 10 9 12 13 9 10 3 4 2 3 3 3 3 1 5 4 7 1 2 1 2 1 4 3 3 2 2 4 4 3 3 3 4 3 4 3 15
37 33 30 25 21 17 15 13 14 13 10 8 15 14 10 9 8 8 6 4 4 2 2 1 2 2 3 2 1 1 1 2 1 1 1 3 2 2 2 4 3 11 2 4 4 9 13
36 36 31 26 22 20 18 16 16 13 12 13 21 17 26 12 14 15 12 10 8 4 5 4 2 2 2 1 1 1 2 3 3 3 2 2 2 2 3 2 5 9 2 5 9 15 16

GFSGBSN_850_spd_063.txt.gz
Wind_Speed
20 20 22 22 22 19 20 22 20 20 18 18 19 20 23 21 22 13 12 13 11 11 10 9 9 9 7 7 10 8 8 5 5 13 20 23 14 21 24 26 25 20 14 25 24 21 19
26 25 25 25 22 21 21 20 22 19 20 21 19 22 21 22 19 18 12 11 13 12 12 9 10 8 6 12 5 5 10 11 6 10 10 20 13 21 21 25 23 23 13 20 25 17 16
25 23 27 23 24 22 20 21 22 19 20 23 20 21 22 23 20 20 17 11 12 12 12 10 10 6 9 14 7 9 11 9 8 10 17 25 15 15 12 20 31 15 16 16 16 11 17
35 28 30 28 24 22 20 22 23 22 19 22 20 20 23 24 19 20 17 12 9 13 10 10 9 6 10 8 8 11 9 7 11 8 9 12 14 16 14 19 23 23 21 4 16 22 10
30 28 33 30 26 23 20 21 23 25 22 21 21 21 21 20 19 18 18 10 9 11 9 7 5 6 10 6 6 11 6 6 10 6 6 8 7 12 23 17 16 19 16 15 8 14 9
33 35 35 38 27 21 22 22 23 26 25 20 21 19 19 19 19 19 15 6 6 5 5 4 6 7 6 8 13 5 4 7 12 10 11 6 3 8 16 17 18 23 21 20 13 15 14
38 33 31 34 31 23 24 23 23 26 27 19 19 19 17 18 19 18 3 3 2 3 7 6 6 10 5 10 6 3 3 5 8 15 4 5 1 10 25 24 16 18 19 16 19 13 18
36 33 29 31 32 24 23 23 23 27 25 18 19 18 16 18 16 14 4 4 4 2 3 6 7 7 7 5 4 2 2 5 4 3 9 5 1 4 7 18 6 16 16 10 10 10 11
31 26 27 30 28 23 23 22 23 25 23 18 17 17 17 14 16 5 5 6 4 1 4 2 5 5 5 5 2 1 3 2 1 4 11 7 3 3 6 12 10 14 16 15 12 7 12
34 32 27 30 21 21 22 22 23 23 22 18 16 16 13 10 5 2 3 5 3 0 3 3 1 1 3 3 3 2 6 2 4 9 15 6 1 2 4 14 12 13 13 9 9 12 9
34 35 29 28 19 20 22 21 21 20 19 18 16 16 12 6 3 1 4 3 2 1 2 1 0 4 3 4 4 4 1 5 3 7 4 4 8 6 8 16 12 12 9 12 12 16 2
37 38 31 29 20 20 20 20 19 17 16 15 12 8 2 5 4 3 3 2 1 3 1 2 2 2 3 2 4 3 1 2 9 6 11 5 5 0 7 9 4 13 13 10 6 7 5
35 34 33 26 21 19 19 18 16 13 14 11 5 5 9 9 2 4 4 2 3 2 2 3 2 2 6 3 4 4 5 7 3 4 5 4 6 8 11 11 11 16 17 6 5 4 6
32 38 32 26 21 18 17 16 13 10 11 3 7 8 9 9 5 4 1 3 2 1 1 3 5 3 2 3 3 4 5 3 1 6 2 2 5 7 5 8 8 15 14 4 6 6 8
34 38 34 29 23 18 15 13 11 8 6 4 10 5 3 5 4 3 4 4 2 1 3 1 4 3 2 1 2 2 2 5 4 2 0 2 3 2 3 3 6 10 6 3 2 3 0
35 36 37 29 28 19 14 12 10 7 3 10 7 3 3 4 1 2 4 0 1 0 2 3 4 4 3 4 4 4 5 1 4 1 3 4 4 4 4 4 2 4 8 3 1 3 4
36 38 38 38 30 19 14 12 9 7 4 13 6 3 5 3 1 3 2 1 1 2 1 3 3 2 2 3 5 3 3 2 3 4 1 6 4 2 8 7 10 4 4 3 2 3 3
39 39 38 41 27 18 14 12 11 8 8 17 5 2 6 2 2 3 1 2 1 1 2 0 1 5 3 1 4 2 3 3 5 4 6 2 4 4 2 2 7 10 11 13 5 4 3
37 40 38 39 28 19 15 13 12 10 12 16 5 3 5 4 2 3 2 2 2 0 2 1 1 1 2 2 3 4 5 2 4 3 3 3 4 5 4 3 3 7 10 7 10 3 5
39 40 36 38 28 19 17 14 14 12 14 18 7 3 3 4 5 4 4 3 4 2 2 1 1 2 2 3 1 7 6 4 4 3 2 3 4 3 3 2 6 10 14 14 12 5 10
40 37 39 33 27 19 17 15 15 13 16 19 6 3 6 4 7 7 4 3 6 3 0 2 3 1 0 4 4 5 5 8 5 2 3 3 2 2 4 5 3 3 11 15 13 17 13
40 38 40 36 26 20 18 17 16 14 19 18 6 5 5 6 5 8 5 6 6 3 3 3 3 4 1 5 5 3 6 3 4 5 2 1 2 2 1 2 2 5 6 8 14 16 16
41 40 41 37 25 20 19 18 16 15 21 8 14 11 7 7 8 8 6 6 5 2 4 5 2 5 8 7 5 4 3 3 2 3 5 2 4 2 2 1 3 6 8 10 8 8 7
45 30 41 34 25 20 19 18 15 15 20 14 16 12 7 6 8 7 6 4 5 3 3 3 3 1 3 1 2 2 5 5 4 3 1 4 4 1 0 2 3 4 1 1 3 4 5
41 31 37 33 26 20 19 16 15 14 18 18 15 10 5 6 8 5 9 5 9 3 3 3 6 3 2 2 3 5 4 4 4 3 2 3 2 1 2 4 3 3 3 1 2 6 8
51 41 39 30 27 22 18 18 15 14 15 16 20 15 5 11 5 9 9 8 5 5 4 3 1 3 1 2 2 4 4 2 4 3 1 2 2 3 2 2 3 7 4 1 3 6 8
52 43 36 30 28 23 20 18 17 16 16 16 20 17 7 8 5 5 4 6 2 1 2 3 2 1 3 4 5 4 3 2 4 5 5 5 4 7 6 4 1 5 3 2 5 3 7
52 44 32 30 30 25 21 20 20 18 17 18 20 17 11 8 8 5 4 4 3 1 4 4 3 2 2 4 1 1 2 2 3 4 1 4 3 3 3 3 6 6 3 4 3 3 10
55 43 35 34 30 26 23 21 21 19 16 17 20 17 20 12 10 11 11 7 5 3 2 1 3 4 3 1 1 1 1 1 2 2 1 2 4 3 3 2 5 4 4 3 4 11 14

GFSGBSN_850_spd_066.txt.gz
Wind_Speed
27 29 22 23 23 24 23 22 22 21 21 20 21 18 21 22 22 22 20 15 14 13 14 14 12 11 10 7 12 4 9 9 4 6 13 12 13 9 15 16 21 17 15 22 20 9 15
27 32 33 26 25 25 26 22 21 21 20 20 23 22 21 22 22 23 19 20 13 13 14 15 14 11 9 15 4 4 6 9 6 6 8 8 11 9 18 19 20 18 20 20 19 27 29
28 29 30 33 32 28 26 22 22 21 22 20 23 22 20 22 23 23 19 20 13 9 14 14 14 10 13 18 8 10 11 9 7 7 11 13 20 19 5 16 30 14 17 4 5 8 11
29 30 30 31 35 33 27 22 23 22 24 21 22 22 20 21 19 21 19 20 11 11 12 12 11 8 12 13 14 10 9 9 8 7 7 7 15 17 9 17 20 22 14 8 5 2 11
29 29 31 31 33 35 32 23 22 22 25 23 22 21 21 20 19 19 19 21 8 10 13 8 5 5 12 8 7 8 10 7 6 5 7 8 7 5 9 7 15 17 7 16 3 1 3
31 31 32 33 31 32 33 24 23 23 25 25 21 19 21 15 17 18 19 6 5 7 5 5 9 7 7 9 10 8 6 5 9 8 5 5 4 2 4 9 15 19 10 7 11 5 14
30 32 30 30 32 28 27 23 22 23 25 25 21 18 18 16 16 17 11 4 4 2 9 8 4 11 13 10 7 3 3 6 8 4 2 4 4 8 14 13 8 12 15 10 8 12 10
34 31 32 31 31 27 30 23 22 22 24 24 21 17 16 15 13 12 7 2 5 3 8 11 9 10 9 4 5 1 1 5 4 4 7 5 4 0 14 20 16 17 18 17 16 12 9
36 35 32 32 27 27 30 21 19 21 23 23 21 16 15 11 11 8 6 3 9 3 5 5 5 6 4 2 2 3 1 3 1 4 9 1 1 4 11 18 12 13 13 7 11 12 12
32 37 33 33 30 25 25 19 18 20 21 21 20 17 12 7 3 3 3 5 4 1 2 4 2 0 2 2 1 1 4 2 3 4 12 6 4 6 13 12 14 8 9 19 15 6 4
36 31 35 33 33 28 24 18 17 18 18 19 17 14 8 5 3 1 4 3 1 1 2 2 1 2 4 2 1 0 5 6 6 7 5 5 2 7 6 5 2 5 7 8 9 5 3
38 33 32 34 33 26 28 18 16 16 16 15 13 7 3 6 5 1 3 2 3 2 1 2 1 2 2 1 3 6 4 3 4 11 15 10 6 6 7 6 8 8 11 10 6 1 2
37 33 28 34 33 33 29 16 13 14 12 11 2 4 8 7 5 2 4 1 2 2 3 3 2 3 4 4 2 4 4 6 3 3 4 4 3 5 4 3 3 10 8 3 3 3 2
41 40 29 31 32 32 30 17 12 12 9 6 6 8 8 6 7 5 1 2 2 2 1 7 5 1 3 5 2 4 3 4 5 8 4 2 2 1 3 1 5 9 5 4 4 4 3
37 43 32 28 28 33 29 18 12 10 6 5 10 7 4 4 4 4 1 2 2 1 3 1 8 1 2 2 2 5 2 3 3 2 2 2 4 4 4 4 2 7 1 3 3 2 4
39 40 31 28 30 33 31 20 12 10 7 11 11 6 4 3 4 4 2 3 1 0 3 4 3 3 2 4 1 2 3 3 4 1 3 3 4 6 3 3 3 4 2 2 3 2 3
34 39 41 27 34 35 31 19 12 12 10 18 14 5 5 4 5 3 2 2 4 2 2 4 2 2 3 3 2 3 3 2 1 3 6 7 3 3 2 1 4 3 1 2 1 3 1
34 36 39 25 34 36 30 20 15 15 16 21 10 3 6 6 2 4 2 5 2 2 2 1 1 4 3 8 2 3 3 3 2 2 2 4 4 3 0 4 5 6 4 3 3 3 0
42 34 31 30 33 31 29 22 19 18 19 24 10 5 5 7 2 4 3 5 3 4 0 2 2 3 2 4 4 4 6 3 4 1 2 0 3 3 1 2 2 4 5 4 2 3 2
44 44 34 40 28 27 30 22 21 20 23 20 9 4 4 6 6 5 5 6 6 2 2 1 2 3 4 5 3 7 5 4 2 1 1 3 3 3 1 0 5 5 8 7 4 3 4
45 47 17 31 26 30 29 22 22 23 26 18 9 5 8 4 6 8 2 5 7 4 1 2 3 3 2 4 9 4 6 6 4 3 2 1 1 2 4 5 5 2 6 9 7 8 4
51 41 29 29 23 24 28 23 26 25 30 18 7 4 8 3 10 9 5 6 7 5 4 3 2 3 3 6 4 7 6 4 4 6 3 3 1 3 2 2 3 0 4 5 6 7 10
49 31 23 31 23 29 28 27 27 27 32 12 11 12 7 8 4 7 7 4 6 3 3 7 5 8 7 5 9 7 5 3 3 4 4 2 4 2 2 2 4 5 6 8 4 2 1
44 31 23 37 23 32 27 29 27 26 32 15 19 13 4 4 5 6 5 5 4 2 4 2 5 3 2 2 2 1 2 4 5 5 3 2 2 2 1 2 1 3 4 5 2 4 4
44 26 22 46 25 32 31 27 25 25 32 20 19 13 4 4 7 7 8 8 7 1 3 4 5 3 4 3 2 4 2 3 4 4 1 3 3 1 2 3 3 3 2 3 2 4 7
33 23 41 41 31 31 27 24 23 24 29 24 17 16 5 8 3 8 9 15 5 4 3 3 1 3 1 2 2 2 3 4 4 3 2 1 2 2 2 1 2 5 4 3 2 4 5
35 14 39 38 35 31 25 21 22 22 25 24 21 17 10 8 3 4 4 2 3 4 3 4 2 1 2 2 2 2 2 2 4 6 5 2 2 4 4 2 2 4 3 1 3 2 4
29 7 21 31 32 28 23 20 20 21 24 22 23 18 14 9 9 6 7 7 3 3 1 3 4 1 1 2 1 2 2 0 1 0 2 5 4 3 1 1 4 8 1 3 3 5 8
21 20 30 32 32 27 21 17 20 22 22 20 26 20 15 11 10 12 12 9 8 6 4 3 3 7 3 1 1 1 1 1 1 2 2 2 2 1 2 3 6 5 6 6 6 8 11

GFSGBSN_850_spd_069.txt.gz
Wind_Speed
27 28 27 29 27 27 27 26 23 22 23 23 17 20 20 20 20 20 21 19 19 10 12 13 14 13 12 4 13 7 6 6 5 9 10 15 15 10 15 11 9 15 5 20 21 10 7
29 29 29 28 29 29 29 30 26 22 23 24 18 19 20 22 20 20 21 18 17 11 9 10 13 12 9 9 1 6 10 12 7 8 7 12 9 7 7 5 16 11 23 10 15 19 7
31 31 30 30 30 30 31 31 31 23 23 24 20 19 20 18 18 19 19 18 16 10 11 10 9 10 10 20 6 12 13 12 10 7 8 10 7 11 8 3 17 15 8 8 9 14 5
31 32 32 29 30 29 32 31 30 25 23 23 22 18 19 19 18 18 17 17 17 10 8 9 7 5 9 7 14 16 12 8 9 10 6 6 2 4 6 9 3 9 5 10 3 12 9
26 31 32 32 29 31 35 33 30 27 23 23 22 18 17 17 15 15 17 19 11 4 7 7 2 5 9 8 10 7 12 14 4 6 6 4 5 6 3 4 2 5 7 15 5 1 6
32 28 31 32 32 30 35 36 22 27 22 23 22 19 15 16 14 16 17 5 1 3 2 3 2 7 8 7 9 14 4 6 5 9 6 3 3 2 5 5 11 11 8 12 5 6 5
35 33 29 30 33 33 31 35 36 25 22 21 21 19 18 13 14 14 9 2 2 1 7 7 3 9 13 13 14 5 4 5 6 5 3 2 2 6 9 9 7 10 16 8 7 9 5
36 35 34 29 30 32 33 34 37 24 21 19 19 19 18 13 13 7 8 4 2 3 6 7 10 13 12 9 3 3 4 5 5 3 8 4 6 6 8 13 10 11 11 8 5 11 4
42 38 34 37 25 29 32 35 30 22 19 18 18 18 17 9 5 3 4 6 1 3 2 1 7 6 6 3 1 2 1 4 2 4 7 3 3 6 8 10 9 10 13 9 5 8 2
36 45 43 37 36 26 30 31 29 22 16 17 16 16 16 3 3 4 1 1 2 3 3 2 2 2 4 2 0 1 2 1 1 6 4 3 2 7 10 9 7 3 11 17 14 7 3
38 37 47 42 39 27 28 31 28 18 13 16 14 14 10 5 7 5 3 2 3 3 2 1 1 4 1 1 1 4 1 3 4 6 5 2 3 8 15 7 9 4 18 19 19 10 3
39 39 42 44 42 32 26 30 26 16 11 13 12 7 2 9 9 4 3 4 6 3 3 1 2 3 3 2 2 7 4 5 9 8 8 4 3 4 3 6 11 8 16 8 5 5 2
40 42 44 40 39 39 27 37 28 17 12 10 5 5 8 9 6 7 10 6 2 2 3 4 2 2 2 1 2 4 3 2 3 4 5 5 4 1 5 1 7 17 7 3 3 3 3
41 41 38 40 34 38 36 40 28 20 13 7 8 9 10 7 10 10 7 1 4 5 4 4 3 1 3 5 3 2 2 5 6 4 3 4 4 8 8 5 3 3 4 4 5 4 3
42 38 43 43 38 31 24 35 32 20 10 9 14 13 9 9 10 10 4 1 5 4 2 4 6 2 2 3 0 4 2 2 2 4 4 3 4 6 2 4 2 3 4 3 5 2 4
43 44 47 49 33 27 21 40 34 21 15 14 17 11 7 10 9 8 1 1 2 1 1 4 1 2 3 4 2 2 2 4 3 3 0 3 5 6 4 3 8 5 1 3 3 3 3
46 44 39 51 41 33 31 41 30 20 12 21 19 8 10 10 11 3 2 3 2 4 2 2 3 3 3 2 2 3 2 2 2 2 4 2 3 3 2 6 3 4 3 2 3 3 3
47 48 43 50 44 25 34 43 35 27 16 28 16 3 11 15 4 4 2 5 4 5 2 1 1 5 6 8 3 2 3 2 2 2 2 2 4 3 0 4 3 1 1 3 2 3 2
47 49 47 51 26 31 33 47 35 26 19 34 16 6 12 14 3 3 4 3 3 3 3 2 3 1 3 5 4 4 4 1 3 4 1 1 2 3 5 5 3 0 4 4 3 2 2
49 49 51 50 29 30 37 47 35 31 28 26 11 4 6 11 7 3 5 5 4 0 1 2 1 2 0 1 3 3 4 1 2 4 2 3 2 4 5 5 4 5 6 5 5 3 2
48 48 56 46 21 26 50 42 33 34 38 23 10 5 8 5 6 5 2 8 7 4 2 2 1 2 1 3 4 4 4 3 2 1 2 3 3 3 4 5 2 1 4 7 6 5 5
46 47 50 39 23 24 50 39 35 33 42 23 10 5 10 6 9 8 5 6 9 3 2 2 3 6 7 5 2 6 7 3 3 2 0 2 1 3 3 2 4 2 4 3 5 4 5
43 47 48 40 26 35 44 40 33 43 44 18 10 10 7 7 5 5 4 4 7 7 3 6 4 5 6 2 4 7 6 7 6 7 4 3 4 2 2 1 0 4 6 5 2 2 3
41 46 46 37 20 38 38 34 35 41 40 17 18 15 4 2 4 5 6 5 10 4 4 5 10 5 2 6 6 7 7 8 7 4 5 5 4 2 2 3 1 4 1 1 6 5 4
40 48 47 23 14 40 37 33 36 33 39 19 20 11 4 3 4 7 8 7 11 9 6 6 4 5 7 3 3 4 2 3 4 5 2 2 3 1 3 3 2 2 2 2 3 1 4
40 45 40 15 27 35 30 31 30 27 37 27 17 12 4 10 2 0 6 11 4 3 2 3 4 6 3 1 1 4 4 4 3 0 3 2 2 3 1 2 4 3 0 3 4 1 5
36 41 31 16 22 28 28 27 26 25 34 27 17 9 7 10 7 4 4 6 6 6 4 4 3 2 1 2 1 2 2 3 4 6 3 1 1 3 1 1 2 3 5 3 3 2 8
34 35 17 4 25 23 25 22 22 23 29 25 16 11 10 9 13 7 7 5 6 5 4 5 4 2 2 1 2 1 2 2 2 4 6 5 4 3 2 1 3 8 3 1 4 9 8
33 23 6 14 24 25 24 21 17 19 23 23 19 12 9 12 12 13 14 10 9 8 11 4 3 2 3 3 1 2 1 2 3 3 1 2 4 4 4 4 7 7 19 12 9 7 6

GFSGBSN_850_spd_072.txt.gz
Wind_Speed
25 28 29 31 31 29 28 30 34 33 26 22 21 19 18 19 21 18 18 19 15 15 11 9 11 12 12 5 14 9 6 8 9 7 9 10 17 17 5 9 16 16 7 20 15 6 3
27 24 27 29 31 32 30 28 31 37 31 24 23 22 17 19 21 19 18 16 17 13 11 8 8 9 9 7 2 5 5 10 12 10 12 7 8 19 13 10 20 10 21 13 12 14 5
34 32 26 26 28 30 32 31 30 34 35 27 22 23 19 18 21 17 15 16 15 13 10 11 8 8 11 18 7 7 11 12 11 10 13 10 13 9 10 4 9 18 10 9 8 13 7
37 36 33 29 25 28 31 32 33 34 32 29 22 21 19 19 18 18 14 15 15 15 7 9 4 6 8 5 6 10 11 14 9 11 11 8 6 11 8 8 4 11 3 10 7 15 5
34 37 34 33 30 28 29 30 33 34 37 27 23 21 21 18 16 14 15 17 14 4 4 5 4 6 9 4 9 6 10 14 15 10 8 7 4 9 8 4 5 6 6 12 5 9 7
35 33 36 34 33 35 29 29 29 34 35 28 21 21 21 17 14 14 16 8 1 2 4 6 5 5 7 5 5 13 7 5 5 8 6 3 1 2 2 5 6 11 5 14 2 6 3
38 35 30 37 37 35 35 28 27 33 30 29 20 20 17 16 12 14 5 3 3 3 7 6 5 5 11 11 14 3 2 3 5 7 4 2 1 2 7 5 4 4 4 9 5 4 5
37 37 36 32 35 41 37 33 26 31 29 28 19 16 15 14 11 7 7 5 4 1 4 8 13 15 13 10 5 3 4 5 5 4 5 1 5 8 7 7 2 3 8 2 9 8 4
37 41 35 34 33 37 43 35 32 31 28 26 20 15 15 10 4 4 5 9 4 2 1 2 3 7 5 3 3 3 3 3 4 6 8 4 2 9 14 12 6 5 13 9 6 10 4
40 39 37 35 35 38 42 39 34 25 29 25 17 13 12 4 4 6 5 5 3 3 4 2 3 1 3 3 3 3 2 4 4 6 4 5 3 11 14 8 10 6 13 16 10 1 3
37 38 38 39 40 37 40 39 31 26 32 27 14 10 9 9 8 9 4 2 4 3 4 3 3 1 2 3 2 0 3 2 3 3 3 2 1 13 14 8 15 4 16 15 13 5 0
37 38 37 37 39 36 35 29 30 24 33 24 10 7 7 13 13 8 6 7 7 5 3 1 2 1 3 5 3 7 7 4 6 7 3 3 2 3 2 4 2 4 10 14 5 3 2
38 38 38 41 40 36 32 25 29 26 34 23 10 6 10 12 8 11 11 8 4 4 3 4 1 2 3 1 4 4 2 3 1 2 2 3 2 3 2 2 2 7 10 3 3 2 4
38 39 41 41 42 35 45 41 24 22 36 21 12 16 14 11 14 16 11 2 4 5 4 3 3 4 1 5 3 3 2 4 2 2 2 3 6 3 2 1 7 4 3 4 4 4 4
39 40 41 40 42 38 42 40 27 17 41 20 23 21 15 15 15 13 5 2 7 6 6 6 2 3 4 3 1 3 3 2 3 3 3 3 6 5 2 1 3 2 3 1 6 2 4
39 41 42 40 42 43 44 31 20 22 37 29 28 22 17 18 16 12 2 4 3 3 5 5 3 5 4 2 2 4 1 4 4 3 2 0 4 3 5 4 7 8 2 3 4 3 3
41 42 41 40 43 41 43 26 16 25 31 32 27 12 15 19 15 5 3 5 4 5 4 3 3 3 2 2 1 0 3 3 4 4 4 2 4 5 4 5 2 4 2 5 4 3 4
40 41 40 40 46 44 40 29 21 31 30 34 17 3 22 20 4 4 3 4 5 5 3 1 3 4 6 6 4 2 3 1 5 1 3 3 4 4 1 5 3 1 1 3 4 3 2
40 39 40 42 44 49 38 30 23 37 42 30 11 9 17 20 3 3 4 3 3 4 4 3 3 3 5 7 3 2 2 3 7 4 2 1 1 3 5 4 3 1 1 3 4 3 2
41 39 40 43 45 46 38 13 23 42 41 13 7 4 6 14 7 3 3 4 4 2 2 3 2 1 3 2 3 4 2 2 5 4 4 3 3 4 6 5 3 3 4 3 4 3 3
41 39 39 44 42 48 28 13 33 43 42 12 4 4 9 7 8 5 4 7 4 3 1 2 2 1 4 3 3 4 4 2 4 5 4 3 3 2 2 2 3 2 3 5 5 4 4
41 38 39 40 49 44 26 24 45 50 41 16 8 7 11 6 11 10 3 7 6 3 3 2 4 1 3 4 2 5 5 2 3 0 1 3 1 2 5 3 5 0 1 3 4 3 3
40 39 39 42 42 32 12 34 46 50 34 12 10 11 11 9 5 6 4 6 8 8 6 5 7 6 7 2 4 9 8 4 5 5 2 3 3 3 2 5 5 5 3 3 1 1 4
40 37 42 45 38 17 16 44 40 50 32 5 15 12 5 2 4 5 6 4 7 3 6 3 6 4 3 6 8 12 11 10 9 5 3 3 3 2 2 3 1 4 4 2 7 5 6
39 36 42 44 32 8 29 38 41 43 20 10 14 5 4 3 4 4 8 6 10 14 5 5 5 7 12 5 4 4 4 3 4 4 4 4 3 2 4 3 3 1 1 2 2 2 4
36 42 42 35 35 10 34 30 39 42 21 12 9 6 5 8 2 2 5 7 4 3 3 3 7 9 4 3 2 3 4 3 3 1 2 4 4 3 2 3 4 4 2 1 3 3 1
34 38 39 19 14 23 24 27 28 39 25 14 6 5 5 10 6 4 3 4 7 5 4 3 4 3 2 2 2 2 2 4 4 6 4 2 1 4 2 1 5 4 3 1 4 4 6
29 34 25 10 5 16 23 23 26 26 28 16 7 6 4 9 11 6 7 6 7 6 4 7 5 1 3 2 2 2 2 3 2 3 4 5 5 3 2 2 6 3 2 5 4 7 4
26 29 12 6 11 12 20 25 25 20 28 16 9 7 8 10 13 16 15 12 10 7 8 4 3 3 3 4 1 2 1 1 3 2 2 1 4 4 6 4 4 3 6 7 7 5 2

GFSGBSN_850_spd_075.txt.gz
Wind_Speed
32 35 31 25 26 28 27 27 30 31 33 36 37 27 20 17 19 20 19 16 17 13 15 13 10 11 10 6 15 12 7 3 6 8 8 6 9 8 8 2 13 20 11 18 22 19 12
36 38 40 37 29 26 27 29 27 30 32 37 38 32 23 18 19 18 18 14 14 13 15 12 7 9 9 5 5 6 6 5 7 10 10 10 6 9 7 13 11 8 22 22 16 20 18
28 33 37 38 38 33 28 28 30 28 28 36 37 34 25 20 19 21 16 11 14 12 14 10 10 8 10 17 4 9 9 10 11 12 12 13 10 9 7 5 24 25 9 15 13 9 8
27 32 30 29 37 35 29 29 29 33 30 30 39 32 25 20 19 17 17 8 11 13 14 8 7 7 8 3 5 11 13 13 12 12 13 12 9 9 8 5 8 17 11 12 11 8 8
28 28 31 28 30 29 33 32 31 30 34 31 34 29 26 19 18 16 15 10 11 9 5 8 7 7 8 4 8 6 7 13 12 13 10 10 7 6 6 4 9 13 5 11 5 11 2
30 31 32 30 29 29 29 30 38 32 30 32 32 28 25 16 16 13 12 7 2 3 6 7 6 4 7 3 7 8 10 5 5 7 5 6 4 1 4 5 6 10 6 6 9 5 9
30 32 35 32 31 31 30 32 35 38 27 28 33 26 25 13 15 11 9 4 5 2 9 9 6 5 7 6 10 2 3 4 7 4 4 5 5 6 9 6 4 11 5 11 4 5 8
32 33 33 34 34 32 33 33 34 36 29 23 31 33 22 12 12 10 7 7 7 2 5 13 15 15 15 11 4 3 3 4 4 4 3 2 7 7 9 9 2 13 7 6 8 6 7
32 33 34 34 34 34 37 39 33 37 28 24 29 34 16 9 8 9 9 10 6 3 0 4 5 6 5 6 2 5 3 4 3 5 9 7 4 6 6 5 5 2 6 4 7 8 7
36 38 39 40 40 40 37 37 35 36 27 22 29 32 12 7 8 8 7 11 6 4 4 3 3 3 2 3 3 4 5 5 4 9 5 7 7 10 10 4 5 4 4 10 16 11 2
37 38 37 35 36 37 40 41 32 36 30 28 27 35 13 9 7 14 9 9 9 4 2 3 3 2 3 5 2 2 8 3 7 6 3 3 4 11 12 4 4 3 13 14 16 7 1
34 35 35 38 36 37 37 41 39 34 32 34 31 26 12 15 16 13 12 12 11 5 4 1 3 2 2 3 2 4 6 8 6 4 6 5 2 5 2 5 7 1 14 12 6 3 1
33 35 35 36 37 39 39 41 37 37 35 29 29 18 14 15 18 19 15 14 4 4 1 3 3 2 1 2 2 4 1 2 1 1 2 3 2 4 10 6 8 8 5 3 3 2 3
34 36 36 37 37 39 39 40 35 42 29 33 32 17 16 18 17 21 22 3 4 4 4 2 3 2 1 3 3 2 1 4 2 2 3 2 3 1 0 2 6 6 4 3 3 3 3
37 37 38 38 36 38 40 41 42 39 28 18 24 20 22 18 20 24 9 2 6 6 6 6 2 3 4 2 2 4 1 3 4 3 3 2 4 3 3 1 2 1 4 2 6 3 4
38 40 40 39 35 37 40 39 42 34 14 24 27 28 24 23 22 19 1 2 4 3 6 4 3 3 3 2 2 3 3 2 4 2 2 3 6 4 4 2 7 4 3 3 4 3 2
38 38 40 38 36 36 40 36 38 23 4 25 33 12 21 24 21 7 3 6 4 5 7 5 4 4 2 3 2 0 2 1 3 6 5 3 4 4 3 5 3 5 3 5 4 3 3
42 39 38 39 36 36 38 37 37 23 7 28 19 3 27 27 5 4 3 5 5 4 4 1 4 3 5 5 1 2 1 2 9 3 3 2 5 5 1 2 2 1 1 3 4 3 2
40 39 38 39 36 35 37 37 39 24 19 23 10 6 25 27 3 3 3 3 3 3 3 3 3 3 3 5 3 2 2 3 8 4 2 1 2 3 6 5 3 2 2 3 5 3 1
41 39 38 37 36 35 34 37 34 23 35 17 6 4 7 15 5 3 3 3 4 2 3 2 2 3 4 2 0 3 1 3 6 4 6 3 3 4 5 3 1 2 3 3 4 3 2
41 41 39 40 37 33 39 34 26 4 33 14 5 2 5 5 7 3 1 6 4 4 2 1 2 3 3 3 3 3 2 1 3 6 4 3 4 4 4 4 2 1 2 4 3 3 4
41 39 41 41 38 40 39 28 13 8 35 23 7 3 6 3 12 5 0 5 4 3 1 1 5 2 2 4 3 5 4 2 0 4 3 4 1 3 4 5 4 2 1 4 3 3 2
39 40 41 40 43 44 30 13 12 28 47 12 12 5 4 6 3 5 3 5 6 8 4 1 7 5 5 2 3 4 7 6 3 3 2 3 3 3 2 4 2 3 2 3 4 4 5
40 40 39 39 43 32 14 13 11 34 43 18 16 9 4 3 3 5 5 3 9 3 6 3 4 4 5 10 14 13 17 14 10 6 3 3 3 2 2 3 1 3 2 4 2 3 1
39 39 41 46 28 24 6 19 32 49 18 25 9 5 2 3 3 4 5 6 12 11 5 4 3 6 14 6 4 4 4 4 5 5 6 4 3 3 3 1 5 2 3 4 3 3 1
39 40 44 32 19 15 13 23 51 40 16 15 6 3 3 8 2 2 3 8 4 3 4 4 7 9 3 3 3 3 3 1 1 5 5 4 6 4 1 2 4 2 0 3 2 4 4
34 34 36 20 8 11 20 34 43 30 14 20 6 6 4 10 5 3 3 3 6 6 4 2 2 2 4 2 2 2 1 3 3 4 2 2 2 2 1 2 6 3 1 2 3 4 6
31 31 27 14 13 10 9 22 36 23 15 12 3 6 4 8 11 5 4 4 6 5 4 6 4 2 3 3 2 2 2 3 2 3 4 5 4 3 2 1 6 3 1 4 3 5 7
28 27 15 11 0 5 8 17 25 21 16 11 1 6 11 8 10 15 15 11 8 6 8 6 2 3 3 4 1 3 2 1 3 2 1 2 5 3 6 4 1 3 0 4 4 5 2

GFSGBSN_850_spd_078.txt.gz
Wind_Speed
25 25 28 28 33 35 36 30 28 32 28 29 27 28 38 31 21 17 19 19 15 15 12 13 12 12 10 7 15 12 7 5 5 3 6 5 6 5 4 3 3 9 13 10 20 31 21
26 27 27 27 27 27 29 30 30 32 32 29 31 29 35 31 23 17 18 19 13 13 15 12 10 9 7 5 6 5 10 9 7 6 7 7 6 8 8 6 10 4 13 23 21 20 24
26 26 28 30 28 26 26 26 24 26 29 29 29 27 30 27 26 17 16 16 12 12 14 13 10 6 9 18 8 7 12 10 8 11 12 12 11 11 2 5 19 17 8 9 18 20 8
25 27 27 30 29 26 27 27 25 27 27 30 28 30 28 30 24 15 15 14 10 11 15 14 11 8 8 9 8 8 14 14 12 13 15 15 10 11 8 9 6 6 7 8 11 14 11
26 27 28 28 29 29 28 30 29 30 30 34 26 23 27 29 21 14 10 13 11 9 10 7 7 6 9 7 8 5 10 11 12 13 12 11 10 7 7 7 5 3 7 15 7 18 8
28 27 28 29 28 28 30 30 30 31 32 31 22 21 25 32 23 14 7 9 6 4 9 8 6 2 8 4 5 7 8 11 7 7 6 6 5 3 3 4 5 6 7 7 14 13 18
28 29 29 29 30 31 28 31 30 31 31 30 23 22 21 31 22 8 7 3 6 2 14 9 7 4 3 4 10 6 6 8 5 4 4 6 5 8 8 11 12 9 16 4 3 7 12
30 29 29 30 29 29 29 29 31 33 28 30 24 20 22 30 19 8 10 10 8 3 5 13 11 12 14 14 5 8 8 6 4 4 3 2 9 10 8 8 8 15 10 3 6 4 5
31 32 32 31 31 32 31 31 30 31 28 30 20 24 23 24 12 8 13 13 7 7 0 2 5 6 4 7 5 6 8 4 4 3 5 7 6 10 10 3 10 2 10 6 7 9 9
33 32 33 34 34 34 34 35 35 32 32 30 22 19 19 20 11 10 12 13 11 6 3 2 3 3 3 6 4 6 8 5 1 4 5 8 6 8 9 3 2 5 4 9 15 4 3
36 36 35 34 36 37 36 36 36 36 35 30 33 20 20 27 7 15 7 15 10 5 3 3 3 3 2 5 2 4 5 2 6 3 3 2 3 6 7 2 2 2 10 11 9 7 4
36 36 34 35 35 36 37 35 34 36 34 33 40 26 26 19 13 13 13 14 12 3 4 3 5 3 1 6 5 3 3 9 5 4 3 5 10 3 3 2 3 11 12 8 7 3 3
36 37 36 36 38 37 35 35 35 36 34 39 31 27 24 20 17 18 17 16 1 4 2 3 4 3 4 1 2 4 2 3 2 2 2 4 5 2 4 5 4 2 3 3 3 2 2
36 38 37 38 37 36 36 32 35 36 40 41 43 25 29 20 20 24 23 2 2 4 5 3 3 3 1 2 2 1 3 3 2 2 1 2 2 1 1 2 3 4 3 3 4 3 2
37 39 38 38 37 36 34 33 34 37 42 57 16 19 24 23 22 26 15 1 5 6 6 7 4 3 3 2 1 4 0 3 2 2 1 1 3 4 9 6 5 4 3 3 6 3 3
38 40 39 40 37 35 34 32 32 35 40 6 23 26 25 24 28 27 3 3 2 2 5 3 3 1 4 2 1 3 4 2 3 2 4 4 4 4 3 1 3 3 6 3 2 4 3
37 39 39 40 37 35 33 32 31 32 31 26 25 11 21 24 26 12 2 4 3 5 6 5 4 3 2 3 2 1 3 3 4 5 2 1 3 3 4 6 4 4 3 5 4 2 3
39 38 40 39 37 35 35 32 31 29 25 7 7 3 27 28 5 2 2 4 4 4 4 3 4 4 4 4 1 3 3 2 11 2 2 3 5 4 1 3 3 2 3 4 4 2 2
40 39 40 40 39 37 36 30 25 30 20 6 4 5 26 26 3 2 4 2 5 4 4 3 3 3 2 4 2 1 1 3 10 6 3 3 3 3 6 5 3 4 3 4 4 3 1
39 39 40 40 39 37 34 28 28 24 15 15 5 3 5 10 2 3 2 3 4 2 3 4 3 5 3 3 3 2 3 5 9 7 9 4 3 3 5 4 2 3 2 1 3 3 3
40 39 41 40 41 37 33 30 25 14 4 12 3 3 4 4 4 1 3 4 4 3 3 4 3 3 4 3 2 2 2 5 4 8 4 3 4 4 5 5 3 1 1 3 2 4 4
42 42 42 42 41 39 35 20 11 7 25 7 4 3 4 3 7 4 4 4 4 3 3 2 5 3 3 4 0 4 3 1 1 5 4 4 1 2 5 6 6 3 4 2 3 2 3
42 43 45 46 46 35 22 15 10 15 36 6 10 8 4 5 3 4 3 1 4 5 5 5 4 5 6 1 4 7 6 7 4 1 2 3 3 3 3 5 4 4 2 2 1 0 2
41 42 45 46 37 22 10 13 33 35 33 13 14 9 5 2 2 4 2 2 5 3 5 4 7 4 5 15 12 11 17 16 13 7 4 3 3 2 1 4 2 4 2 2 1 2 3
37 41 43 40 40 14 20 26 28 40 21 17 13 1 3 3 1 1 4 5 11 12 5 5 6 5 12 3 4 5 5 4 5 5 6 4 4 3 3 1 4 2 2 1 1 2 1
34 36 34 29 28 21 27 27 34 39 23 15 6 1 3 7 1 2 3 4 4 3 4 4 6 7 2 3 3 2 2 1 1 3 3 4 6 4 1 3 2 2 1 3 1 4 1
30 31 26 18 20 21 27 29 27 26 19 12 8 6 4 8 4 4 3 3 4 6 4 1 1 2 4 2 2 2 1 2 2 3 1 2 3 2 2 1 5 2 4 3 2 3 4
27 26 17 8 14 8 19 21 21 21 16 5 12 9 3 7 9 5 4 3 3 4 4 4 3 3 3 3 2 1 2 2 2 2 3 4 4 2 2 2 6 3 1 3 2 4 5
22 21 13 5 13 11 5 16 18 17 11 5 6 9 10 7 10 15 15 12 9 6 5 7 2 2 3 4 1 2 1 1 3 2 1 1 4 3 6 4 1 2 2 3 4 7 5

GFSGBSN_850_spd_081.txt.gz
Wind_Speed
23 24 25 27 29 25 23 23 23 20 20 25 25 26 23 22 23 31 22 16 16 14 10 12 13 10 9 6 10 9 8 5 7 5 4 4 3 1 3 2 4 11 17 15 12 12 19
23 24 24 24 26 26 24 24 23 19 21 22 24 23 21 22 22 29 22 17 14 12 10 12 11 10 10 6 4 5 7 12 10 6 3 3 3 4 7 6 7 5 14 20 19 23 16
25 26 26 25 24 24 25 25 26 24 24 24 24 25 24 23 18 25 19 11 11 9 11 10 11 8 12 16 8 6 7 12 10 7 9 8 7 8 1 6 7 14 15 13 16 14 15
26 26 26 27 26 27 26 24 26 25 26 26 28 21 15 17 19 24 17 13 7 7 12 10 10 10 9 6 8 6 9 13 12 11 14 14 11 11 11 7 6 4 5 8 11 14 14
29 28 27 27 28 26 26 25 27 27 26 27 28 23 13 12 24 21 18 9 5 8 9 7 6 8 9 6 7 3 8 12 11 11 11 11 10 7 4 6 7 8 9 15 13 15 11
27 28 28 28 28 27 28 27 27 28 27 28 26 27 22 15 22 22 14 3 0 3 5 9 6 4 12 6 5 3 5 7 8 7 5 6 5 3 3 6 5 7 11 11 14 9 19
28 29 28 29 27 28 28 29 28 28 27 30 28 26 25 11 18 23 10 7 7 4 14 9 9 5 3 5 2 4 7 6 6 4 5 6 5 8 14 12 16 7 7 13 13 10 15
28 30 30 28 29 29 28 28 28 28 27 27 26 22 18 10 20 16 10 8 9 5 8 25 8 14 12 7 1 6 7 5 3 4 3 4 12 15 11 16 16 19 18 13 10 15 15
32 30 29 30 30 28 29 28 29 28 27 26 25 22 14 12 16 14 10 9 6 8 4 6 14 11 8 10 5 9 12 5 5 5 7 8 5 1 14 11 11 9 15 10 3 13 6
33 33 32 33 32 31 31 32 32 29 27 27 27 21 20 11 14 12 12 11 10 7 2 4 5 5 7 6 3 6 12 6 5 6 5 7 2 9 10 9 7 4 11 20 15 5 4
34 35 33 33 34 33 33 33 33 29 28 27 27 24 22 15 14 15 7 17 13 6 1 3 3 7 6 4 4 7 12 10 10 3 2 3 2 4 4 5 7 2 5 9 9 8 7
36 37 35 34 35 34 34 34 33 28 27 29 28 29 17 11 25 15 17 19 14 4 5 5 5 5 4 5 5 5 6 9 2 3 4 7 5 5 3 4 2 5 13 7 4 3 4
36 37 37 37 36 35 32 32 32 28 28 28 31 31 14 11 15 20 24 19 4 2 2 5 4 5 4 4 3 5 4 5 3 2 2 2 2 1 3 1 2 1 3 2 3 3 3
36 36 36 36 36 35 36 32 31 29 29 32 31 31 27 17 21 28 30 2 3 3 4 2 4 4 4 2 3 3 3 2 5 4 2 1 4 3 3 3 1 5 2 2 4 3 3
35 35 36 35 37 37 34 33 31 30 31 33 34 7 20 21 28 31 16 2 4 4 5 6 4 3 3 1 2 2 0 3 4 0 1 2 3 1 2 1 1 1 3 2 5 2 3
37 36 37 39 36 36 33 31 33 31 30 36 13 18 28 29 34 29 2 2 1 3 4 2 4 1 4 3 1 3 3 1 1 4 1 2 4 3 1 4 9 6 1 2 3 3 3
37 37 36 36 36 35 34 32 31 28 34 20 14 8 23 31 28 11 1 2 2 5 1 2 3 4 2 3 2 3 4 1 2 4 3 2 3 2 1 3 1 3 2 3 3 2 4
36 38 37 37 35 34 32 30 28 28 27 18 7 3 25 21 4 2 2 2 2 2 1 3 5 4 3 2 3 2 2 1 11 2 2 2 4 3 1 2 2 2 1 0 3 3 4
37 40 39 38 37 34 32 28 24 21 18 11 5 8 14 14 2 2 2 3 2 2 0 2 3 3 2 3 3 3 3 3 9 4 1 2 4 2 6 5 0 3 3 3 4 3 2
38 41 41 40 38 35 29 26 19 16 5 8 4 3 7 3 4 2 2 3 3 4 4 6 4 4 3 4 5 2 3 2 6 5 6 3 3 3 4 3 2 3 4 4 4 3 2
40 43 42 44 41 37 29 16 11 4 11 7 6 4 4 3 1 3 2 3 3 3 4 7 4 3 4 3 2 2 1 4 3 9 4 4 4 3 3 4 2 2 2 3 4 2 3
42 45 47 48 38 22 10 5 11 15 22 10 5 5 5 3 5 2 4 2 4 3 5 3 6 2 3 5 2 2 2 3 1 6 4 4 1 2 5 6 5 4 4 4 3 2 3
40 45 49 46 36 16 9 13 23 27 20 12 13 14 5 4 2 2 1 4 3 5 5 6 4 5 7 2 3 6 9 8 4 2 2 3 3 3 2 4 3 4 2 2 2 2 3
37 41 39 42 33 25 15 18 26 31 16 12 14 7 4 1 2 1 5 4 4 4 5 4 7 4 3 14 15 13 17 15 13 8 3 3 3 2 2 4 3 4 1 2 3 3 1
33 35 23 31 30 24 19 17 32 27 19 11 11 7 4 4 2 3 3 3 8 11 5 5 7 6 10 2 4 4 4 4 5 5 7 4 4 3 3 1 3 2 3 2 2 1 1
30 28 21 24 25 14 11 19 23 14 8 4 4 6 5 9 2 2 3 3 3 2 4 4 7 4 2 3 3 2 1 1 2 5 5 4 5 4 2 3 1 3 2 2 1 3 1
25 20 13 19 15 15 12 18 19 15 7 5 8 8 5 8 3 2 1 2 2 3 3 1 2 2 5 2 3 2 1 1 0 2 1 3 3 2 2 1 5 3 4 4 1 2 3
21 18 12 15 12 7 14 17 15 8 6 8 12 7 4 7 7 3 2 2 2 1 3 4 3 2 3 3 2 2 2 2 1 1 2 4 3 2 1 1 5 1 1 2 3 3 4
17 14 8 11 14 8 2 13 15 8 2 3 9 9 11 7 9 11 11 9 6 4 5 5 2 2 3 4 1 2 1 1 3 2 0 2 4 3 6 4 1 2 3 3 5 4 5

GFSGBSN_850_spd_084.txt.gz
Wind_Speed
21 20 22 23 21 21 21 22 21 23 18 20 23 24 25 22 20 18 25 25 17 12 10 9 9 9 5 4 7 9 8 7 7 3 2 1 4 5 7 5 8 16 18 21 21 17 19
22 22 22 22 23 21 22 21 21 23 19 20 21 25 23 21 23 17 23 25 18 13 10 9 9 7 5 8 4 5 7 13 9 5 1 1 2 3 7 9 10 8 15 15 17 22 22
22 24 24 23 22 23 22 22 22 25 23 21 21 22 26 18 11 14 19 25 18 9 8 7 7 4 7 10 5 5 6 11 10 5 1 4 4 5 2 7 11 13 17 18 20 20 13
26 26 27 25 26 27 25 25 25 22 25 23 24 24 25 13 12 12 17 22 13 8 8 7 7 3 5 5 6 7 7 10 10 7 6 8 8 10 12 8 11 11 12 9 14 16 18
28 26 26 26 24 26 22 23 24 25 24 23 24 26 24 21 16 10 22 18 10 8 6 7 6 6 4 5 7 7 9 8 9 9 10 7 6 11 6 8 9 9 13 17 16 14 15
32 31 29 27 28 26 23 21 21 23 25 25 25 27 22 24 16 22 23 15 8 7 9 10 8 4 7 2 6 6 7 11 5 5 4 7 6 6 6 7 10 10 15 15 20 11 18
30 30 33 31 27 27 28 23 21 22 22 25 26 26 19 21 8 27 22 14 12 6 12 6 10 5 7 7 7 7 8 7 5 4 5 6 6 11 15 16 17 18 17 18 18 18 16
32 33 30 31 28 28 27 25 23 21 22 20 24 23 18 19 10 20 17 10 9 5 4 11 7 11 8 8 4 7 9 7 6 8 8 5 11 17 14 15 15 18 20 22 19 15 15
32 32 33 34 31 28 26 26 26 24 23 19 19 19 17 19 5 18 15 10 10 8 2 3 17 7 5 13 5 10 13 7 7 7 9 10 7 5 11 16 17 18 18 19 14 3 14
34 33 32 33 33 31 29 29 26 27 23 17 17 15 14 15 13 11 10 9 11 9 1 6 6 5 8 5 5 8 14 7 6 6 8 9 12 12 13 15 11 13 17 14 13 12 6
36 34 31 33 32 32 31 30 30 22 22 16 15 15 14 13 8 10 6 11 12 5 4 9 5 9 7 6 5 8 12 7 9 5 2 3 6 8 9 6 7 6 11 15 10 10 11
36 33 33 32 32 31 32 32 24 21 19 17 15 17 13 10 10 18 12 19 13 3 4 5 6 6 5 7 4 7 7 6 0 1 4 10 14 6 5 13 7 2 11 8 7 8 3
37 32 36 32 32 32 32 32 26 23 22 19 19 17 10 9 8 18 23 20 4 4 3 7 5 6 7 6 5 6 5 4 3 2 2 2 3 6 6 3 3 2 4 3 2 2 4
36 34 36 34 31 32 30 29 26 26 27 22 23 17 13 17 10 31 32 3 4 4 2 6 5 8 5 6 3 4 2 2 5 5 2 2 1 5 8 4 5 3 4 2 3 3 4
35 35 33 33 34 32 30 28 26 28 28 24 28 21 16 22 18 33 14 2 1 3 7 8 10 5 3 3 3 3 3 3 1 8 2 2 0 4 3 5 5 5 3 6 4 2 4
34 33 34 36 35 32 28 27 26 27 30 22 15 22 20 24 30 30 1 3 1 1 6 9 4 4 5 5 4 2 4 1 2 1 1 1 2 2 2 4 4 4 8 2 1 2 4
32 33 35 35 33 29 27 25 24 24 26 20 15 10 18 27 30 4 2 3 3 2 3 2 3 4 3 4 2 3 2 2 3 1 7 3 3 1 2 2 4 2 2 0 1 2 1
33 36 38 37 34 29 24 19 18 21 18 21 21 4 22 30 4 2 1 3 3 2 3 2 3 4 2 2 4 3 3 1 8 3 2 3 3 4 3 2 3 4 6 4 3 3 4
35 40 42 41 38 29 18 13 12 14 16 24 12 12 21 7 2 1 3 3 2 1 1 2 2 2 1 2 4 2 0 2 6 3 4 4 3 2 3 2 2 4 5 5 1 1 4
37 42 47 43 27 13 6 3 5 9 17 19 8 3 3 5 4 1 5 3 2 4 3 5 4 3 3 6 6 3 1 2 5 5 5 1 4 4 3 2 3 2 6 9 5 4 5
36 41 43 37 28 8 4 1 6 15 13 10 7 4 4 1 4 5 2 3 5 4 3 6 4 3 2 4 3 3 1 1 1 6 2 2 4 4 5 4 1 3 5 7 5 4 5
35 36 43 36 24 13 8 12 22 18 12 15 6 5 6 5 3 2 3 2 4 2 6 4 5 5 4 5 4 3 2 1 1 2 2 2 4 2 2 5 4 5 7 4 6 4 7
31 33 39 36 27 19 18 22 27 20 20 17 19 15 6 3 2 1 3 4 3 1 5 6 4 6 11 5 4 5 8 8 5 2 2 2 3 1 2 2 1 3 6 6 3 3 2
28 29 33 31 25 20 18 22 19 7 13 18 15 8 5 4 3 3 2 4 5 4 4 4 6 2 3 12 9 6 9 10 11 10 4 3 2 1 1 2 2 3 2 3 3 3 2
23 23 25 26 21 17 13 20 19 20 14 12 11 5 5 5 4 4 7 5 4 10 5 4 6 7 7 2 0 0 1 1 6 6 8 4 2 2 0 1 1 2 1 0 2 1 2
18 15 22 19 20 12 12 10 8 11 11 9 9 11 9 9 3 3 2 1 3 2 2 3 6 3 1 2 1 1 2 2 1 1 3 2 4 1 1 1 2 3 3 0 1 2 3
17 13 12 13 12 8 9 10 8 9 10 11 9 10 7 9 3 4 1 2 2 2 3 0 2 1 4 2 2 1 1 2 1 1 1 1 1 0 2 2 1 2 1 1 3 3 7
15 9 9 12 8 3 6 6 2 6 12 12 7 3 4 6 6 5 4 2 2 0 1 4 2 1 1 1 1 1 1 1 2 1 1 2 1 1 1 2 1 3 2 3 3 2 5
10 7 3 6 10 8 6 6 6 4 9 11 5 6 8 4 7 10 8 6 4 3 3 3 1 1 1 2 2 2 2 2 1 2 2 3 2 1 3 1 2 3 2 2 3 2 4

GFSGBSN_850_spd_087.txt.gz
Wind_Speed
22 22 23 23 22 23 20 21 23 22 23 21 19 19 20 20 15 24 24 18 26 17 18 13 10 5 0 4 5 6 3 5 5 2 2 4 7 9 11 8 11 15 16 23 23 22 23
24 25 25 25 23 25 24 23 23 23 23 21 21 21 21 21 23 12 16 19 28 23 18 11 10 5 5 7 7 5 5 7 5 4 4 3 5 6 11 14 14 14 17 18 20 21 23
27 27 26 25 25 23 24 26 21 22 23 23 20 23 24 22 22 19 9 17 27 24 13 11 9 6 8 5 6 5 4 6 6 6 5 4 5 6 7 10 12 16 17 19 23 25 23
27 29 31 30 29 26 26 25 22 21 23 23 23 22 24 25 18 18 12 23 23 20 10 11 5 5 5 9 7 8 6 6 6 7 4 5 7 11 13 12 16 16 18 18 17 18 25
28 29 29 29 31 29 26 26 25 22 21 23 22 22 24 26 21 17 11 26 21 12 12 8 4 6 2 4 7 7 7 6 7 6 7 6 6 11 7 7 8 9 14 18 18 16 16
27 28 29 31 29 30 26 24 24 23 22 21 22 24 23 24 27 8 27 21 13 11 10 9 4 6 6 5 9 9 8 8 6 6 6 5 5 7 8 8 10 12 11 15 17 14 14
24 25 30 27 30 31 27 23 24 23 22 23 25 23 21 19 12 10 23 17 13 5 9 5 6 0 11 9 9 6 7 9 7 8 7 1 5 12 13 16 17 16 18 22 21 18 17
28 29 29 27 26 29 29 26 23 22 24 24 23 21 19 19 17 10 24 10 9 6 4 12 7 5 10 7 6 8 9 8 9 10 3 4 14 17 16 15 16 18 21 24 23 22 15
23 28 27 28 29 28 27 26 27 23 22 21 19 16 17 17 19 21 11 4 6 9 3 8 11 7 6 8 4 12 13 7 6 9 9 13 11 12 12 14 16 19 20 22 20 16 16
30 28 29 31 31 26 27 23 25 31 15 15 13 10 14 12 2 10 12 4 8 10 3 7 8 6 6 6 4 6 12 4 4 8 10 12 15 14 13 15 14 18 18 24 20 10 7
36 34 27 32 26 27 25 25 23 23 16 12 11 10 13 10 8 4 2 10 11 2 5 8 7 9 9 7 8 5 6 4 7 5 3 5 7 9 15 8 4 9 5 9 14 13 9
32 35 29 29 28 28 27 24 22 17 14 11 10 11 13 7 8 6 3 10 10 2 3 5 6 9 8 8 4 6 3 3 1 4 5 12 22 13 6 15 15 5 4 2 7 6 5
36 32 27 28 27 28 27 25 21 18 17 16 11 14 12 9 3 7 6 14 2 4 7 7 7 8 10 7 6 6 4 4 4 4 3 3 6 5 7 8 9 6 3 4 5 4 3
34 28 28 29 29 28 26 22 23 20 20 15 14 12 6 6 3 12 17 1 5 4 4 3 8 12 4 7 3 4 3 4 9 7 4 4 1 6 8 6 8 12 8 5 2 2 3
29 30 30 30 31 29 25 24 21 22 23 17 16 13 8 8 5 20 8 4 4 2 5 8 12 7 3 3 1 6 1 3 2 6 3 4 2 7 7 9 7 7 4 9 3 1 2
29 32 36 35 32 27 23 20 18 22 20 20 17 17 4 5 15 18 1 4 2 3 6 13 4 1 6 7 4 4 3 1 1 1 1 2 4 7 5 6 4 4 7 4 2 3 5
32 35 38 42 36 29 19 12 14 14 19 24 24 12 11 13 21 6 2 4 2 1 2 4 4 5 5 5 3 2 2 4 6 4 9 6 6 4 4 4 5 1 7 4 3 2 3
34 38 40 32 26 21 12 4 9 16 20 26 20 5 15 15 4 2 3 3 7 7 3 5 5 4 5 2 3 3 2 2 4 2 3 1 5 2 1 2 3 3 9 9 5 7 4
34 40 40 32 21 10 6 8 15 17 15 12 9 9 16 3 3 1 3 5 4 3 4 2 3 3 1 2 2 3 0 3 6 2 4 4 3 4 1 5 4 5 11 11 1 3 9
34 40 38 33 20 9 9 13 17 20 22 22 7 3 4 3 1 3 5 3 1 4 8 6 5 5 2 5 2 5 3 1 4 5 3 4 3 5 6 3 4 7 12 12 8 5 10
32 39 37 32 21 15 14 18 23 14 10 8 4 3 2 4 4 5 5 2 8 5 5 3 3 3 2 3 6 4 2 1 1 5 2 4 3 3 4 4 3 5 7 10 11 9 6
28 37 37 32 27 17 17 19 11 7 5 4 4 5 5 10 5 5 3 3 6 5 6 7 8 5 3 7 6 3 1 2 3 3 4 3 2 4 2 5 3 4 7 5 8 8 7
24 30 34 30 24 18 20 17 15 12 6 6 12 12 4 3 4 3 3 3 5 3 6 6 5 6 8 6 8 8 8 6 5 5 4 3 2 2 2 4 3 3 8 7 4 5 6
20 23 28 26 20 18 14 14 18 20 13 6 7 4 5 5 4 4 4 6 6 6 3 4 6 1 2 2 2 2 5 5 7 7 5 2 2 1 2 3 2 3 3 2 4 2 4
13 18 19 23 16 9 14 13 14 13 10 9 1 4 6 7 10 7 6 6 6 8 5 5 6 3 1 4 2 2 2 2 3 4 6 5 2 2 3 3 1 1 2 3 5 2 2
9 9 14 14 17 6 2 9 13 19 15 10 8 9 5 11 2 4 5 1 3 3 3 3 2 2 4 2 1 2 2 2 0 1 1 3 3 3 2 2 2 4 4 1 2 3 2
8 5 10 10 9 8 6 7 11 14 20 10 10 6 4 4 3 2 2 2 1 0 2 3 2 2 2 3 2 2 1 2 2 3 2 2 3 4 3 3 0 4 3 1 3 4 2
8 1 2 7 7 5 5 7 8 11 17 15 9 5 1 3 4 4 4 1 2 1 2 4 3 4 2 2 2 1 2 1 3 1 3 3 2 2 1 3 2 5 4 3 3 1 0
11 5 3 3 4 8 8 6 8 13 11 14 13 9 5 2 5 5 5 6 6 4 2 3 3 1 2 2 2 1 3 2 2 2 2 3 2 3 3 2 2 5 2 0 1 1 2

GFSGBSN_850_spd_090.txt.gz
Wind_Speed
24 25 26 26 23 21 20 21 22 21 19 21 23 16 20 18 23 22 16 27 24 15 25 18 13 4 4 3 6 9 4 6 7 7 4 2 1 5 6 7 11 12 12 20 21 23 23
22 24 25 26 26 24 23 20 21 20 21 18 20 23 19 22 23 23 15 18 21 16 23 16 10 7 6 6 6 6 7 6 5 5 3 3 1 4 6 10 11 15 20 21 20 19 21
25 26 25 27 26 27 27 22 21 20 19 18 20 20 24 21 25 24 17 15 15 25 23 16 10 7 4 3 6 7 7 9 7 5 4 2 1 1 7 8 9 13 12 14 16 21 19
26 25 27 27 24 23 26 26 21 20 19 18 18 22 22 22 24 24 15 14 14 28 21 13 11 8 3 10 8 7 6 8 8 5 4 1 2 4 7 10 13 13 13 14 14 17 23
32 27 22 26 28 26 26 26 23 21 19 18 19 20 22 22 22 21 10 10 23 22 18 12 11 9 4 4 12 7 8 8 7 5 2 1 2 3 4 4 4 5 10 14 14 13 10
33 27 24 24 26 26 24 26 23 23 20 19 19 20 21 20 16 25 9 26 22 20 16 14 6 6 6 5 9 10 8 7 8 6 3 2 1 1 1 2 4 7 9 14 15 11 11
11 24 29 26 26 25 23 22 21 22 22 17 18 18 19 17 17 14 20 23 16 8 8 5 11 6 13 12 12 9 10 9 6 5 4 4 0 5 7 13 17 13 17 19 17 17 17
23 32 33 25 26 23 22 21 20 21 18 17 16 14 15 15 17 9 10 2 7 6 4 3 8 11 10 12 7 9 9 8 6 5 6 2 8 12 11 15 16 18 18 21 21 18 16
36 26 26 23 24 22 21 19 18 19 20 12 10 10 10 10 11 1 12 8 8 9 3 7 8 5 5 6 4 12 12 5 6 7 7 8 8 15 14 14 15 17 17 20 19 16 15
33 31 25 23 22 22 23 22 19 18 13 10 8 5 9 9 3 2 5 1 7 8 3 4 7 5 5 5 2 7 12 3 4 4 5 6 11 12 14 14 10 18 10 19 18 10 6
34 31 23 23 24 24 26 21 20 16 10 8 7 5 9 8 3 3 5 6 7 3 5 7 9 9 8 5 11 5 5 5 6 2 3 3 6 6 10 8 5 8 11 12 8 9 10
35 28 25 25 25 26 24 21 17 14 12 8 7 6 12 3 4 3 7 12 5 2 4 4 5 6 8 9 5 6 2 1 1 2 6 13 13 8 7 11 14 7 3 2 3 1 3
29 30 29 29 27 25 23 19 17 15 12 8 5 2 5 7 2 4 5 5 1 2 6 7 6 9 9 6 8 7 4 3 1 3 2 5 7 7 13 10 10 3 3 3 2 2 2
30 36 38 37 36 31 20 18 18 19 12 8 1 4 11 8 2 9 9 1 1 2 6 7 7 9 5 10 5 4 4 2 6 3 4 4 1 5 5 2 7 12 7 2 4 2 3
33 39 43 39 32 26 20 15 14 16 8 9 13 15 12 4 5 9 5 2 4 4 3 9 12 6 2 5 1 4 3 2 2 9 2 3 3 2 4 4 4 6 4 4 4 1 1
36 42 46 42 31 23 18 9 11 19 21 20 23 21 12 5 11 11 4 4 3 3 6 13 5 5 6 5 2 5 1 1 2 3 4 4 4 2 3 3 6 4 5 3 2 6 4
39 45 46 40 31 19 14 8 13 20 25 22 21 9 8 8 13 7 3 3 3 6 2 2 4 3 6 4 4 2 3 5 5 4 8 6 3 3 4 3 4 2 5 4 2 1 1
40 43 42 32 23 18 12 16 18 19 16 12 15 4 8 14 4 1 2 2 6 7 1 2 6 7 3 3 2 3 2 2 3 2 4 6 2 4 2 3 4 4 6 6 3 7 3
39 41 38 27 23 18 12 15 16 14 13 13 8 9 9 1 1 1 3 4 3 4 6 4 3 5 5 2 2 5 2 2 2 3 4 6 4 4 3 2 3 3 11 10 3 3 6
35 37 33 23 21 17 13 11 10 9 14 10 6 3 2 3 5 2 4 1 2 3 7 8 4 1 3 2 2 3 3 2 1 2 3 2 3 4 1 2 4 5 9 9 6 4 4
31 33 30 21 20 20 16 14 11 6 6 7 4 2 2 2 4 5 2 2 9 4 4 2 1 5 5 2 4 3 1 4 7 3 3 1 2 3 3 3 3 5 7 9 9 8 6
23 27 27 18 17 18 17 19 19 9 5 8 2 5 2 3 3 5 2 8 8 5 8 7 6 8 8 7 6 6 7 5 4 5 2 1 0 3 2 4 2 4 9 7 7 8 7
20 20 21 15 11 13 17 19 22 18 9 6 7 6 2 2 4 3 3 4 6 4 5 9 9 4 6 4 11 8 3 2 2 4 5 2 1 3 2 5 4 2 5 6 2 7 4
15 16 15 13 7 10 13 15 16 16 15 7 4 1 2 1 1 3 2 7 6 7 4 6 9 5 3 6 11 7 4 2 4 4 3 1 2 1 3 3 2 3 3 2 4 3 4
14 11 11 10 5 5 11 13 15 19 14 6 2 1 4 1 4 3 5 4 8 6 3 3 4 2 5 7 3 2 3 3 3 3 4 4 2 1 1 2 4 3 2 2 3 3 4
13 9 9 7 6 4 6 10 12 19 16 14 6 2 4 4 2 4 2 2 2 3 3 2 1 2 5 3 2 2 1 2 2 2 2 3 3 1 3 1 2 2 3 1 3 2 3
12 8 7 7 5 5 5 6 7 12 17 11 12 5 4 2 2 2 3 3 4 2 3 3 1 3 3 3 2 2 2 1 2 3 3 3 2 1 3 2 2 4 4 1 1 3 4
13 10 7 6 5 6 7 6 4 6 9 11 11 9 3 2 2 2 1 1 3 4 2 1 0 2 2 2 0 1 2 0 3 2 2 1 1 3 1 1 5 5 1 2 1 1 1
13 13 9 8 9 8 8 8 9 5 5 8 8 9 4 2 2 2 2 1 2 2 1 2 2 3 4 2 1 2 2 1 2 3 1 2 3 2 2 3 2 8 2 3 2 1 2

GFSGBSN_850_spd_093.txt.gz
Wind_Speed
29 29 24 23 22 23 23 26 23 20 18 16 16 17 18 16 16 17 17 17 12 25 14 20 11 7 7 3 4 7 4 4 9 11 4 2 2 2 2 4 7 3 4 12 14 15 20
36 36 28 22 20 20 22 22 23 20 16 17 15 15 19 18 21 21 20 14 10 12 20 23 17 11 9 2 6 9 4 7 9 9 3 4 3 3 2 3 1 8 15 14 14 16 17
38 39 37 24 18 20 23 22 24 20 17 16 14 15 15 18 20 18 18 16 16 13 13 26 19 13 10 6 8 8 9 10 5 8 4 2 2 0 6 5 9 11 6 9 14 16 10
45 35 20 19 24 21 20 23 24 21 18 16 14 14 16 19 19 19 17 13 17 20 26 22 18 15 6 12 8 8 11 11 9 7 5 3 2 3 3 5 7 4 3 3 4 9 15
32 30 27 32 28 20 20 20 22 20 17 16 13 14 15 17 15 18 10 6 12 30 27 20 21 13 7 16 10 7 10 12 10 5 2 1 3 3 2 2 4 3 4 5 7 5 7
35 34 31 26 24 23 21 20 21 20 18 17 12 13 14 14 15 15 13 28 32 29 24 20 15 9 9 8 16 13 11 10 7 7 0 1 0 2 4 4 3 4 5 5 11 4 15
38 35 33 27 26 23 22 20 20 18 17 19 11 9 11 11 11 15 20 29 19 8 6 2 13 15 20 16 16 12 13 10 5 3 1 3 4 5 8 7 7 6 9 14 19 15 14
33 32 28 24 24 23 22 21 19 19 15 16 7 7 8 9 10 8 7 5 8 12 8 15 13 22 17 17 13 11 12 6 5 3 2 1 7 10 9 8 8 9 10 20 20 15 13
33 28 25 24 23 23 23 23 18 15 14 10 8 6 8 8 7 6 6 3 8 14 7 7 12 15 11 9 10 13 13 4 3 4 6 8 8 14 8 9 8 9 9 17 18 21 14
29 26 28 27 26 24 23 21 16 12 9 7 6 7 10 6 5 7 6 4 8 6 4 3 3 3 6 7 5 8 13 1 3 3 6 7 8 5 6 9 4 14 8 15 12 6 3
28 29 33 38 35 24 20 18 14 10 7 7 6 6 8 9 8 12 1 6 6 1 5 2 5 9 9 2 14 4 9 2 2 2 3 6 4 2 5 8 6 10 10 11 12 5 4
31 32 34 34 34 29 24 15 12 9 3 3 5 5 7 13 12 15 15 9 5 4 4 4 4 4 4 3 3 6 3 1 1 3 3 11 6 4 7 7 13 10 5 3 3 1 3
34 36 37 36 33 27 22 16 15 14 8 1 9 12 14 11 12 9 7 4 2 5 1 5 4 5 4 5 5 5 3 2 2 1 3 2 5 3 4 5 5 7 5 2 2 2 4
38 40 39 34 30 28 20 17 15 9 9 11 12 16 17 11 11 10 8 1 6 5 4 4 5 6 3 5 2 5 4 2 5 4 3 3 7 2 5 3 3 7 3 3 4 1 2
38 40 36 30 28 25 23 20 19 16 17 17 17 17 12 11 9 6 1 5 3 2 3 6 10 3 1 6 3 4 5 2 4 8 1 3 4 4 4 3 2 2 3 3 4 2 1
39 36 31 30 28 24 20 31 27 28 25 19 20 19 18 11 7 3 4 4 2 6 1 6 4 5 4 4 2 3 3 2 2 3 4 3 4 6 4 1 9 6 4 3 2 5 3
38 33 28 27 25 23 18 20 25 21 15 11 7 8 9 12 5 7 5 3 3 6 3 3 4 5 5 4 4 2 3 2 4 3 7 2 1 6 3 4 3 3 5 3 3 3 1
35 30 27 24 21 21 23 19 16 10 8 12 9 3 5 10 4 3 2 3 3 4 2 3 5 4 3 4 3 2 3 3 11 4 4 7 3 4 7 2 2 2 6 3 3 6 3
31 27 26 24 20 15 15 13 13 10 11 11 5 4 7 12 3 3 2 5 2 5 5 4 2 3 2 2 3 2 3 4 6 4 3 1 3 4 8 6 6 4 11 7 1 2 4
26 24 24 24 21 18 13 6 8 9 10 11 3 3 4 5 1 1 2 3 4 4 4 4 2 2 2 1 1 3 2 4 5 5 5 2 0 4 4 5 4 6 8 9 3 4 2
22 19 20 21 18 15 15 11 8 9 9 4 4 1 3 3 3 3 4 1 4 4 8 8 5 6 2 2 0 1 2 1 3 3 2 4 0 1 4 5 2 3 5 8 8 4 4
18 15 12 14 17 18 18 20 16 8 6 7 2 2 2 5 9 2 4 4 4 3 4 5 5 6 9 5 4 4 5 4 1 5 2 2 2 2 3 4 3 1 6 5 6 7 6
14 12 8 5 9 13 15 17 17 15 11 5 5 2 5 5 6 3 3 2 4 1 3 6 3 2 6 3 8 14 14 12 4 1 2 1 2 3 4 4 4 3 1 3 2 4 1
14 12 9 5 4 7 12 14 16 16 11 3 2 3 4 3 2 1 3 3 2 3 3 3 7 3 1 7 11 9 11 10 3 3 0 1 1 2 3 4 3 4 0 1 2 3 4
14 11 10 7 6 5 9 11 14 15 16 1 4 2 3 1 3 4 1 1 1 3 2 2 2 1 7 6 3 3 3 3 4 4 3 1 2 1 2 1 3 2 2 1 2 1 1
13 11 10 9 7 6 6 7 9 13 12 7 5 3 4 3 1 4 5 4 2 1 4 2 1 3 5 2 2 0 2 2 3 7 5 2 2 3 0 1 3 3 2 2 2 3 1
13 11 9 9 9 8 8 7 6 8 10 8 5 1 1 1 2 2 3 2 6 3 1 3 4 4 3 2 1 1 3 1 2 3 2 3 2 3 2 3 5 2 5 4 2 4 4
13 11 10 9 10 10 8 8 7 6 6 7 7 5 3 4 5 7 3 4 2 1 1 5 3 3 4 2 1 2 2 3 2 4 3 4 3 3 2 1 5 7 4 5 4 6 6
14 12 10 10 10 12 10 8 9 7 6 6 6 7 2 3 2 8 7 5 4 3 3 1 1 1 2 1 1 2 2 1 3 3 1 3 5 3 6 5 4 12 5 8 9 8 8

GFSGBSN_850_spd_096.txt.gz
Wind_Speed
37 33 30 36 33 15 13 17 20 20 19 16 15 15 13 13 14 17 19 17 15 20 21 12 18 12 10 4 4 11 8 6 11 12 9 6 6 3 2 3 5 2 3 9 11 16 18
33 28 32 32 24 22 17 15 16 17 18 16 17 15 14 14 14 16 15 17 17 11 20 15 21 13 10 3 8 9 6 10 11 8 6 6 4 4 1 1 1 6 9 12 10 17 15
31 31 29 27 23 19 17 16 17 18 17 14 12 13 16 14 17 14 14 15 16 15 12 19 22 12 9 8 12 10 9 12 10 7 7 4 2 2 2 3 9 8 6 7 11 9 7
32 29 29 22 22 20 17 17 17 17 17 14 13 10 15 15 16 13 18 18 17 22 18 26 15 18 7 12 8 10 14 11 7 4 5 2 1 2 1 4 6 4 2 4 4 1 9
35 30 29 23 20 19 17 18 17 16 16 13 12 9 10 14 14 12 14 7 15 19 19 28 22 12 8 15 10 11 13 12 10 5 2 2 5 3 1 3 4 4 3 5 7 4 5
31 30 26 21 19 19 17 17 17 14 13 12 12 7 9 12 12 5 20 15 19 33 32 22 21 13 12 13 14 11 11 10 6 4 3 3 3 3 3 4 3 3 5 5 8 5 8
29 25 22 21 19 19 21 18 15 15 12 12 6 5 5 8 9 10 13 22 24 15 9 6 13 8 18 15 16 14 11 10 7 2 1 2 4 3 6 7 5 4 6 10 18 15 16
25 22 24 25 22 22 18 18 13 12 12 7 7 8 6 8 7 3 12 8 11 15 19 17 18 23 23 20 12 13 13 5 5 3 3 3 4 7 6 6 7 8 9 18 15 13 3
27 27 29 27 30 21 12 12 11 9 8 8 9 10 9 9 6 5 13 15 20 17 7 11 15 17 9 14 8 11 13 4 3 3 3 5 5 5 6 6 8 4 5 11 13 16 13
28 32 33 31 26 21 15 6 7 5 4 7 8 8 7 6 8 10 7 2 20 7 5 4 5 3 5 8 5 11 12 1 3 2 3 5 4 3 4 7 5 6 8 15 14 9 4
36 35 32 27 25 18 13 9 4 1 1 8 8 8 9 9 6 9 5 8 9 2 5 2 3 4 5 4 14 3 10 2 2 1 3 5 3 3 5 6 7 9 1 11 10 8 3
37 32 28 25 22 19 16 13 11 11 1 4 6 12 12 12 15 19 14 12 5 4 5 3 3 1 3 5 2 5 1 1 1 2 3 7 2 3 5 4 11 9 8 6 1 2 2
35 30 26 28 26 24 18 16 17 17 18 12 16 13 8 8 10 11 7 5 4 5 4 2 4 4 3 5 2 3 2 2 2 1 3 4 4 4 5 4 3 3 4 4 4 1 4
32 28 31 30 32 27 23 20 22 21 20 19 15 12 11 11 10 7 7 3 8 3 4 4 4 5 1 3 2 4 3 2 3 2 3 3 7 4 5 5 4 4 2 2 4 3 3
30 27 31 27 29 28 28 27 26 23 20 17 11 11 14 11 7 5 4 7 3 2 5 6 5 3 1 3 2 4 4 2 5 8 1 3 5 2 5 4 3 2 3 3 3 4 1
26 26 26 26 22 26 26 27 25 22 15 11 13 16 15 11 8 7 4 9 3 2 4 4 4 4 4 4 5 5 5 3 3 7 5 2 5 2 3 1 6 5 3 2 1 4 3
23 25 23 23 22 21 23 21 18 17 14 12 11 5 11 13 9 10 5 4 2 2 3 5 1 3 4 5 6 4 5 1 3 2 7 1 1 7 5 2 3 2 4 3 3 3 2
23 23 22 17 17 17 20 21 20 18 12 10 10 3 16 14 7 3 3 3 3 3 3 3 1 3 5 6 5 4 2 2 11 4 4 6 2 4 6 5 4 3 4 2 2 5 2
19 20 22 20 18 19 17 16 16 19 19 12 5 5 14 12 4 4 3 1 2 4 3 3 4 2 2 2 3 2 0 1 11 4 3 3 2 4 8 5 5 4 6 5 3 3 3
15 14 15 16 17 17 16 15 9 17 17 13 3 3 7 9 5 2 4 3 4 4 3 3 4 3 4 4 2 1 1 3 7 5 4 3 1 5 4 6 4 6 9 8 2 3 1
14 9 11 14 15 16 18 16 13 11 12 7 5 2 3 2 5 3 0 3 3 5 6 13 5 6 1 2 2 3 4 5 3 2 3 3 3 2 6 8 5 3 5 8 6 2 3
15 11 8 9 12 15 15 15 14 13 8 6 3 2 1 3 8 2 4 5 4 3 4 3 3 4 5 3 3 3 1 2 2 4 1 1 3 1 4 3 4 4 5 5 3 4 4
15 12 10 10 9 10 14 16 13 12 8 3 6 4 3 4 4 2 3 3 3 0 3 4 3 1 2 2 5 8 8 10 7 2 2 0 2 2 4 4 4 4 3 2 1 0 1
16 14 11 10 11 10 11 12 15 14 3 6 5 2 2 2 2 1 2 3 5 5 1 2 3 1 2 9 13 9 10 11 9 7 7 2 2 2 4 4 2 4 2 2 2 1 1
16 14 12 10 10 11 10 9 11 13 8 2 1 1 0 1 1 4 8 2 3 4 2 3 3 2 9 6 3 4 4 4 3 5 4 3 3 1 1 1 5 2 4 4 4 5 3
15 13 13 11 9 10 11 10 7 8 8 4 2 1 1 3 5 3 1 3 2 3 5 2 2 6 6 3 3 1 3 2 4 7 1 1 3 3 1 1 5 3 3 4 3 5 6
15 14 11 13 10 8 9 10 8 6 5 3 2 0 2 4 5 6 4 4 2 1 2 5 6 2 3 2 1 1 3 2 3 3 2 2 1 4 3 3 6 4 5 4 2 5 9
15 15 13 12 13 11 10 10 10 8 6 4 4 5 4 5 7 9 9 6 6 5 3 2 2 2 3 2 2 2 2 3 3 4 3 4 3 4 1 2 6 8 5 5 4 5 9
16 15 14 12 13 12 9 9 10 10 8 6 5 5 5 5 6 8 13 12 10 7 5 6 4 5 5 2 1 1 2 1 3 3 1 3 5 3 7 5 4 16 5 9 8 7 9

GFSGBSN_850_spd_099.txt.gz
Wind_Speed
30 29 28 25 26 19 15 13 13 14 11 12 12 13 13 11 11 10 11 17 18 17 13 10 19 18 13 5 6 12 10 9 10 9 9 9 8 4 4 2 4 0 4 10 12 18 17
33 29 25 26 22 17 14 10 10 10 8 12 11 8 11 10 10 12 13 10 18 17 14 18 22 18 12 5 13 11 7 11 10 9 8 6 6 6 5 2 2 6 9 16 12 20 17
31 31 27 23 20 17 15 14 13 11 11 10 9 9 7 8 11 13 13 10 12 13 16 19 21 19 11 7 14 10 12 10 9 7 9 8 6 3 2 2 7 7 6 8 11 9 5
31 27 26 20 18 16 14 12 11 10 9 9 8 8 10 9 11 14 15 16 17 17 20 16 20 14 8 15 12 12 13 11 7 7 6 7 4 6 4 3 6 4 2 4 4 1 5
27 22 19 18 18 16 15 14 12 10 9 9 10 7 6 8 10 12 13 15 12 20 21 17 25 12 10 13 10 12 10 10 7 6 6 5 5 5 4 4 4 5 3 4 8 5 4
23 24 24 22 21 15 14 15 12 11 9 8 10 4 4 8 7 9 12 13 23 26 23 26 24 12 14 10 14 12 9 7 5 8 7 5 6 3 4 4 3 3 4 5 9 5 4
27 28 30 30 29 21 6 11 9 10 10 8 9 6 5 6 8 7 6 25 28 14 12 6 9 11 21 17 13 13 11 9 8 5 3 5 5 2 5 5 3 1 5 12 15 13 8
34 35 36 33 30 24 12 7 9 9 9 10 9 8 7 7 9 5 6 10 14 13 22 20 22 25 21 17 13 10 11 2 2 2 4 5 1 6 2 4 5 6 10 14 13 11 7
36 34 32 32 28 19 13 7 7 8 9 10 8 9 7 7 5 8 20 21 23 22 11 8 17 18 8 12 7 10 11 3 0 0 2 3 4 3 4 4 6 7 9 9 11 9 11
36 33 30 28 26 22 14 11 7 7 9 9 9 9 8 5 12 8 20 20 15 16 5 5 6 6 5 9 5 8 9 1 1 2 2 4 3 3 4 5 7 6 10 15 12 10 5
34 30 29 29 27 24 20 15 10 7 10 11 8 10 10 6 13 14 18 14 11 4 6 1 3 3 4 4 11 3 6 2 2 2 5 5 2 2 4 6 6 10 4 6 11 8 5
32 34 33 32 24 21 19 16 14 10 10 9 11 11 14 17 17 19 19 8 4 5 5 3 2 1 3 4 3 4 1 1 2 3 4 7 3 4 6 4 9 10 6 3 0 0 2
31 31 36 35 33 26 24 24 21 17 16 14 11 10 12 16 17 12 7 1 4 5 3 1 3 2 2 3 2 0 2 0 1 4 4 5 4 3 5 4 3 4 4 4 5 4 3
26 27 34 34 34 30 26 25 23 20 17 14 12 10 14 17 10 7 1 2 9 3 4 3 3 4 3 2 2 3 1 1 1 3 3 2 6 5 6 6 3 3 1 1 5 3 3
24 24 27 29 30 29 26 24 20 17 16 15 13 15 16 13 8 5 3 7 3 2 4 6 5 3 2 0 1 1 2 2 5 7 2 2 5 4 5 4 2 1 2 1 4 4 3
24 23 23 23 25 27 26 24 22 21 20 15 11 13 25 13 9 5 5 7 3 1 5 3 3 3 4 2 2 2 4 2 1 8 5 2 5 2 4 2 4 2 3 2 0 4 4
21 19 19 20 19 20 23 23 25 24 20 16 10 6 19 13 15 15 5 4 4 1 3 4 3 4 3 5 4 3 3 3 4 3 9 1 1 6 3 2 2 3 3 2 2 2 2
18 18 19 19 19 19 20 16 20 23 23 18 14 4 17 13 9 5 3 3 3 2 5 2 2 3 6 5 5 4 4 4 11 9 5 5 1 5 6 3 1 3 3 2 2 3 1
14 14 16 18 21 20 18 17 19 20 18 15 7 9 22 14 4 4 4 3 1 5 4 1 1 0 2 5 3 4 3 2 11 6 4 3 1 4 8 5 4 2 2 3 4 1 0
15 10 11 14 16 19 20 18 17 17 16 14 4 3 9 15 9 3 5 5 5 6 2 3 3 2 1 2 2 2 1 2 10 7 4 3 2 5 5 6 2 6 8 4 2 2 2
16 14 10 11 13 15 17 17 15 14 12 7 6 2 3 3 6 4 3 3 3 6 6 9 2 3 2 1 1 1 2 4 3 2 3 3 3 4 7 9 4 6 7 7 3 2 2
18 16 15 12 10 12 16 18 17 13 8 3 5 4 2 2 5 4 4 5 6 5 5 5 3 4 4 1 1 2 1 0 1 2 3 1 3 2 5 3 3 6 8 6 5 2 1
17 16 15 13 12 10 12 16 18 17 6 3 6 7 3 3 3 2 2 3 4 3 1 2 3 3 4 3 5 8 8 9 6 3 1 0 1 3 5 4 6 7 6 5 3 4 4
15 15 14 13 12 11 10 11 14 16 6 4 2 2 1 2 2 2 2 1 2 3 3 4 2 0 2 11 14 10 11 14 11 10 10 2 1 1 4 5 2 4 1 2 5 6 5
16 13 14 13 11 11 10 9 9 12 8 1 1 2 2 1 2 2 3 1 4 6 3 3 2 3 10 7 4 4 4 4 1 4 6 5 3 1 0 2 7 3 4 5 5 6 8
15 14 12 13 13 9 10 9 7 6 8 3 1 3 2 0 4 3 2 3 2 2 6 4 4 5 5 3 3 2 3 3 5 8 4 5 3 3 0 0 5 4 1 3 3 5 4
16 14 12 12 12 12 10 9 7 5 5 5 2 3 4 3 5 7 5 4 4 2 2 5 4 3 3 2 1 3 3 3 3 3 2 2 1 4 4 4 8 5 4 3 2 5 6
17 14 13 11 11 12 11 10 8 6 7 8 7 6 5 5 10 11 10 9 6 5 4 2 2 1 3 1 1 2 2 3 1 4 4 5 4 4 2 3 7 7 4 6 5 2 6
20 15 13 12 12 11 11 10 8 8 7 8 9 8 7 8 8 11 12 16 15 10 6 5 2 3 3 3 0 1 3 1 3 4 1 3 6 4 8 6 5 14 9 10 6 7 11

GFSGBSN_850_spd_102.txt.gz
Wind_Speed
30 28 29 23 21 18 16 14 11 11 10 9 10 10 9 10 9 7 7 8 12 16 12 6 3 11 9 7 8 10 8 7 8 6 6 6 6 4 4 3 2 2 4 8 10 20 17
30 26 25 23 18 15 14 14 13 11 9 10 10 9 7 9 8 9 9 10 7 7 11 12 8 15 14 7 12 9 6 7 6 5 7 5 6 8 7 3 3 3 7 13 12 15 15
28 23 23 21 19 16 14 13 11 11 9 9 8 8 4 4 6 8 9 10 7 5 7 16 6 19 18 8 13 8 9 8 7 5 7 9 7 3 4 3 4 3 5 7 4 3 4
24 27 28 26 24 19 8 8 8 9 7 7 6 8 7 4 6 9 11 11 9 9 9 11 21 16 12 18 10 12 9 11 8 9 7 8 6 7 4 2 5 4 4 5 4 7 5
32 34 34 34 32 31 1 4 6 9 9 7 9 5 3 2 7 9 10 10 10 7 17 11 22 16 9 18 13 11 6 10 8 7 8 5 4 5 3 4 4 7 2 2 8 3 2
36 36 34 34 29 27 12 7 10 10 10 9 8 6 3 4 6 8 11 15 21 24 13 25 21 13 11 10 14 10 6 5 7 8 6 6 6 4 4 5 3 2 3 4 6 5 1
36 34 32 31 29 23 17 12 11 13 11 10 8 7 8 10 10 5 21 31 25 9 16 7 13 9 18 17 15 11 8 9 7 6 3 5 5 1 2 3 3 2 1 6 8 10 8
34 32 30 32 26 23 18 16 15 15 12 13 12 10 9 12 13 2 21 9 14 12 22 27 28 25 22 13 13 11 7 4 4 3 2 5 1 3 3 3 2 2 2 7 8 7 5
36 32 29 30 27 24 19 17 16 14 13 12 11 9 11 10 13 12 26 26 22 16 8 16 21 14 7 13 7 6 3 2 2 2 1 3 2 4 3 2 2 3 4 5 7 8 12
36 35 25 28 27 23 20 16 14 14 12 13 13 7 6 6 13 25 26 27 18 9 5 7 4 4 4 11 6 6 4 2 2 2 2 3 1 1 2 4 5 4 7 10 9 7 4
37 36 30 32 30 27 22 17 13 12 14 15 13 12 9 13 19 21 24 23 7 2 6 5 4 4 4 6 10 2 3 2 2 2 5 4 2 2 3 4 5 8 2 5 9 10 5
36 39 34 36 33 30 28 24 21 20 19 16 14 14 14 19 21 19 10 6 2 5 5 2 3 2 3 5 3 4 1 1 2 1 1 6 2 3 4 2 7 6 5 5 2 2 2
30 34 35 35 34 31 29 27 24 21 18 17 17 13 15 19 14 11 4 4 5 5 1 2 3 2 1 2 1 2 1 1 2 5 5 5 3 2 3 4 2 1 4 4 5 3 4
25 27 28 29 27 25 24 24 23 21 19 16 18 15 12 10 6 3 3 4 9 2 3 3 3 3 3 2 1 1 2 2 2 3 3 4 6 4 5 5 2 3 2 1 4 3 5
22 24 25 24 22 21 20 20 19 16 12 10 10 18 20 11 4 1 3 7 4 2 3 5 3 4 2 1 3 3 3 1 3 4 2 2 5 4 6 4 3 0 2 1 4 1 4
22 24 24 25 23 20 20 21 21 21 18 12 7 8 26 12 9 5 5 7 3 1 4 2 3 2 2 1 2 3 1 3 3 5 3 1 5 4 4 2 5 4 2 2 1 4 5
18 21 24 24 23 23 20 20 20 20 18 16 10 5 20 12 19 15 6 4 4 2 3 2 2 3 1 1 2 1 2 4 3 4 8 1 2 6 1 5 4 2 0 1 0 3 2
15 16 18 22 23 23 23 21 20 18 17 17 18 4 16 11 9 5 3 2 3 3 3 2 0 2 4 4 2 1 4 4 9 8 4 5 2 5 8 1 2 1 3 3 3 3 2
16 13 14 17 20 21 22 22 22 20 16 10 7 8 26 11 4 4 4 3 3 4 3 2 2 3 1 4 0 4 3 2 12 7 4 3 2 4 7 4 2 1 2 3 1 2 4
19 16 12 12 14 18 20 19 21 19 13 9 3 3 8 17 9 4 4 4 5 6 2 4 3 3 2 0 3 3 2 1 11 8 6 5 2 5 5 6 2 5 3 3 3 1 2
19 18 16 13 12 13 16 19 19 17 13 6 4 2 3 2 6 4 2 1 4 6 6 10 3 5 2 3 2 2 2 4 1 3 2 2 4 4 7 11 6 8 9 5 6 6 5
21 18 18 15 13 12 14 17 19 16 9 8 3 4 4 3 2 4 5 5 4 4 2 3 2 3 1 3 3 3 1 3 3 1 4 1 4 2 5 4 3 6 9 8 6 4 6
17 18 17 15 14 14 14 15 16 17 8 5 6 4 1 1 1 3 3 3 1 1 2 3 3 2 2 3 7 11 11 9 5 2 2 2 0 3 5 5 7 7 6 8 5 4 5
14 15 16 15 14 13 13 13 14 15 9 6 5 3 3 2 1 3 3 6 7 7 5 4 4 3 2 12 15 12 13 15 11 12 10 3 1 1 4 6 3 5 1 2 5 5 8
13 12 13 15 14 12 12 12 11 10 10 4 2 3 2 1 4 4 5 4 4 5 6 7 8 5 6 5 3 5 3 2 0 3 6 6 3 2 1 2 8 4 1 4 5 6 7
18 13 11 12 15 13 12 10 9 8 7 6 3 3 3 2 5 5 3 3 2 2 5 5 4 5 3 2 2 3 3 2 3 6 6 4 2 2 0 0 5 4 2 3 3 5 3
20 17 12 10 12 14 13 11 9 8 7 6 4 4 4 4 6 6 4 4 3 2 2 5 3 2 1 1 1 3 3 4 4 4 6 4 3 5 4 4 8 6 4 4 1 5 4
19 18 15 10 10 12 14 13 9 8 7 7 8 7 6 5 12 12 11 10 6 5 3 2 3 2 1 2 3 3 3 3 2 4 4 5 4 4 3 3 7 6 4 5 5 2 6
18 18 16 13 10 11 12 13 11 8 8 8 9 9 9 9 10 18 18 17 18 16 7 6 2 2 4 3 1 1 3 1 3 4 2 3 5 3 7 6 5 10 12 11 10 9 8

GFSGBSN_850_spd_105.txt.gz
Wind_Speed
26 23 24 24 20 18 10 10 11 10 9 8 9 7 5 7 15 11 7 3 4 6 6 11 14 10 21 16 10 10 7 9 10 9 9 8 7 6 5 5 4 3 1 5 7 14 16
28 29 30 30 29 26 10 5 9 9 7 7 8 7 3 5 9 5 8 5 1 3 7 10 8 20 18 14 12 7 7 8 10 7 9 6 6 11 9 4 4 1 4 10 8 10 8
35 35 34 32 29 28 4 7 9 10 9 8 7 7 3 1 4 3 8 4 3 6 9 8 18 26 22 14 11 7 7 11 9 8 11 12 9 3 5 4 4 1 5 5 3 6 4
32 33 32 31 30 26 15 14 10 11 9 8 7 8 3 0 4 5 6 4 7 8 12 6 25 29 13 18 16 9 8 13 10 11 10 11 9 10 6 5 5 4 4 5 1 6 2
32 34 30 29 34 25 22 15 13 12 9 9 9 7 5 3 5 5 5 6 13 12 17 15 19 27 12 18 14 11 6 11 9 10 11 8 5 6 4 4 3 7 1 2 7 2 2
30 32 29 29 27 26 21 19 15 13 13 13 12 10 11 8 8 9 7 21 21 18 21 19 23 15 12 12 12 11 9 7 8 6 7 6 6 3 3 4 2 1 1 3 5 3 3
28 29 27 28 25 23 19 18 17 18 18 16 13 11 14 8 15 23 31 32 22 13 16 7 15 24 19 15 13 10 9 9 8 8 4 6 6 3 2 3 4 4 1 3 5 6 4
28 28 25 28 24 20 19 19 19 19 18 17 14 12 9 14 19 20 10 17 12 14 26 31 33 27 19 12 11 9 5 3 6 4 1 5 3 2 5 4 3 2 2 5 9 7 5
30 28 26 25 24 21 19 21 22 20 19 20 15 11 15 14 17 14 24 19 21 17 10 15 18 13 7 10 6 4 5 4 4 4 4 3 3 6 1 1 1 2 3 3 6 7 9
33 31 30 28 29 27 24 24 23 23 23 23 18 7 7 19 23 27 22 25 16 6 5 8 7 6 5 9 6 4 5 3 4 2 2 2 1 2 2 3 5 3 8 7 6 6 4
33 32 32 32 32 31 30 28 25 24 24 24 19 16 9 9 28 24 22 11 1 0 6 6 4 4 8 7 9 1 4 3 3 2 5 2 2 2 3 5 6 3 4 6 8 6 4
28 30 28 28 27 26 26 26 25 25 25 25 24 18 25 24 28 23 6 1 2 6 6 3 3 2 4 6 3 3 2 3 3 3 3 4 1 3 4 2 5 4 3 2 2 2 2
25 26 26 26 24 23 22 23 23 21 20 22 21 18 20 20 17 9 4 5 5 6 1 2 2 1 3 3 4 2 3 4 3 4 5 4 2 2 3 2 2 2 3 3 4 2 4
23 24 23 23 24 24 23 22 19 13 14 17 23 17 7 6 5 7 7 6 11 2 4 1 2 4 4 0 3 2 2 2 3 2 2 2 3 5 5 4 2 1 1 2 4 3 5
22 23 24 24 23 25 25 23 21 18 11 9 10 19 18 6 1 1 5 7 2 2 3 4 2 3 4 2 3 1 4 3 4 6 4 3 4 2 4 3 2 1 1 0 3 1 3
19 21 22 24 25 25 26 25 22 19 14 11 9 14 22 13 11 7 6 7 3 1 4 2 2 1 3 2 1 2 1 3 2 4 1 0 4 2 1 2 2 4 2 2 0 3 4
17 18 20 21 22 24 24 25 23 16 12 12 10 7 18 11 16 13 4 3 3 3 2 2 3 2 1 2 3 1 2 2 1 2 1 1 2 5 2 4 5 1 2 1 1 2 2
19 17 17 18 20 22 24 23 23 16 12 14 11 4 10 9 8 4 3 2 1 1 2 1 2 2 4 3 1 0 1 3 4 5 1 1 2 5 7 1 2 0 3 4 2 3 3
20 20 18 15 16 18 21 23 22 18 11 6 6 7 16 6 4 2 1 2 2 3 3 3 3 3 2 2 3 1 1 2 9 5 3 3 1 5 7 4 1 3 3 3 3 2 5
20 19 19 18 15 15 18 20 22 16 15 7 2 3 8 13 8 5 3 2 2 4 3 2 1 3 3 3 1 3 2 1 8 7 4 5 3 6 5 6 2 5 5 4 4 2 2
21 19 18 18 19 17 16 18 20 16 11 7 5 3 3 1 4 4 2 2 1 2 2 5 3 4 1 1 2 2 1 3 3 3 3 4 4 5 7 14 8 14 15 8 8 7 5
19 21 19 18 18 17 17 17 18 16 10 9 3 2 4 4 3 2 2 3 4 3 4 1 4 2 4 4 5 4 3 4 4 1 4 1 4 2 6 6 5 7 11 12 14 8 9
15 18 20 18 17 17 16 17 17 17 11 7 6 6 2 1 2 2 2 2 4 1 4 3 4 2 3 7 13 14 14 9 7 7 5 5 2 2 5 4 9 6 5 7 5 5 6
14 14 17 18 16 16 15 15 14 15 11 8 6 4 2 2 1 3 1 1 2 4 4 4 4 1 3 5 12 12 12 15 12 11 10 5 3 1 4 6 4 5 3 5 7 6 8
18 13 12 16 17 15 14 13 12 10 10 6 2 2 1 0 3 4 4 3 3 4 3 4 6 6 9 8 3 5 3 2 2 5 7 8 3 3 2 2 7 2 2 3 3 6 4
19 18 13 12 15 17 14 13 11 9 6 6 5 2 1 2 4 4 2 3 3 2 4 4 4 6 3 3 2 3 3 2 2 0 7 5 2 2 1 2 5 4 2 5 5 4 3
20 19 17 11 11 15 15 14 11 9 8 6 5 4 2 4 5 6 5 4 4 2 2 4 2 2 2 2 1 3 4 2 3 3 4 2 2 6 4 3 8 6 3 3 2 5 3
18 20 21 16 10 12 14 14 13 10 8 8 7 8 6 5 10 12 11 9 7 6 4 1 3 1 2 1 2 2 2 3 2 4 5 7 5 4 2 3 7 7 5 5 4 3 5
19 19 22 20 17 10 12 14 13 12 9 8 8 7 9 10 9 11 16 19 18 16 8 7 3 3 6 3 2 1 3 1 3 4 1 4 6 3 8 6 5 13 11 9 8 12 15

GFSGBSN_850_spd_108.txt.gz
Wind_Speed
31 31 32 31 28 21 15 9 7 9 7 6 6 6 4 1 4 6 10 2 1 9 7 11 16 16 10 11 8 9 4 9 11 12 12 11 7 5 6 6 4 2 2 2 2 5 8
33 32 31 29 29 23 17 20 14 12 9 8 9 8 4 0 6 8 11 3 1 11 11 15 17 14 20 10 11 8 8 9 10 10 12 10 7 10 10 4 1 2 3 5 3 3 4
31 28 29 35 34 28 24 19 16 13 11 11 9 8 4 3 4 9 7 4 5 13 11 14 24 17 24 12 12 9 7 12 12 11 15 15 13 4 8 7 3 2 3 3 4 2 1
29 26 26 30 28 24 23 21 19 17 15 13 10 7 4 3 3 3 4 5 9 15 16 17 21 17 14 18 17 9 11 14 12 12 13 13 12 12 4 8 3 0 2 2 4 3 2
27 28 23 27 24 23 22 20 18 16 14 13 12 9 4 1 2 4 7 10 14 16 12 31 31 16 14 16 10 10 7 13 12 12 13 10 6 6 4 3 3 2 2 3 2 3 3
27 29 23 22 21 21 21 21 21 19 17 13 11 9 7 6 8 10 15 20 17 18 17 23 13 15 10 10 14 12 10 7 6 10 8 4 5 3 3 1 2 1 2 3 7 2 7
26 27 24 22 20 20 21 22 22 20 18 12 10 14 11 17 22 27 29 25 16 12 19 8 18 35 23 16 10 10 9 7 6 6 3 5 4 6 6 6 6 4 1 5 7 4 9
29 27 25 23 19 19 21 22 23 21 19 14 15 11 14 20 22 23 14 14 12 12 23 29 31 33 14 7 8 9 8 4 5 5 1 4 6 5 7 5 4 1 3 5 8 2 9
32 29 27 24 22 21 23 23 23 21 19 15 9 12 15 20 16 18 32 28 21 19 9 15 17 15 9 8 6 9 7 4 5 5 7 6 6 7 1 3 0 2 3 3 5 13 9
28 29 28 27 26 24 22 23 23 23 22 20 12 13 19 25 19 32 30 20 10 5 5 10 11 9 7 5 5 7 8 3 3 5 4 6 4 3 1 1 4 1 4 3 6 9 5
24 23 26 27 27 27 26 25 23 24 24 25 21 18 18 14 38 19 15 8 4 1 6 9 6 5 7 6 4 4 7 3 4 4 2 2 4 3 3 1 5 4 0 6 8 6 6
23 23 24 24 25 26 25 22 20 19 22 22 20 16 17 22 16 12 4 5 4 1 7 2 5 4 3 5 3 2 3 4 3 3 3 3 1 2 2 1 4 4 5 1 2 1 3
22 23 23 23 25 26 25 22 16 16 19 19 20 17 15 15 15 4 6 5 2 7 1 3 2 1 3 3 2 2 3 4 2 1 3 1 2 1 2 1 1 3 3 2 2 3 3
21 22 24 26 27 28 28 26 18 8 12 18 12 7 8 7 8 6 6 2 11 2 5 2 2 4 3 2 2 2 0 3 3 4 3 2 2 5 6 3 3 1 3 2 4 3 6
19 21 22 24 26 27 27 26 20 11 10 12 15 17 12 5 1 2 5 7 4 2 4 6 3 1 2 3 1 2 4 3 4 2 4 4 0 2 4 1 3 2 2 2 4 3 5
18 18 19 22 23 24 25 24 21 11 7 9 10 15 18 14 11 9 6 7 3 1 4 2 3 3 3 3 3 4 5 2 2 0 1 1 3 1 1 2 5 3 2 3 4 5 5
21 20 19 19 21 22 23 22 18 13 7 3 5 4 12 16 19 14 6 5 5 4 1 1 3 3 4 2 1 1 1 2 3 4 3 2 1 1 3 6 3 4 3 6 3 3 3
23 21 21 19 18 20 22 21 16 10 14 12 7 4 10 8 5 4 3 4 5 4 2 2 2 2 2 3 1 0 0 2 6 5 1 1 2 4 3 2 1 3 5 5 3 2 4
23 24 21 20 20 19 19 21 18 11 8 5 5 4 11 3 4 3 3 3 1 2 2 4 3 2 2 3 2 3 2 2 8 6 3 4 2 4 3 3 3 6 7 6 2 1 8
20 22 23 21 21 20 19 19 21 12 10 4 3 2 7 11 7 4 5 2 3 0 1 0 2 2 4 3 4 3 4 5 9 8 8 6 5 8 6 7 1 8 9 10 10 6 7
21 20 20 22 22 21 20 18 20 14 9 3 3 3 2 2 5 3 2 1 3 3 2 2 2 3 3 4 3 4 4 3 5 6 5 3 5 8 15 20 17 20 19 17 18 19 11
17 19 20 19 20 20 20 20 18 16 8 7 3 4 5 4 2 1 2 1 0 1 2 1 2 1 2 3 4 3 4 4 2 5 5 1 4 4 8 16 13 13 15 16 18 21 20
16 16 18 19 18 19 19 19 17 16 13 7 5 6 3 1 3 2 2 2 2 1 3 1 1 1 3 4 8 9 8 6 2 2 8 3 3 3 6 7 14 12 7 11 8 8 15
16 14 14 17 18 17 17 17 16 15 13 9 6 3 1 3 3 2 5 4 5 4 2 3 4 3 4 6 13 11 10 13 12 13 8 4 2 2 6 11 4 2 1 4 10 11 13
19 16 13 13 16 17 15 15 15 13 10 9 7 4 3 2 3 4 7 5 3 4 4 5 7 6 6 5 3 5 3 3 3 3 9 12 5 4 4 4 14 1 2 1 3 5 4
19 19 16 14 13 15 15 13 12 12 10 8 6 6 4 4 4 3 5 6 3 3 2 4 5 6 2 1 2 3 3 2 1 4 5 7 8 4 1 4 5 2 2 5 3 3 3
18 20 19 18 16 14 15 14 12 11 10 8 7 5 4 4 5 6 4 3 7 4 2 2 2 3 6 3 4 4 3 1 3 3 5 5 4 11 11 8 9 7 5 4 4 3 0
18 19 19 18 18 17 15 16 14 12 10 9 8 7 5 5 13 13 12 9 5 5 3 4 2 3 2 5 3 3 4 3 3 2 5 8 7 6 5 7 9 10 6 6 4 6 3
20 18 19 19 18 18 16 15 14 13 12 9 7 9 9 9 10 17 17 14 17 13 7 7 3 3 6 3 3 1 4 3 4 5 3 5 7 3 8 6 1 13 11 8 8 6 11

GFSGBSN_850_spd_111.txt.gz
Wind_Speed
28 27 33 33 34 34 30 25 14 13 11 10 9 7 7 6 7 4 3 1 2 9 7 15 13 15 20 12 8 3 5 8 8 8 8 8 11 7 7 6 6 3 4 2 1 4 7
26 26 28 27 26 25 22 18 15 12 9 9 9 6 6 7 2 2 6 4 4 11 10 16 15 11 15 10 7 5 5 7 7 5 6 6 5 5 8 5 1 3 2 1 3 3 4
25 25 27 26 24 23 23 20 17 14 11 8 6 7 9 3 6 12 13 7 8 13 11 19 19 9 19 8 9 6 6 9 10 7 7 8 8 1 7 6 3 2 2 4 4 2 3
26 24 25 23 24 23 22 21 19 18 16 14 12 10 9 11 14 17 12 11 8 12 16 23 23 24 11 14 13 8 9 9 9 9 11 10 9 8 4 7 4 3 3 5 7 3 3
26 25 23 22 22 23 22 20 19 18 14 12 11 8 8 5 7 10 11 12 10 8 18 22 25 26 7 12 10 7 6 9 9 9 10 9 6 4 4 3 3 6 5 5 7 4 1
24 24 22 21 22 22 22 21 20 17 16 14 13 10 7 3 8 15 16 14 15 15 27 20 25 13 9 5 5 8 6 6 5 6 6 3 3 2 2 3 2 4 4 3 4 5 6
28 26 23 21 22 23 22 23 21 19 15 13 11 12 13 10 18 20 19 19 17 10 27 9 13 23 18 10 5 6 4 4 3 1 2 1 3 4 5 4 3 2 2 5 6 5 10
27 29 29 29 27 25 24 23 20 15 13 15 12 13 18 19 28 23 15 14 14 18 23 32 29 24 10 5 9 8 6 2 3 3 4 3 4 5 5 3 2 3 4 5 6 1 10
24 26 27 27 28 29 26 23 21 19 15 11 11 14 12 18 16 17 23 32 22 15 8 12 14 12 5 7 7 10 6 3 5 6 2 2 8 4 0 2 3 1 3 5 5 14 12
23 25 23 24 23 24 24 24 22 21 17 13 13 17 20 21 26 27 25 18 8 4 4 9 6 8 7 2 6 8 7 3 3 5 6 6 3 0 0 1 1 1 1 5 8 10 4
24 24 26 25 25 24 23 20 18 19 19 17 15 19 12 7 29 13 9 7 8 2 5 8 6 4 7 6 3 6 8 4 6 5 2 3 4 2 1 1 2 4 4 8 8 5 7
23 24 25 26 26 25 22 18 16 16 18 16 12 7 24 27 18 12 3 8 0 1 6 3 4 3 6 11 6 2 2 4 2 4 5 4 1 2 3 0 4 4 5 3 3 2 3
20 22 24 26 28 28 24 18 13 13 16 16 14 13 11 7 4 3 10 2 2 7 3 4 5 5 8 6 5 4 5 7 3 3 4 1 2 2 2 4 5 5 4 2 2 2 2
18 19 21 23 25 26 25 19 14 8 9 7 5 5 6 6 8 10 6 1 10 2 5 3 3 7 5 5 5 5 3 5 5 3 2 1 3 5 6 3 5 4 4 2 3 4 6
22 19 18 19 22 24 23 19 14 10 8 11 13 9 3 3 5 2 2 6 4 4 5 6 3 5 4 4 3 1 5 3 3 4 1 1 1 2 3 2 4 3 2 3 3 4 4
23 23 19 18 19 20 21 18 12 7 5 2 6 11 13 9 7 7 5 7 4 3 6 3 3 2 3 2 2 3 1 1 2 1 2 2 0 3 3 3 4 3 1 2 3 4 5
25 24 23 20 19 19 19 17 12 10 7 3 3 1 7 10 12 10 4 6 6 5 3 2 2 4 3 3 1 2 2 2 1 2 2 3 1 3 2 7 6 4 3 4 3 4 4
24 23 23 22 21 20 19 18 11 11 9 7 6 2 8 7 3 4 5 4 4 5 3 1 1 3 2 1 2 1 1 0 5 3 1 2 3 4 6 3 2 6 10 9 5 5 7
22 24 23 21 22 21 19 19 15 9 10 3 3 2 10 5 4 4 4 4 2 4 3 3 2 2 1 2 2 2 2 2 5 3 3 2 2 4 2 3 4 6 10 13 11 6 13
20 21 23 23 21 21 21 19 19 12 10 4 2 2 6 8 5 8 7 3 4 2 1 1 1 2 3 3 3 1 2 2 3 4 1 1 3 7 8 11 10 10 8 11 14 10 13
18 19 20 21 22 22 21 20 19 15 10 4 4 3 1 1 2 4 1 3 5 4 3 3 3 6 3 2 2 3 2 3 5 5 5 3 6 8 16 19 18 20 20 19 20 20 17
18 17 18 20 22 21 21 21 18 17 8 10 2 1 2 2 1 2 2 3 4 2 3 3 4 1 3 4 2 3 3 4 4 7 8 5 4 8 10 18 15 17 18 19 20 22 24
19 18 17 19 20 20 20 20 19 16 12 6 6 5 2 2 1 3 1 4 6 4 5 4 3 4 6 7 6 7 10 12 9 8 10 7 4 4 7 9 16 16 14 18 14 13 15
18 19 18 18 18 19 19 19 18 16 14 9 6 3 2 1 3 3 1 2 5 6 5 4 6 5 1 3 9 13 15 18 18 18 17 8 7 6 7 12 5 3 4 3 11 14 14
16 17 18 19 18 18 18 18 17 15 12 8 7 3 2 3 3 5 5 5 5 6 6 8 8 5 4 5 4 5 4 4 6 11 14 15 10 5 4 7 17 19 3 5 6 7 8
15 16 17 18 20 20 19 17 16 15 14 9 6 4 2 6 2 4 3 5 7 6 5 5 4 5 2 3 3 4 4 2 3 4 2 8 12 7 5 5 5 4 8 5 3 6 9
19 19 17 17 17 19 21 18 16 14 13 12 7 6 3 5 6 5 6 4 4 3 4 1 3 3 4 4 5 5 5 1 4 4 6 5 5 13 12 9 10 13 10 8 3 2 4
21 20 19 17 15 16 18 21 18 15 13 11 9 7 5 5 11 13 13 8 6 6 5 3 2 4 4 4 3 4 4 3 3 7 4 10 7 6 7 8 11 14 10 7 3 3 1
21 23 21 18 14 14 15 17 20 18 14 13 10 11 11 10 10 17 16 17 20 14 8 9 3 1 5 4 3 3 4 3 6 5 8 6 10 4 10 7 3 19 14 15 6 5 7

GFSGBSN_850_spd_114.txt.gz
Wind_Speed
26 28 28 28 26 26 23 19 17 15 14 12 9 9 10 9 8 6 9 6 5 10 9 11 20 19 15 14 13 8 6 7 8 12 8 5 8 5 5 7 4 2 3 2 3 2 4
25 26 26 27 26 25 24 21 19 16 12 10 10 9 8 8 5 5 6 7 7 10 10 19 19 27 15 14 13 7 6 6 5 8 8 5 2 3 7 6 2 5 1 3 2 2 4
26 25 25 25 25 24 22 20 19 18 16 11 9 10 6 4 6 8 9 7 11 12 13 14 12 15 20 13 13 9 7 9 10 8 9 10 8 2 8 4 4 4 3 5 6 2 2
26 24 24 24 24 23 21 20 18 15 15 13 11 9 11 12 12 11 11 10 11 6 15 24 19 18 11 16 13 11 8 9 9 10 11 13 11 9 5 7 4 4 2 3 3 3 3
26 26 25 24 23 23 23 20 18 15 15 14 11 10 9 12 9 11 12 12 17 22 22 19 23 16 9 8 11 8 7 9 9 8 10 10 9 4 3 2 1 4 3 5 4 2 2
28 28 28 27 26 25 23 21 18 16 13 14 13 9 7 11 10 14 16 17 25 31 21 18 16 16 7 3 7 8 7 6 6 10 8 5 4 2 2 4 1 4 3 2 1 5 4
27 28 28 27 28 29 27 23 17 15 17 17 17 14 11 16 17 22 20 22 13 16 28 14 16 33 18 14 10 6 6 5 3 2 3 4 4 5 7 7 4 5 5 6 6 4 3
26 26 25 24 23 24 27 26 19 16 14 17 17 18 25 23 21 16 10 13 13 15 17 30 30 27 16 7 7 10 7 1 2 5 2 2 5 6 5 4 5 5 4 4 6 2 6
26 27 27 27 25 23 22 25 21 16 15 16 16 17 23 21 16 19 30 27 22 17 10 14 15 12 8 8 6 10 8 6 7 5 3 5 7 3 2 2 4 3 2 5 4 9 11
26 27 28 29 26 24 23 21 21 19 16 16 15 18 18 22 28 32 21 12 6 5 4 8 4 4 6 0 5 8 5 3 4 7 8 6 2 1 1 4 3 1 3 4 7 7 3
24 25 27 29 29 24 22 21 20 21 17 14 19 20 22 24 26 7 5 7 4 2 6 6 3 2 4 4 5 6 7 6 8 6 2 3 4 2 2 3 1 2 3 6 4 4 5
22 23 24 26 28 25 20 19 20 18 17 12 4 10 13 13 7 3 12 10 3 1 5 1 2 2 6 7 3 3 3 7 3 4 7 4 2 2 3 1 4 4 4 4 2 2 3
21 21 21 24 25 24 21 17 15 13 15 17 20 22 11 8 2 7 14 5 4 6 3 2 3 4 5 4 4 4 5 3 3 4 2 3 4 4 3 4 5 5 2 2 2 2 3
23 21 20 21 22 22 20 17 13 12 10 5 8 8 3 6 7 9 10 1 8 4 3 3 5 3 2 1 2 4 5 4 2 3 4 4 2 7 7 3 2 2 1 3 3 2 3
26 23 20 19 20 20 18 15 12 10 8 11 9 6 6 7 4 3 2 5 4 4 5 8 3 3 1 2 2 2 4 2 3 5 0 3 3 3 4 2 1 1 1 2 0 3 1
25 25 23 20 19 19 18 14 10 8 7 7 6 3 12 7 5 2 2 5 3 4 5 5 2 4 4 3 4 4 2 1 3 1 5 2 2 6 5 2 5 3 2 1 1 2 5
24 24 24 23 21 19 19 16 11 9 10 5 4 2 12 7 7 5 3 4 5 5 2 3 1 3 4 4 2 2 3 4 2 4 4 3 2 3 3 7 7 3 3 4 3 2 3
23 23 23 23 23 22 18 19 13 11 9 5 6 2 11 7 3 5 3 2 3 5 3 1 4 5 3 1 2 1 2 4 4 0 2 4 3 3 8 4 5 1 5 7 3 4 4
23 23 23 23 23 23 22 20 16 10 7 3 3 3 10 5 3 3 0 3 4 1 1 1 1 4 3 1 1 1 2 6 5 4 2 2 2 3 1 2 2 4 5 6 6 3 6
22 23 23 23 23 23 23 22 20 11 7 3 3 2 5 7 5 7 4 2 3 1 1 2 3 2 1 3 2 0 4 4 7 5 2 1 3 6 5 3 2 6 8 8 10 4 7
21 21 22 23 24 23 23 22 20 16 10 3 4 2 1 2 3 2 1 1 4 3 2 2 3 5 3 2 3 3 3 4 6 5 2 2 4 6 9 13 12 16 17 14 15 15 13
20 20 20 22 23 23 22 22 20 18 9 10 3 2 2 3 1 7 1 3 4 4 2 4 3 1 2 3 4 3 2 4 4 7 3 5 4 5 7 13 16 18 19 19 20 21 20
18 19 20 21 22 22 22 21 21 18 13 7 7 6 3 3 2 2 2 3 2 3 3 4 4 3 6 4 9 8 11 15 11 4 7 4 2 3 5 8 12 13 12 20 17 8 9
16 18 19 20 21 23 22 20 19 18 16 11 8 5 4 1 1 1 1 0 2 3 4 3 3 5 2 8 15 16 19 19 17 14 13 4 3 1 5 7 3 6 0 4 3 11 12
14 16 17 19 20 21 23 21 18 17 14 10 9 4 2 3 5 6 5 5 4 6 4 6 8 7 8 7 3 5 2 2 5 9 7 8 3 3 3 3 12 12 3 4 6 7 12
14 15 16 18 19 20 21 22 20 17 14 11 8 6 2 3 2 4 4 5 3 4 4 7 7 9 2 3 1 3 4 2 2 2 3 5 5 5 2 4 5 1 5 5 4 6 7
15 16 14 15 17 17 18 21 22 20 16 13 8 7 2 3 5 4 4 2 2 4 3 2 3 3 6 2 3 4 5 1 4 4 5 3 5 12 11 7 8 8 10 7 1 6 8
18 19 18 15 13 15 14 17 20 21 18 14 10 8 6 5 13 13 14 10 5 5 2 1 1 3 2 2 2 4 3 4 1 4 6 8 7 5 5 5 10 14 7 6 5 7 10
21 22 20 21 17 13 12 13 15 19 20 16 13 12 11 9 12 18 19 17 19 16 7 7 2 3 4 2 3 3 3 2 4 4 3 4 8 5 10 7 9 28 12 17 11 7 9

GFSGBSN_850_spd_117.txt.gz
Wind_Speed
24 25 24 26 25 22 21 21 18 15 14 13 12 13 11 11 10 9 6 7 8 8 10 17 13 23 17 16 9 9 5 7 11 14 14 11 6 3 5 5 5 5 3 6 5 3 1
25 25 25 24 24 23 22 18 20 18 14 11 9 9 10 9 7 8 6 9 12 11 16 21 19 27 18 13 11 9 7 7 11 12 6 7 5 9 9 6 4 5 8 8 4 3 2
25 26 25 23 23 22 21 19 16 16 15 12 11 9 8 8 11 8 7 10 13 23 21 20 18 21 21 12 13 15 9 10 9 10 11 10 9 4 7 4 6 7 4 1 3 2 0
26 27 26 27 27 25 21 19 16 16 14 11 10 10 12 12 10 10 11 12 15 19 18 17 20 19 10 14 15 12 8 8 7 9 10 11 10 11 5 10 4 3 3 2 1 1 1
29 29 29 29 28 28 24 19 16 12 13 14 10 9 14 13 11 13 14 16 15 21 23 23 21 14 8 13 16 12 11 10 10 11 13 10 7 6 4 4 5 4 0 2 1 3 0
25 25 24 25 24 27 25 19 17 16 18 16 12 12 14 12 16 24 22 28 26 27 21 16 11 10 10 9 13 8 10 8 10 10 8 6 6 4 5 5 3 1 1 2 2 2 2
27 28 28 27 25 24 25 20 18 17 18 19 16 17 15 17 22 22 30 20 16 15 29 15 19 27 19 13 13 11 10 8 6 3 3 6 9 3 2 3 3 3 2 2 3 2 3
27 28 29 28 25 23 24 20 19 17 20 20 25 23 22 20 19 18 9 14 14 17 22 26 23 21 13 10 7 9 7 2 2 4 3 7 3 1 3 4 5 5 3 3 3 2 5
26 27 27 27 26 26 21 21 21 16 17 19 21 21 17 14 17 24 31 28 18 15 8 14 14 11 10 11 6 9 6 6 6 5 4 6 4 1 2 5 5 4 4 2 2 6 4
24 26 27 26 26 26 25 23 21 18 15 18 17 16 23 33 23 23 18 8 4 3 5 9 12 9 10 3 5 8 6 4 6 5 5 6 1 1 3 3 3 2 2 2 4 5 2
21 23 25 25 24 23 23 23 20 18 17 20 21 17 25 16 12 10 6 6 1 2 6 6 4 5 6 5 3 7 8 8 4 3 4 3 3 1 3 3 2 2 1 1 2 2 4
20 21 22 23 21 21 20 19 19 17 12 14 17 17 18 7 6 7 15 5 1 3 6 1 3 3 3 3 2 3 3 6 3 6 6 3 1 2 1 0 1 3 3 1 2 2 2
23 20 20 21 21 19 17 16 13 11 12 12 13 10 2 7 7 10 15 5 5 7 3 1 2 1 3 1 4 2 2 2 3 5 4 5 1 1 1 2 1 2 4 3 3 1 5
25 23 21 20 19 18 14 14 12 11 9 3 4 8 8 9 11 11 7 4 10 4 3 3 1 2 3 4 0 3 3 2 2 3 3 4 5 3 4 3 2 4 5 4 4 2 4
25 24 23 21 19 18 15 10 6 4 5 5 6 11 12 10 7 5 1 6 6 5 4 4 1 2 0 2 1 2 3 2 2 4 4 4 4 2 3 2 2 2 0 3 2 1 3
25 25 23 23 20 18 16 11 10 8 4 2 3 4 11 10 8 6 6 5 3 3 2 3 1 2 2 2 1 3 4 1 2 1 2 3 2 4 2 1 3 2 2 3 2 2 5
24 25 25 24 22 20 19 15 10 10 6 5 5 3 15 7 7 9 4 3 4 7 7 3 4 3 3 2 1 2 3 1 2 3 1 1 4 3 3 6 7 2 2 4 2 4 4
22 22 24 24 24 22 21 20 14 9 5 4 3 3 11 8 5 5 2 2 4 0 2 3 2 4 2 3 1 1 3 1 6 5 1 2 3 4 9 5 8 5 7 6 4 4 4
22 22 22 23 24 24 23 21 17 11 6 2 3 4 9 6 3 2 1 1 1 4 4 2 1 1 1 1 2 1 3 4 7 4 2 2 2 3 6 5 3 4 5 6 3 2 7
21 22 22 22 22 23 24 23 19 12 7 4 2 2 4 6 6 6 3 3 1 1 1 2 1 2 1 2 2 1 3 4 8 4 3 2 2 6 6 4 2 4 6 7 8 4 6
19 21 22 23 23 22 22 23 21 14 9 2 3 2 2 1 4 2 2 1 3 1 1 1 2 2 1 2 3 3 4 3 4 6 3 4 4 3 7 9 8 13 16 15 17 18 11
17 19 21 23 25 24 22 21 21 18 9 10 3 3 2 2 0 2 0 3 3 2 4 3 3 3 3 3 2 3 3 2 5 2 5 4 4 2 5 9 9 14 17 18 21 22 20
14 17 19 21 23 25 24 22 21 20 15 8 5 3 1 1 0 2 2 1 1 3 2 4 2 1 4 4 5 9 10 10 8 7 7 5 3 2 5 5 10 10 10 8 6 6 14
11 13 16 18 20 22 23 23 22 20 18 14 10 4 1 2 1 2 2 1 1 3 2 2 3 2 2 6 15 16 19 21 17 12 13 4 4 2 4 5 3 6 4 6 9 8 15
8 11 12 14 17 19 20 20 22 19 16 13 11 6 3 2 1 3 2 3 4 5 5 6 7 5 8 9 4 5 4 3 2 2 7 9 5 2 2 2 11 12 4 3 4 7 8
8 10 12 14 14 15 17 18 17 19 16 12 11 9 3 2 3 3 2 2 3 2 4 3 3 6 3 1 2 2 3 4 2 2 6 4 3 4 1 2 6 5 2 5 3 6 5
10 11 14 14 15 15 15 15 16 16 18 16 11 9 5 4 3 4 3 3 3 2 2 2 2 1 4 2 1 3 4 2 2 3 2 2 2 10 9 6 9 9 6 3 3 6 4
12 15 18 18 17 15 14 13 13 14 15 16 13 13 10 4 13 9 8 9 5 4 3 2 2 1 2 2 3 3 3 4 2 4 6 8 6 5 4 5 10 7 4 7 7 4 11
15 17 21 19 19 17 13 12 13 12 14 15 14 14 14 10 11 19 20 18 18 15 5 6 3 3 7 2 2 1 2 2 3 4 1 2 7 5 11 9 10 20 14 15 9 9 12